[[{"header":{"parameterUnit":"m.s-1","parameterCategory":1,"la1":31.0,"la2":29.5877,"lo1":-88.7671,"lo2":-86.6584,"dy":0.0162,"dx":0.0185,"nx":115,"ny":88,"refTime":"2026-02-17T12:00:00:Z","depth":0,"parameterNumber":2,"parameterNumberName":"U-component_of_WINDS"},"data":[0.0,0.0,0.0,0.0,0.0,0.0,0.0,0.0,0.0,0.0,0.0,0.0,0.0,0.0,0.0,0.0,0.0,0.0,0.0,0.0,0.0,0.0,0.0,0.0,0.0,0.0,0.0,0.0,0.0,0.0,0.0,0.0,0.0,0.0,0.0,0.0,0.0,0.0,0.0,0.0,0.0,0.0,0.0,0.0,0.0,0.0,0.0,0.0,0.0,0.0,0.0,0.0,0.0,0.0,0.0,0.0,0.0,0.0,0.0,0.0,0.0,0.0,0.0,0.0,0.0,0.0,0.0,0.0,0.0,0.0,0.0,0.0,0.0,0.0,0.0,0.0,0.0,0.0,0.0,0.0,0.0,0.0,0.0,0.0,0.0,0.0,0.0,0.0,0.0,0.0,0.0,0.0,0.0,0.0,0.0,0.0,0.0,0.0,0.0,0.0,0.0,0.0,0.0,0.0,0.0,0.0,0.0,0.0,0.0,0.0,0.0,0.0,0.0,0.0,0.0,0.0,0.0,0.0,0.0,0.0,0.0,0.0,0.0,0.0,0.0,0.0,0.0,0.0,0.0,0.0,0.0,0.0,0.0,0.0,0.0,0.0,0.0,0.0,0.0,0.0,0.0,0.0,0.0,0.0,0.0,0.0,0.0,0.0,0.0,0.0,0.0,0.0,0.0,0.0,0.0,0.0,0.0,0.0,0.0,0.0,0.0,0.0,0.0,0.0,0.0,0.0,0.0,0.0,0.0,0.0,0.0,0.0,0.0,0.0,0.0,0.0,0.0,0.0,0.0,0.0,0.0,0.0,0.0,0.0,0.0,0.0,0.0,0.0,0.0,0.0,0.0,0.0,0.0,0.0,0.0,0.0,0.0,0.0,0.0,0.0,0.0,0.0,0.0,0.0,0.0,0.0,0.0,0.0,0.0,0.0,0.0,0.0,0.0,0.0,0.0,0.0,0.0,0.0,0.0,0.0,0.0,0.0,0.0,0.0,0.0,0.0,0.0,0.0,0.0,0.0,0.0,0.0,0.0,0.0,0.0,0.0,0.0,0.0,0.0,0.0,0.0,0.0,0.0,0.0,0.0,0.0,0.0,0.0,0.0,0.0,0.0,0.0,0.0,0.0,0.0,0.0,0.0,0.0,0.0,0.0,0.0,0.0,0.0,0.0,0.0,0.0,0.0,0.0,0.0,0.0,0.0,0.0,0.0,0.0,0.0,0.0,0.0,0.0,0.0,0.0,0.0,0.0,0.0,0.0,0.0,0.0,0.0,0.0,0.0,0.0,0.0,0.0,0.0,0.0,0.0,0.0,0.0,0.0,0.0,0.0,0.0,0.0,0.0,0.0,0.0,0.0,0.0,0.0,0.0,0.0,0.0,0.0,0.0,0.0,0.0,0.0,0.0,0.0,0.0,0.0,0.0,0.0,0.0,0.0,0.0,0.0,0.0,0.0,0.0,0.0,0.0,0.0,0.0,0.0,0.0,0.0,0.0,0.0,0.0,0.0,0.0,0.0,0.0,0.0,0.0,0.0,0.0,0.0,0.0,0.0,0.0,0.0,0.0,0.0,0.0,0.0,0.0,0.0,0.0,0.0,0.0,0.0,0.0,0.0,0.0,0.0,0.0,0.0,0.0,0.0,0.0,0.0,0.0,0.0,0.0,0.0,0.0,0.0,0.0,0.0,0.0,0.0,0.0,0.0,0.0,0.0,0.0,0.0,0.0,0.0,0.0,0.0,0.0,0.0,0.0,0.0,0.0,0.0,0.0,0.0,0.0,0.0,0.0,0.0,0.0,0.0,0.0,0.0,0.0,0.0,0.0,0.0,0.0,0.0,0.0,0.0,0.0,0.0,0.0,0.0,0.0,0.0,0.0,0.0,0.0,0.0,0.0,0.0,0.0,0.0,0.0,0.0,0.0,0.0,0.0,0.0,0.0,0.0,0.0,0.0,0.0,0.0,0.0,0.0,0.0,0.0,0.0,0.0,0.0,0.0,0.0,0.0,0.0,0.0,0.0,0.0,0.0,0.0,0.0,0.0,0.0,0.0,0.0,0.0,0.0,0.0,0.0,0.0,0.0,0.0,0.0,0.0,0.0,0.0,0.0,0.0,0.0,0.0,0.0,0.0,0.0,0.0,0.0,0.0,0.0,0.0,0.0,0.0,0.0,0.0,0.0,0.0,0.0,0.0,0.0,0.0,0.0,0.0,0.0,0.0,0.0,0.0,0.0,0.0,0.0,0.0,0.0,0.0,0.0,0.0,0.0,0.0,0.0,0.0,0.0,0.0,0.0,0.0,0.0,0.0,0.0,0.0,0.0,0.0,0.0,0.0,0.0,0.0,0.0,0.0,0.0,0.0,0.0,0.0,0.0,0.0,0.0,0.0,0.0,0.0,0.0,0.0,0.0,0.0,0.0,0.0,0.0,0.0,0.0,0.0,0.0,0.0,0.0,0.0,0.0,0.0,0.0,0.0,0.0,0.0,0.0,0.0,0.0,0.0,0.0,0.0,0.0,0.0,0.0,0.0,0.0,0.0,0.0,0.0,0.0,0.0,0.0,0.0,0.0,0.0,0.0,0.0,0.0,0.0,0.0,0.0,0.0,0.0,0.0,0.0,0.0,0.0,0.0,0.0,0.0,0.0,0.0,0.0,0.0,0.0,0.0,0.0,0.0,0.0,0.0,0.0,0.0,0.0,0.0,0.0,0.0,0.0,0.0,0.0,0.0,0.0,0.0,0.0,0.0,0.0,0.0,0.0,0.0,0.0,0.0,0.0,0.0,0.0,0.0,0.0,0.0,0.0,0.0,0.0,0.0,0.0,0.0,0.0,0.0,0.0,0.0,0.0,0.0,0.0,0.0,0.0,0.0,0.0,0.0,0.0,0.0,0.0,0.0,0.0,0.0,0.0,0.0,0.0,0.0,0.0,0.0,0.0,0.0,0.0,0.0,0.0,0.0,0.0,0.0,0.0,0.0,0.0,0.0,0.0,0.0,0.0,0.0,0.0,0.0,0.0,0.0,0.0,0.0,0.0,0.0,0.0,0.0,0.0,0.0,0.0,0.0,0.0,0.0,0.0,0.0,0.0,0.0,0.0,0.0,0.0,0.0,0.0,0.0,0.0,0.0,0.0,0.0,0.0,0.0,0.0,0.0,0.0,0.0,0.0,0.0,0.0,0.0,0.0,0.0,0.0,0.0,0.0,0.0,0.0,0.0,0.0,0.0,0.0,0.0,0.0,0.0,0.0,0.0,0.0,0.0,0.0,0.0,0.0,0.0,0.0,0.0,0.0,0.0,0.0,0.0,0.0,0.0,0.0,0.0,0.0,0.0,0.0,0.0,0.0,0.0,0.0,0.0,0.0,0.0,0.0,0.0,0.0,0.0,0.0,0.0,0.0,0.0,0.0,0.0,0.0,0.0,0.0,0.0,0.0,0.0,0.0,0.0,0.0,0.0,0.0,0.0,0.0,0.0,0.0,0.0,0.0,0.0,0.0,0.0,0.0,0.0,0.0,0.0,0.0,0.0,0.0,0.0,0.0,0.0,0.0,0.0,0.0,0.0,0.0,0.0,0.0,0.0,0.0,0.0,0.0,0.0,0.0,0.0,0.0,0.0,0.0,0.0,0.0,0.0,0.0,0.0,0.0,0.0,0.0,0.0,0.0,0.0,0.0,0.0,0.0,0.0,0.0,0.0,0.0,0.0,0.0,0.0,0.0,0.0,0.0,0.0,0.0,0.0,0.0,0.0,0.0,0.0,0.0,0.0,0.0,0.0,0.0,0.0,0.0,0.0,0.0,0.0,0.0,0.0,0.0,0.0,0.0,0.0,0.0,0.0,0.0,0.0,0.0,0.0,0.0,0.0,0.0,0.0,0.0,0.0,0.0,0.0,0.0,0.0,0.0,0.0,0.0,0.0,0.0,0.0,0.0,0.0,0.0,0.0,0.0,0.0,0.0,0.0,0.0,0.0,0.0,0.0,0.0,0.0,0.0,0.0,0.0,0.0,0.0,0.0,0.0,0.0,0.0,0.0,0.0,0.0,0.0,0.0,0.0,0.0,0.0,0.0,0.0,0.0,0.0,0.0,0.0,0.0,0.0,0.0,0.0,0.0,0.0,0.0,0.0,0.0,0.0,0.0,0.0,0.0,0.0,0.0,0.0,0.0,0.0,0.0,0.0,0.0,0.0,0.0,0.0,0.0,0.0,0.0,0.0,0.0,0.0,0.0,0.0,0.0,0.0,0.0,0.0,0.0,0.0,0.0,0.0,0.0,0.0,0.0,0.0,-3.2108,0.0,0.0,0.0,0.0,0.0,0.0,0.0,0.0,0.0,0.0,0.0,0.0,0.0,0.0,0.0,0.0,0.0,0.0,0.0,0.0,0.0,0.0,0.0,0.0,0.0,0.0,0.0,0.0,0.0,0.0,0.0,0.0,0.0,0.0,0.0,0.0,0.0,0.0,0.0,0.0,0.0,0.0,0.0,0.0,0.0,0.0,0.0,0.0,0.0,0.0,0.0,0.0,0.0,0.0,0.0,0.0,0.0,0.0,0.0,0.0,0.0,0.0,0.0,0.0,0.0,0.0,0.0,0.0,0.0,0.0,0.0,0.0,0.0,0.0,0.0,0.0,0.0,0.0,0.0,0.0,0.0,0.0,0.0,0.0,0.0,0.0,0.0,0.0,0.0,0.0,0.0,0.0,0.0,0.0,0.0,0.0,0.0,0.0,0.0,0.0,0.0,0.0,0.0,0.0,0.0,0.0,0.0,0.0,0.0,0.0,-3.3366,-3.377,-3.3005,-3.2391,-3.1925,0.0,0.0,0.0,0.0,0.0,0.0,0.0,0.0,0.0,0.0,0.0,0.0,0.0,0.0,0.0,0.0,0.0,0.0,0.0,0.0,0.0,0.0,0.0,0.0,0.0,0.0,0.0,0.0,0.0,0.0,0.0,0.0,0.0,0.0,0.0,0.0,0.0,0.0,0.0,0.0,0.0,0.0,0.0,0.0,0.0,0.0,0.0,0.0,0.0,0.0,0.0,0.0,0.0,0.0,0.0,0.0,0.0,0.0,0.0,0.0,0.0,0.0,0.0,0.0,0.0,0.0,0.0,0.0,0.0,0.0,0.0,0.0,0.0,0.0,0.0,0.0,0.0,0.0,0.0,0.0,0.0,0.0,0.0,0.0,0.0,0.0,0.0,0.0,0.0,0.0,0.0,0.0,0.0,0.0,0.0,0.0,0.0,0.0,0.0,0.0,0.0,0.0,0.0,0.0,0.0,0.0,0.0,0.0,0.0,0.0,0.0,0.0,-3.3497,-3.2859,-3.1997,0.0,0.0,0.0,0.0,0.0,0.0,0.0,0.0,0.0,0.0,0.0,0.0,0.0,0.0,0.0,0.0,0.0,0.0,0.0,0.0,0.0,0.0,0.0,0.0,0.0,0.0,0.0,0.0,0.0,0.0,0.0,0.0,0.0,0.0,0.0,0.0,0.0,0.0,0.0,0.0,0.0,0.0,0.0,0.0,0.0,0.0,0.0,0.0,0.0,0.0,0.0,0.0,0.0,0.0,0.0,0.0,0.0,0.0,0.0,0.0,0.0,0.0,0.0,0.0,0.0,0.0,0.0,0.0,0.0,0.0,0.0,0.0,0.0,0.0,0.0,0.0,0.0,0.0,0.0,0.0,0.0,0.0,0.0,0.0,0.0,0.0,0.0,0.0,0.0,0.0,0.0,0.0,0.0,0.0,0.0,0.0,0.0,0.0,0.0,0.0,0.0,0.0,0.0,0.0,0.0,0.0,0.0,0.0,0.0,0.0,-3.3376,-3.423,-3.4883,0.0,-3.2654,0.0,0.0,0.0,0.0,0.0,0.0,0.0,0.0,0.0,0.0,0.0,0.0,0.0,0.0,0.0,0.0,0.0,0.0,0.0,0.0,0.0,0.0,0.0,0.0,0.0,0.0,0.0,0.0,0.0,0.0,0.0,0.0,0.0,0.0,0.0,0.0,0.0,0.0,0.0,0.0,0.0,0.0,0.0,0.0,0.0,0.0,0.0,0.0,0.0,0.0,0.0,0.0,0.0,0.0,0.0,0.0,0.0,0.0,0.0,0.0,0.0,0.0,0.0,0.0,0.0,0.0,0.0,0.0,0.0,0.0,0.0,0.0,0.0,0.0,0.0,0.0,0.0,0.0,0.0,0.0,0.0,0.0,0.0,0.0,0.0,0.0,0.0,0.0,0.0,0.0,0.0,0.0,0.0,0.0,0.0,0.0,0.0,0.0,0.0,0.0,0.0,0.0,0.0,0.0,0.0,0.0,0.0,0.0,0.0,0.0,0.0,-3.4529,-3.4244,-3.2922,0.0,0.0,0.0,0.0,0.0,0.0,0.0,0.0,0.0,0.0,0.0,0.0,0.0,0.0,0.0,0.0,0.0,0.0,0.0,0.0,0.0,0.0,0.0,0.0,0.0,0.0,0.0,0.0,0.0,0.0,0.0,0.0,0.0,0.0,0.0,0.0,0.0,0.0,0.0,0.0,0.0,0.0,0.0,0.0,0.0,0.0,0.0,0.0,0.0,0.0,0.0,0.0,0.0,0.0,0.0,0.0,0.0,0.0,0.0,0.0,0.0,0.0,0.0,0.0,0.0,0.0,0.0,0.0,0.0,0.0,0.0,0.0,0.0,0.0,0.0,0.0,0.0,0.0,0.0,0.0,0.0,0.0,0.0,0.0,0.0,0.0,0.0,0.0,0.0,0.0,0.0,0.0,0.0,0.0,0.0,0.0,0.0,0.0,0.0,0.0,0.0,0.0,0.0,0.0,0.0,0.0,0.0,0.0,0.0,0.0,-3.2864,0.0,-3.459,-3.3579,-3.1802,-2.9402,0.0,0.0,0.0,0.0,0.0,0.0,0.0,0.0,0.0,0.0,0.0,0.0,0.0,0.0,0.0,0.0,0.0,0.0,0.0,0.0,0.0,0.0,0.0,0.0,0.0,0.0,0.0,0.0,0.0,0.0,0.0,0.0,0.0,0.0,0.0,0.0,0.0,0.0,0.0,0.0,0.0,0.0,0.0,0.0,0.0,0.0,0.0,0.0,0.0,0.0,0.0,0.0,0.0,0.0,0.0,0.0,0.0,0.0,0.0,0.0,0.0,0.0,0.0,0.0,0.0,0.0,0.0,0.0,0.0,0.0,0.0,0.0,0.0,0.0,0.0,0.0,0.0,0.0,0.0,0.0,0.0,0.0,0.0,0.0,0.0,0.0,0.0,0.0,0.0,0.0,0.0,0.0,0.0,0.0,0.0,0.0,0.0,0.0,0.0,0.0,0.0,0.0,0.0,0.0,0.0,0.0,0.0,0.0,0.0,-3.2906,-3.3289,-3.4619,-3.3337,-3.1837,0.0,0.0,0.0,0.0,0.0,0.0,0.0,0.0,0.0,0.0,0.0,0.0,0.0,0.0,0.0,0.0,0.0,0.0,0.0,0.0,0.0,0.0,0.0,0.0,0.0,0.0,0.0,0.0,0.0,0.0,0.0,0.0,0.0,0.0,0.0,0.0,0.0,0.0,0.0,0.0,0.0,0.0,0.0,0.0,0.0,0.0,0.0,0.0,0.0,0.0,0.0,0.0,0.0,0.0,0.0,0.0,0.0,0.0,0.0,0.0,0.0,0.0,0.0,0.0,0.0,0.0,0.0,0.0,0.0,0.0,0.0,0.0,0.0,0.0,0.0,0.0,0.0,0.0,0.0,0.0,0.0,0.0,0.0,0.0,0.0,0.0,0.0,0.0,0.0,0.0,0.0,0.0,0.0,0.0,0.0,0.0,0.0,0.0,0.0,0.0,0.0,0.0,0.0,0.0,0.0,0.0,0.0,0.0,0.0,-3.1061,-3.2187,-3.3409,-3.4582,-3.2687,-3.09,0.0,0.0,0.0,0.0,0.0,0.0,0.0,0.0,0.0,0.0,0.0,0.0,0.0,0.0,0.0,0.0,0.0,0.0,0.0,0.0,0.0,0.0,0.0,0.0,0.0,0.0,0.0,0.0,0.0,0.0,0.0,0.0,0.0,0.0,0.0,0.0,0.0,0.0,0.0,0.0,0.0,0.0,0.0,0.0,0.0,0.0,0.0,0.0,0.0,0.0,0.0,0.0,0.0,0.0,0.0,0.0,0.0,0.0,0.0,0.0,0.0,0.0,0.0,0.0,0.0,0.0,0.0,0.0,0.0,0.0,0.0,0.0,0.0,0.0,0.0,0.0,0.0,0.0,0.0,0.0,0.0,0.0,0.0,0.0,0.0,0.0,0.0,0.0,0.0,0.0,0.0,0.0,0.0,0.0,0.0,0.0,0.0,0.0,0.0,0.0,0.0,0.0,0.0,0.0,0.0,0.0,0.0,0.0,0.0,-3.0356,0.0,-3.3291,0.0,-3.1798,-2.9924,0.0,0.0,0.0,0.0,0.0,0.0,0.0,0.0,0.0,0.0,0.0,0.0,0.0,0.0,0.0,0.0,0.0,0.0,0.0,0.0,0.0,0.0,0.0,0.0,0.0,0.0,0.0,0.0,0.0,0.0,0.0,0.0,0.0,0.0,0.0,0.0,0.0,0.0,0.0,0.0,0.0,0.0,0.0,0.0,0.0,0.0,0.0,0.0,0.0,0.0,0.0,0.0,0.0,0.0,0.0,0.0,0.0,0.0,0.0,0.0,0.0,0.0,0.0,0.0,0.0,0.0,0.0,0.0,0.0,0.0,0.0,0.0,0.0,0.0,0.0,0.0,0.0,0.0,0.0,0.0,0.0,0.0,0.0,0.0,0.0,0.0,0.0,0.0,0.0,0.0,0.0,0.0,0.0,0.0,0.0,0.0,0.0,0.0,0.0,0.0,0.0,0.0,0.0,0.0,0.0,0.0,0.0,0.0,-2.9475,-3.1565,-3.3015,-3.2956,-3.1171,-3.0799,-2.9008,0.0,0.0,0.0,0.0,0.0,0.0,0.0,0.0,0.0,0.0,0.0,0.0,0.0,0.0,0.0,0.0,0.0,0.0,0.0,0.0,0.0,0.0,0.0,0.0,0.0,0.0,0.0,0.0,0.0,0.0,0.0,0.0,0.0,0.0,0.0,0.0,0.0,0.0,0.0,0.0,0.0,0.0,0.0,0.0,0.0,0.0,0.0,0.0,0.0,0.0,0.0,0.0,0.0,0.0,0.0,0.0,0.0,0.0,0.0,0.0,0.0,0.0,0.0,0.0,0.0,0.0,0.0,0.0,0.0,0.0,0.0,0.0,0.0,0.0,0.0,0.0,0.0,0.0,0.0,0.0,0.0,0.0,0.0,0.0,0.0,0.0,0.0,0.0,0.0,0.0,0.0,0.0,0.0,0.0,0.0,0.0,0.0,0.0,0.0,0.0,0.0,0.0,0.0,0.0,0.0,0.0,0.0,0.0,0.0,-3.0403,-3.2218,-3.3379,-3.3703,-3.091,-2.9271,0.0,0.0,0.0,0.0,0.0,0.0,0.0,0.0,0.0,0.0,0.0,0.0,0.0,0.0,0.0,0.0,0.0,0.0,0.0,0.0,0.0,0.0,0.0,0.0,0.0,0.0,0.0,0.0,0.0,0.0,0.0,0.0,0.0,0.0,0.0,0.0,0.0,0.0,0.0,0.0,0.0,0.0,0.0,0.0,0.0,0.0,0.0,0.0,0.0,0.0,0.0,0.0,0.0,0.0,0.0,0.0,0.0,0.0,0.0,0.0,0.0,0.0,0.0,0.0,0.0,0.0,0.0,0.0,0.0,0.0,0.0,0.0,0.0,0.0,0.0,0.0,0.0,0.0,0.0,0.0,0.0,0.0,0.0,0.0,0.0,0.0,0.0,0.0,0.0,0.0,0.0,0.0,0.0,0.0,0.0,0.0,0.0,0.0,0.0,0.0,0.0,0.0,0.0,0.0,0.0,0.0,0.0,0.0,0.0,-3.138,-3.3288,-3.4424,-3.4642,-3.1775,-3.0067,-2.9709,0.0,0.0,0.0,0.0,0.0,0.0,0.0,0.0,0.0,0.0,0.0,0.0,0.0,0.0,0.0,0.0,0.0,0.0,0.0,0.0,0.0,0.0,0.0,0.0,0.0,0.0,0.0,0.0,0.0,0.0,0.0,0.0,0.0,0.0,0.0,0.0,0.0,0.0,0.0,0.0,0.0,0.0,0.0,0.0,0.0,0.0,0.0,0.0,0.0,0.0,0.0,0.0,0.0,0.0,0.0,0.0,0.0,0.0,0.0,0.0,0.0,0.0,0.0,0.0,0.0,0.0,0.0,0.0,0.0,0.0,0.0,0.0,0.0,0.0,0.0,0.0,0.0,0.0,0.0,0.0,0.0,0.0,0.0,0.0,0.0,0.0,0.0,0.0,0.0,0.0,0.0,0.0,0.0,0.0,0.0,0.0,0.0,0.0,0.0,0.0,0.0,0.0,0.0,0.0,0.0,0.0,0.0,0.0,-3.4037,-3.5893,-3.5996,-3.4225,-3.3157,-3.1293,0.0,0.0,0.0,0.0,0.0,0.0,0.0,0.0,0.0,0.0,0.0,0.0,0.0,0.0,0.0,0.0,0.0,0.0,0.0,0.0,0.0,0.0,0.0,0.0,0.0,0.0,0.0,0.0,0.0,0.0,0.0,0.0,0.0,0.0,0.0,0.0,0.0,0.0,0.0,0.0,0.0,0.0,0.0,0.0,0.0,0.0,0.0,0.0,0.0,0.0,0.0,0.0,0.0,0.0,0.0,0.0,0.0,0.0,0.0,0.0,0.0,0.0,0.0,0.0,0.0,0.0,0.0,0.0,0.0,0.0,0.0,0.0,0.0,0.0,0.0,0.0,0.0,0.0,0.0,0.0,0.0,0.0,0.0,0.0,0.0,0.0,0.0,0.0,0.0,0.0,0.0,0.0,0.0,0.0,0.0,0.0,0.0,0.0,0.0,0.0,0.0,0.0,0.0,0.0,0.0,0.0,0.0,0.0,0.0,-3.5904,-3.7746,-3.8125,-3.6906,-3.426,-3.2405,0.0,0.0,0.0,0.0,0.0,0.0,0.0,0.0,0.0,0.0,0.0,0.0,0.0,0.0,0.0,0.0,0.0,0.0,0.0,0.0,0.0,0.0,0.0,0.0,0.0,0.0,0.0,0.0,0.0,0.0,0.0,0.0,0.0,0.0,0.0,0.0,0.0,0.0,0.0,0.0,0.0,0.0,0.0,0.0,0.0,0.0,0.0,0.0,0.0,0.0,0.0,0.0,0.0,0.0,0.0,0.0,0.0,0.0,0.0,0.0,0.0,0.0,0.0,0.0,0.0,0.0,0.0,0.0,0.0,0.0,0.0,0.0,0.0,0.0,0.0,0.0,0.0,0.0,0.0,0.0,0.0,0.0,0.0,0.0,0.0,0.0,0.0,0.0,0.0,0.0,0.0,0.0,0.0,0.0,0.0,0.0,0.0,0.0,0.0,0.0,0.0,0.0,0.0,0.0,0.0,0.0,0.0,0.0,-3.4605,-3.7192,-3.9,-3.9509,-3.8553,-3.6344,-3.4488,0.0,0.0,0.0,0.0,0.0,0.0,0.0,0.0,0.0,0.0,0.0,0.0,0.0,0.0,0.0,0.0,0.0,0.0,0.0,0.0,0.0,0.0,0.0,0.0,0.0,0.0,0.0,0.0,0.0,0.0,0.0,0.0,0.0,0.0,0.0,0.0,0.0,0.0,0.0,0.0,0.0,0.0,0.0,0.0,0.0,0.0,0.0,0.0,0.0,0.0,0.0,0.0,0.0,0.0,0.0,0.0,0.0,0.0,0.0,0.0,0.0,0.0,0.0,0.0,0.0,0.0,0.0,0.0,0.0,0.0,0.0,0.0,0.0,0.0,0.0,0.0,0.0,0.0,0.0,0.0,0.0,0.0,0.0,0.0,0.0,0.0,0.0,0.0,0.0,0.0,0.0,0.0,0.0,0.0,0.0,0.0,0.0,0.0,0.0,0.0,0.0,0.0,0.0,0.0,0.0,0.0,0.0,0.0,-3.5994,-3.8096,-3.9805,-4.0295,-3.9434,-3.8542,-3.6748,0.0,0.0,0.0,0.0,0.0,0.0,0.0,0.0,0.0,0.0,0.0,0.0,0.0,0.0,0.0,0.0,0.0,0.0,0.0,0.0,0.0,0.0,0.0,0.0,0.0,0.0,0.0,0.0,0.0,0.0,0.0,0.0,0.0,0.0,0.0,0.0,0.0,0.0,0.0,0.0,0.0,0.0,0.0,0.0,0.0,0.0,0.0,0.0,0.0,0.0,0.0,0.0,0.0,0.0,0.0,0.0,0.0,0.0,0.0,0.0,0.0,0.0,0.0,0.0,0.0,0.0,0.0,0.0,0.0,0.0,0.0,0.0,0.0,0.0,0.0,0.0,0.0,0.0,0.0,0.0,0.0,0.0,0.0,0.0,0.0,0.0,0.0,0.0,0.0,0.0,0.0,0.0,0.0,0.0,0.0,0.0,0.0,0.0,0.0,0.0,0.0,0.0,0.0,0.0,0.0,0.0,0.0,0.0,-3.7028,-3.8969,-4.0114,-4.0546,-4.0254,-3.8252,-3.6203,0.0,0.0,0.0,0.0,0.0,0.0,0.0,0.0,0.0,0.0,0.0,0.0,0.0,0.0,0.0,0.0,0.0,0.0,0.0,0.0,0.0,0.0,0.0,0.0,0.0,0.0,0.0,0.0,0.0,0.0,0.0,0.0,0.0,0.0,0.0,0.0,0.0,0.0,0.0,0.0,0.0,0.0,0.0,0.0,0.0,0.0,0.0,0.0,-3.1685,0.0,0.0,0.0,0.0,0.0,0.0,0.0,0.0,0.0,0.0,0.0,0.0,0.0,0.0,0.0,0.0,0.0,0.0,0.0,0.0,0.0,0.0,0.0,0.0,0.0,0.0,0.0,0.0,0.0,0.0,0.0,0.0,0.0,0.0,0.0,0.0,0.0,0.0,0.0,0.0,0.0,0.0,0.0,0.0,0.0,0.0,0.0,0.0,0.0,0.0,0.0,0.0,0.0,0.0,0.0,0.0,0.0,0.0,0.0,-3.7357,-3.9238,-4.0211,-4.0643,-4.0435,-3.8929,-3.7046,0.0,0.0,0.0,0.0,0.0,0.0,0.0,0.0,0.0,0.0,0.0,0.0,0.0,0.0,0.0,0.0,0.0,0.0,0.0,0.0,0.0,0.0,0.0,0.0,0.0,0.0,0.0,0.0,0.0,0.0,0.0,0.0,0.0,0.0,0.0,0.0,0.0,0.0,0.0,0.0,0.0,0.0,0.0,0.0,0.0,0.0,0.0,0.0,0.0,0.0,0.0,0.0,0.0,0.0,0.0,0.0,0.0,0.0,0.0,0.0,0.0,0.0,0.0,0.0,0.0,0.0,0.0,0.0,0.0,0.0,0.0,0.0,0.0,0.0,0.0,0.0,0.0,0.0,0.0,0.0,0.0,0.0,0.0,0.0,0.0,0.0,0.0,0.0,0.0,0.0,0.0,0.0,0.0,0.0,0.0,0.0,0.0,0.0,0.0,0.0,0.0,0.0,0.0,0.0,0.0,0.0,0.0,-3.478,-3.7313,-3.94,-4.0262,-4.0616,-4.0504,-3.9767,-3.8176,-3.5603,0.0,0.0,0.0,0.0,0.0,0.0,0.0,0.0,0.0,0.0,0.0,0.0,0.0,0.0,0.0,0.0,0.0,0.0,0.0,0.0,0.0,0.0,0.0,0.0,0.0,0.0,0.0,0.0,0.0,0.0,0.0,0.0,0.0,0.0,0.0,0.0,0.0,0.0,-2.8796,-3.1693,0.0,0.0,0.0,0.0,0.0,0.0,0.0,0.0,-3.2226,0.0,0.0,0.0,0.0,0.0,0.0,0.0,0.0,0.0,0.0,0.0,0.0,0.0,0.0,0.0,0.0,0.0,0.0,0.0,0.0,0.0,0.0,0.0,0.0,0.0,0.0,0.0,0.0,0.0,0.0,0.0,0.0,0.0,0.0,0.0,0.0,0.0,0.0,0.0,0.0,0.0,0.0,0.0,0.0,0.0,0.0,0.0,0.0,0.0,0.0,0.0,0.0,0.0,0.0,0.0,0.0,-3.5134,-3.5509,-3.7151,-4.0208,-4.0469,-4.0527,-4.0477,-3.9718,-3.8101,-3.5603,0.0,0.0,0.0,0.0,0.0,0.0,0.0,0.0,0.0,0.0,0.0,0.0,0.0,0.0,0.0,0.0,0.0,0.0,0.0,0.0,0.0,0.0,0.0,0.0,0.0,0.0,0.0,0.0,0.0,0.0,0.0,0.0,0.0,0.0,0.0,0.0,0.0,0.0,0.0,-3.4565,-3.6105,0.0,0.0,0.0,0.0,0.0,0.0,0.0,0.0,-3.1371,0.0,0.0,0.0,0.0,0.0,0.0,0.0,0.0,0.0,0.0,0.0,0.0,0.0,0.0,0.0,0.0,0.0,0.0,0.0,0.0,0.0,0.0,0.0,0.0,0.0,0.0,0.0,0.0,0.0,0.0,0.0,0.0,0.0,0.0,0.0,0.0,0.0,0.0,0.0,0.0,0.0,0.0,0.0,0.0,0.0,0.0,0.0,0.0,0.0,0.0,0.0,0.0,0.0,0.0,0.0,-3.397,-3.5875,-3.8007,-4.04,-4.0574,-4.0574,-4.0466,-3.9339,-3.7726,0.0,0.0,0.0,0.0,0.0,0.0,0.0,0.0,0.0,0.0,0.0,0.0,0.0,0.0,0.0,0.0,0.0,0.0,0.0,0.0,0.0,0.0,0.0,0.0,0.0,0.0,0.0,0.0,0.0,0.0,0.0,0.0,0.0,0.0,0.0,0.0,0.0,0.0,0.0,0.0,-3.5476,-3.6424,-3.6886,0.0,0.0,0.0,0.0,0.0,0.0,-3.2725,-3.1731,0.0,0.0,0.0,0.0,0.0,0.0,0.0,0.0,0.0,0.0,0.0,0.0,0.0,0.0,0.0,0.0,0.0,0.0,0.0,0.0,0.0,0.0,0.0,0.0,0.0,0.0,0.0,0.0,0.0,0.0,0.0,0.0,0.0,0.0,0.0,0.0,0.0,0.0,0.0,0.0,0.0,0.0,0.0,0.0,0.0,0.0,0.0,0.0,0.0,0.0,0.0,0.0,0.0,0.0,0.0,-3.2338,-3.5726,-3.8469,-4.0389,-4.0636,-4.0643,-4.0485,-3.9161,-3.7452,0.0,0.0,0.0,0.0,0.0,0.0,0.0,0.0,0.0,0.0,0.0,0.0,0.0,0.0,0.0,0.0,0.0,0.0,0.0,0.0,0.0,0.0,0.0,0.0,0.0,0.0,0.0,0.0,0.0,0.0,0.0,0.0,0.0,0.0,0.0,0.0,0.0,0.0,0.0,0.0,0.0,-3.7171,-3.7757,-3.6159,0.0,0.0,0.0,0.0,-3.4989,-3.421,0.0,0.0,0.0,0.0,0.0,0.0,0.0,0.0,0.0,0.0,0.0,0.0,0.0,0.0,0.0,0.0,0.0,0.0,0.0,0.0,0.0,0.0,0.0,0.0,0.0,0.0,0.0,0.0,0.0,0.0,0.0,0.0,0.0,0.0,0.0,0.0,0.0,0.0,0.0,0.0,0.0,0.0,0.0,0.0,0.0,0.0,0.0,0.0,0.0,0.0,0.0,0.0,0.0,0.0,0.0,0.0,-3.2262,-3.4607,-3.7334,-4.0312,-4.0617,-4.0643,-4.0485,-3.9696,-3.7704,0.0,0.0,0.0,0.0,0.0,0.0,0.0,0.0,0.0,0.0,0.0,0.0,0.0,0.0,0.0,0.0,0.0,0.0,0.0,0.0,0.0,0.0,0.0,0.0,0.0,0.0,0.0,0.0,0.0,0.0,0.0,0.0,0.0,0.0,0.0,0.0,0.0,0.0,0.0,0.0,0.0,-4.0244,-3.7445,-3.6759,-3.6559,0.0,0.0,-3.5786,-3.7591,-3.8183,0.0,0.0,0.0,0.0,0.0,0.0,0.0,0.0,0.0,0.0,0.0,0.0,0.0,0.0,0.0,0.0,0.0,0.0,0.0,0.0,0.0,0.0,0.0,0.0,0.0,0.0,0.0,0.0,0.0,0.0,0.0,0.0,0.0,0.0,0.0,0.0,0.0,0.0,0.0,0.0,0.0,0.0,0.0,0.0,0.0,0.0,0.0,0.0,0.0,0.0,0.0,0.0,0.0,0.0,0.0,-2.9899,-3.2319,-3.5343,-3.8115,-4.05,-4.071,-4.05,-3.999,-3.8789,-3.6721,0.0,0.0,0.0,0.0,0.0,0.0,0.0,0.0,0.0,0.0,0.0,0.0,0.0,0.0,0.0,0.0,0.0,0.0,0.0,0.0,0.0,0.0,0.0,0.0,0.0,0.0,0.0,0.0,0.0,0.0,0.0,0.0,0.0,0.0,0.0,0.0,0.0,0.0,0.0,0.0,0.0,0.0,-3.9013,-3.8934,0.0,0.0,0.0,-3.8144,-3.936,0.0,0.0,0.0,0.0,0.0,0.0,0.0,0.0,0.0,0.0,0.0,0.0,0.0,0.0,0.0,0.0,0.0,0.0,0.0,0.0,0.0,0.0,0.0,0.0,0.0,0.0,0.0,0.0,0.0,0.0,0.0,0.0,0.0,0.0,0.0,0.0,0.0,0.0,0.0,0.0,0.0,0.0,0.0,0.0,0.0,0.0,0.0,0.0,0.0,0.0,0.0,0.0,0.0,0.0,0.0,0.0,0.0,-3.2329,-3.6059,-3.8889,-4.062,-4.0582,-4.021,-3.9583,-3.783,0.0,0.0,0.0,0.0,0.0,0.0,0.0,0.0,0.0,0.0,0.0,0.0,0.0,0.0,0.0,0.0,0.0,0.0,0.0,0.0,0.0,0.0,0.0,0.0,0.0,0.0,0.0,-2.4697,0.0,0.0,0.0,0.0,0.0,0.0,0.0,0.0,0.0,0.0,0.0,0.0,0.0,0.0,-3.9169,-4.008,-4.0746,-4.1131,0.0,0.0,-4.0458,-4.1054,-4.0997,-3.9727,0.0,0.0,0.0,0.0,0.0,0.0,0.0,0.0,0.0,0.0,0.0,0.0,0.0,0.0,0.0,0.0,0.0,0.0,0.0,0.0,0.0,0.0,0.0,0.0,0.0,0.0,0.0,0.0,0.0,0.0,0.0,0.0,0.0,0.0,0.0,0.0,0.0,0.0,0.0,0.0,0.0,0.0,0.0,0.0,0.0,0.0,0.0,0.0,0.0,0.0,0.0,0.0,0.0,0.0,0.0,-3.246,-3.6098,-3.887,-4.0601,-4.0033,-3.9661,-3.9564,-3.7255,-3.4708,0.0,0.0,0.0,0.0,0.0,0.0,0.0,0.0,0.0,0.0,0.0,0.0,0.0,0.0,0.0,0.0,0.0,0.0,0.0,0.0,0.0,0.0,0.0,0.0,0.0,0.0,0.0,0.0,0.0,0.0,0.0,0.0,0.0,0.0,0.0,0.0,0.0,0.0,0.0,0.0,0.0,-4.031,-3.9502,-4.1412,-4.2931,0.0,0.0,-4.2854,-4.2912,-4.4182,-4.3239,-3.7546,0.0,0.0,0.0,0.0,0.0,0.0,0.0,0.0,0.0,0.0,0.0,0.0,0.0,0.0,0.0,0.0,0.0,0.0,0.0,0.0,0.0,0.0,0.0,0.0,0.0,0.0,0.0,0.0,0.0,0.0,0.0,0.0,0.0,0.0,0.0,0.0,0.0,0.0,0.0,0.0,0.0,0.0,0.0,0.0,0.0,0.0,0.0,0.0,0.0,0.0,0.0,0.0,0.0,-3.0635,-3.2348,-3.6078,-3.8653,-3.9937,-3.9738,-3.9153,-3.8196,-3.6747,-3.4428,0.0,0.0,0.0,0.0,0.0,0.0,0.0,0.0,0.0,0.0,0.0,0.0,0.0,0.0,0.0,0.0,0.0,0.0,0.0,0.0,0.0,0.0,0.0,0.0,0.0,0.0,0.0,0.0,-2.5476,-2.5121,-2.5432,0.0,0.0,0.0,0.0,0.0,0.0,0.0,0.0,0.0,0.0,-4.0151,-4.077,-4.2547,0.0,0.0,-4.3835,-4.4028,-4.4566,-4.3855,-4.197,-3.8123,-3.618,0.0,0.0,0.0,0.0,0.0,0.0,0.0,0.0,0.0,0.0,0.0,0.0,0.0,0.0,0.0,0.0,0.0,0.0,0.0,0.0,0.0,0.0,0.0,0.0,0.0,0.0,0.0,0.0,0.0,0.0,0.0,0.0,0.0,0.0,0.0,0.0,0.0,0.0,0.0,0.0,0.0,0.0,0.0,0.0,0.0,0.0,0.0,0.0,0.0,0.0,0.0,0.0,-3.0503,-3.1931,-3.5676,-3.8119,-3.9168,-3.8945,-3.8302,-3.7232,-3.6147,-3.4159,0.0,0.0,0.0,0.0,0.0,0.0,0.0,0.0,0.0,0.0,0.0,0.0,0.0,0.0,0.0,0.0,0.0,0.0,0.0,0.0,0.0,0.0,0.0,0.0,0.0,0.0,0.0,0.0,-2.5812,-2.5517,-2.5516,0.0,0.0,0.0,0.0,0.0,0.0,0.0,0.0,0.0,0.0,-4.0475,-4.229,-4.3778,-4.4682,-4.4682,-4.4451,-4.4395,-4.4688,-4.3432,-4.1344,-3.8238,0.0,0.0,0.0,0.0,0.0,0.0,0.0,0.0,0.0,0.0,0.0,0.0,0.0,0.0,0.0,0.0,0.0,0.0,0.0,0.0,0.0,0.0,0.0,0.0,0.0,0.0,0.0,0.0,0.0,0.0,-2.3811,0.0,0.0,0.0,0.0,0.0,0.0,0.0,0.0,0.0,0.0,0.0,0.0,0.0,0.0,0.0,0.0,0.0,0.0,0.0,0.0,0.0,0.0,-3.0238,-3.1153,-3.4864,-3.7218,-3.8169,-3.7469,-3.7062,-3.695,-3.5466,-3.3729,-3.1777,0.0,0.0,0.0,0.0,0.0,0.0,0.0,0.0,0.0,0.0,0.0,0.0,0.0,0.0,0.0,0.0,0.0,0.0,0.0,0.0,0.0,0.0,0.0,0.0,0.0,0.0,-2.5553,-2.5485,-2.5554,0.0,0.0,0.0,0.0,0.0,0.0,0.0,0.0,0.0,0.0,-3.9138,-4.1618,-4.3855,-4.497,-4.5498,-4.5556,-4.4863,-4.3967,-4.3005,-4.3307,-4.2248,0.0,0.0,0.0,0.0,0.0,0.0,0.0,0.0,0.0,0.0,0.0,0.0,0.0,0.0,0.0,0.0,0.0,0.0,0.0,0.0,0.0,0.0,0.0,0.0,0.0,0.0,0.0,-2.8484,-2.7024,0.0,0.0,0.0,0.0,0.0,0.0,0.0,0.0,0.0,0.0,0.0,-3.0736,-3.0913,0.0,0.0,0.0,0.0,0.0,0.0,0.0,0.0,0.0,0.0,0.0,0.0,-3.0238,-3.1219,-3.4787,-3.6903,-3.7309,-3.7065,-3.668,-3.6135,-3.5087,-3.3147,-3.0208,0.0,0.0,0.0,0.0,0.0,0.0,0.0,0.0,0.0,0.0,0.0,0.0,0.0,0.0,0.0,0.0,0.0,0.0,0.0,0.0,0.0,0.0,0.0,0.0,0.0,-2.6595,0.0,0.0,0.0,0.0,0.0,0.0,0.0,0.0,0.0,0.0,0.0,-3.4471,-3.6776,-3.9112,-4.1299,-4.3296,-4.4253,-4.494,0.0,0.0,0.0,0.0,0.0,0.0,0.0,0.0,0.0,0.0,0.0,0.0,0.0,0.0,-4.0758,-3.4872,-3.3083,-3.2756,-3.359,0.0,0.0,0.0,0.0,0.0,0.0,0.0,0.0,0.0,0.0,0.0,0.0,0.0,0.0,-3.0026,0.0,-2.8354,0.0,0.0,0.0,0.0,0.0,0.0,0.0,0.0,-3.221,-3.3156,-3.3253,-3.3364,-3.2794,0.0,-3.0435,-2.8795,0.0,0.0,0.0,0.0,0.0,0.0,0.0,0.0,-3.027,-3.1301,-3.4541,-3.6331,-3.6418,-3.643,-3.6188,-3.563,-3.4525,-3.2732,-3.0222,-2.7865,-2.6367,0.0,0.0,0.0,0.0,0.0,0.0,0.0,0.0,0.0,0.0,0.0,0.0,0.0,0.0,0.0,0.0,0.0,0.0,0.0,0.0,0.0,0.0,0.0,-2.6904,0.0,0.0,0.0,0.0,0.0,0.0,0.0,0.0,0.0,-3.097,-3.3722,-3.6556,-3.8567,-4.0347,-4.2061,-4.3784,0.0,0.0,0.0,0.0,0.0,0.0,0.0,-4.0855,-3.9801,-3.8864,-3.8211,-3.8082,-4.0193,-4.1895,-4.1822,0.0,0.0,-3.8257,-3.6584,-3.6276,-3.7123,-3.7817,-3.8358,-3.8646,-3.9881,-4.0796,0.0,0.0,0.0,0.0,0.0,0.0,0.0,0.0,-3.1759,-3.1579,0.0,-3.0143,0.0,0.0,0.0,0.0,0.0,-3.0137,0.0,0.0,-3.511,-3.645,-3.6588,-3.556,-3.4776,-3.4264,-3.3873,-3.2504,-3.0143,-2.7119,0.0,0.0,0.0,0.0,0.0,0.0,-3.0356,-3.1496,-3.4143,-3.5519,-3.5507,-3.5587,-3.5574,-3.5456,-3.3859,-3.257,-3.1691,-2.9992,-2.8357,-2.6727,-2.5793,0.0,0.0,0.0,0.0,0.0,0.0,0.0,0.0,0.0,0.0,0.0,0.0,0.0,0.0,0.0,0.0,0.0,0.0,0.0,0.0,-2.6765,0.0,0.0,0.0,0.0,0.0,0.0,0.0,0.0,0.0,0.0,-3.375,-3.6428,-3.9382,-4.1789,0.0,0.0,0.0,0.0,-4.5556,-4.5594,-4.4902,-4.3857,-4.2427,-4.2787,-4.2506,-4.0394,0.0,0.0,-4.061,-4.1931,-4.3011,-4.2192,-4.3528,-4.4682,-4.5402,-4.3316,-4.2077,-4.2829,-4.2106,-4.1698,-4.2504,-4.3702,-4.4847,-3.7525,0.0,0.0,0.0,0.0,-3.4813,-3.564,-3.6912,-3.57,-3.4582,-3.3444,-3.1893,0.0,0.0,0.0,0.0,0.0,0.0,-3.3018,-3.4362,-3.5679,-3.6636,-3.7251,-3.6948,-3.6415,-3.5653,-3.4412,-3.3146,-3.1861,-2.9843,-2.797,-2.6264,0.0,0.0,0.0,0.0,-3.1176,-3.2306,-3.4412,-3.55,-3.55,-3.5534,-3.5515,-3.5481,-3.441,-3.3185,-3.1818,-3.0648,-2.9256,-2.7666,-2.6723,0.0,0.0,0.0,0.0,0.0,0.0,0.0,0.0,0.0,0.0,0.0,0.0,0.0,0.0,0.0,0.0,0.0,0.0,0.0,-2.5888,-2.6493,-2.7237,0.0,0.0,0.0,0.0,0.0,0.0,0.0,0.0,0.0,-3.7832,-3.9232,-4.086,0.0,0.0,-4.3532,-4.4667,-4.4742,-4.4902,-4.5498,0.0,0.0,0.0,-4.3096,-4.2754,-4.2388,-4.3321,-4.4177,-4.447,-4.5,-4.559,-4.6127,-4.6682,-4.7105,-4.7201,-4.5836,-4.4812,-4.5206,-4.508,-4.5011,-4.5609,-4.6138,-4.6506,-4.0931,-3.8031,-3.7345,-3.7336,-3.7766,-3.7638,-3.8421,-3.9661,-3.8232,-3.7083,-3.6164,-3.4408,-3.2385,-3.0219,-2.9894,0.0,0.0,0.0,-3.4435,-3.6009,-3.6556,-3.7199,-3.7936,-3.7955,-3.7386,-3.6285,-3.5275,-3.4192,-3.306,-3.1775,-3.0265,-2.8539,0.0,0.0,-2.8604,-3.0506,-3.2055,-3.3236,-3.4735,-3.55,-3.55,-3.55,-3.55,-3.5481,-3.4641,-3.3583,-3.2284,-3.1368,-3.0155,-2.8497,-2.7585,-2.6967,0.0,0.0,0.0,0.0,0.0,0.0,0.0,0.0,0.0,0.0,0.0,-2.4422,-2.2128,0.0,0.0,0.0,-2.5873,-2.7176,-2.761,-2.8462,0.0,0.0,0.0,0.0,0.0,0.0,0.0,-3.5664,-3.7207,-3.8769,-4.0644,-4.1777,-4.2806,-4.3893,-4.3762,-4.3904,-4.4804,0.0,-4.5009,-4.5537,-4.5594,-4.5322,-4.4503,-4.3975,-4.3721,-4.3957,-4.4433,-4.5204,-4.6322,-4.6546,-4.7029,-4.8222,-4.8606,-4.8721,-4.9067,-4.8279,-4.7434,-4.7103,-4.7155,-4.7386,-4.7681,-4.799,-4.8295,-4.397,-4.3162,-4.1574,-4.0808,-4.0674,-4.0892,-4.096,-4.0784,-3.9635,-3.905,-3.8852,-3.7099,-3.5811,-3.4887,-3.4009,0.0,-3.5206,-3.5261,-3.6123,-3.7603,-3.7584,-3.7988,-3.8689,-3.8689,-3.79,-3.6395,-3.6321,-3.5477,-3.3917,-3.3117,-3.2327,-3.158,-3.0147,-3.001,-3.1081,-3.1891,-3.2953,-3.4295,-3.5103,-3.55,-3.55,-3.55,-3.5462,-3.5385,-3.4622,-3.3763,-3.2833,-3.2083,-3.0929,-2.928,-2.8376,-2.7525,-2.6697,0.0,0.0,0.0,0.0,0.0,0.0,0.0,0.0,0.0,0.0,0.0,0.0,0.0,0.0,0.0,-2.7829,0.0,-3.0625,-3.1541,0.0,0.0,0.0,-3.1523,-3.2578,-3.4023,-3.5293,-3.6289,0.0,0.0,-4.25,0.0,-4.4808,-4.4779,-4.4582,-4.4707,-4.5479,-4.5556,-4.5594,-4.5594,-4.5594,-4.5495,-4.5156,-4.5046,-4.5027,-4.5044,-4.515,-4.5599,-4.6741,-4.7071,-4.7707,-4.9274,-4.9527,-4.972,-5.0548,-5.0529,-5.0202,-4.8596,-4.8605,-4.8867,-4.8845,-4.9383,-4.9915,-4.519,-4.4979,-4.4556,-4.3462,-4.2077,-4.2517,-4.2314,-4.1585,-4.0687,-3.9421,-3.7892,-3.6831,-3.6023,-3.5449,-3.5798,-3.6305,-3.696,-3.7551,-3.8046,-3.8414,-3.8414,-3.8524,-3.8707,-3.8707,-3.8175,-3.7235,-3.6578,-3.5752,-3.4724,-3.4123,-3.3623,-3.3241,-3.331,-3.286,-3.1986,-3.2704,-3.38,-3.5192,-3.5385,-3.55,-3.55,-3.55,-3.5173,-3.4526,-3.4302,-3.3494,-3.2045,-3.1814,-3.1198,-3.0115,-2.8679,-2.7818,-2.7582,-2.5048,0.0,0.0,0.0,0.0,0.0,0.0,0.0,0.0,0.0,-2.4993,-2.1398,0.0,-2.6365,0.0,-2.8796,-3.0313,-2.992,-3.0683,0.0,0.0,-3.332,-3.3926,-3.6738,-3.6836,-3.7519,-3.9726,-4.0684,-4.2012,-4.4101,-4.4582,-4.497,-4.551,-4.5522,-4.5491,-4.559,-4.5594,-4.5594,-4.5594,-4.5594,-4.5577,-4.5495,-4.5485,-4.5485,-4.5485,-4.5558,-4.6167,-4.77,-4.8063,-4.8685,-5.0285,-5.0608,-5.0635,-5.0793,-5.0764,-5.0587,-5.0154,-4.9948,-4.9682,-4.9416,-4.9765,-5.0111,-4.5594,-4.5594,-4.5594,-4.4748,-4.3464,-4.375,-4.3347,-4.244,-4.1841,-4.0603,-3.8929,-3.8007,-3.7433,-3.7204,-3.7509,-3.7791,-3.8046,-3.8505,-3.8707,-3.8707,-3.8707,-3.8707,-3.8707,-3.8707,-3.8285,-3.7474,-3.6688,-3.5929,-3.5225,-3.455,-3.4195,-3.4208,-3.4537,-3.4291,-3.3551,-3.3949,-3.4609,-3.5481,-3.55,-3.55,-3.55,-3.55,-3.5084,-3.4218,-3.4074,-3.3226,-3.1589,-3.1142,-3.0548,-2.9704,-2.8184,-2.7505,-2.7838,-2.5726,-2.4563,0.0,0.0,0.0,0.0,0.0,0.0,0.0,0.0,0.0,0.0,0.0,-2.7266,-2.8311,-3.0556,-3.2041,-3.2422,-3.3242,-3.4473,-3.625,-3.6016,-3.6641,-3.8926,-3.875,-3.9297,-4.1465,-4.207,-4.2968,-4.468,-4.5163,-4.5445,-4.5793,-4.582,-4.5754,-4.5646,-4.5594,-4.5594,-4.5594,-4.5594,-4.5594,-4.5594,-4.5594,-4.5629,-4.5688,-4.5754,-4.6248,-4.7563,-4.7874,-4.8385,-4.9615,-4.9834,-4.9894,-5.0235,-5.0212,-5.0212,-5.0538,-5.0207,-4.9881,-5.0004,-5.0225,-5.0281,-4.5594,-4.5586,-4.5559,-4.5171,-4.4593,-4.454,-4.3998,-4.3101,-4.2811,-4.1974,-4.072,-3.9696,-3.9245,-3.917,-3.8953,-3.8799,-3.8707,-3.8707,-3.8707,-3.8707,-3.8707,-3.8707,-3.8707,-3.8707,-3.8322,-3.7639,-3.6875,-3.6209,-3.564,-3.486,-3.4539,-3.4694,-3.4764,-3.4908,-3.5096,-3.513,-3.5254,-3.5481,-3.55,-3.55,-3.55,-3.55,-3.5019,-3.4083,-3.3695,-3.2726,-3.1107,-3.0297,-2.9565,-2.8853,-2.7601,-2.7236,-2.7818,-2.6432,-2.5779,0.0,-2.5588,0.0,0.0,0.0,0.0,0.0,0.0,0.0,0.0,-2.8087,-2.909,-3.0969,-3.2757,-3.4446,-3.6016,-3.6953,-3.7812,-3.8652,-3.8769,-3.9121,-3.9922,-4.0078,-4.0703,-4.2363,-4.3222,-4.3978,-4.4875,-4.5601,-4.5983,-4.584,-4.5776,-4.573,-4.5637,-4.5594,-4.5594,-4.5594,-4.5594,-4.5594,-4.5594,-4.5594,-4.5632,-4.5749,-4.5809,-4.616,-4.7105,-4.7295,-4.7576,-4.8377,-4.8588,-4.869,-4.9348,-4.9346,-4.9499,-5.0096,-4.9654,-4.949,-5.0154,-5.025,-5.0106,-4.5594,-4.5577,-4.5312,-4.4985,-4.4567,-4.4247,-4.3599,-4.2773,-4.2732,-4.2167,-4.1226,-4.0419,-3.9962,-3.9751,-3.9703,-3.9313,-3.8707,-3.8707,-3.8707,-3.8707,-3.8707,-3.8707,-3.8707,-3.8707,-3.8634,-3.8447,-3.7882,-3.7227,-3.6466,-3.6084,-3.5505,-3.4752,-3.5149,-3.5254,-3.5113,0.0,0.0,0.0,-3.55,-3.55,-3.55,-3.55,-3.4737,-3.3199,-3.2455,0.0,-2.9619,-2.9369,-2.9196,-2.9043,-2.8764,0.0,0.0,0.0,0.0,0.0,0.0,0.0,0.0,0.0,0.0,0.0,-2.9433,-2.8986,-2.8057,-3.0516,-3.2381,-3.2851,-3.5093,-3.6679,-3.7031,-3.7851,-3.8711,-3.9531,-3.9648,-4.0,-4.082,-4.0957,-4.158,-4.3157,-4.3525,-4.4148,-4.5437,-4.5813,-4.5858,-4.5796,-4.5708,-4.5654,-4.5603,-4.5594,-4.5594,-4.5594,-4.5594,-4.5594,-4.5594,-4.5594,-4.5632,-4.5763,-4.5839,-4.6258,-4.7092,-4.7396,-4.7793,-4.8574,-4.8728,-4.8569,-4.8696,-4.8613,-4.8554,-4.8604,-4.8471,-4.8606,-4.9433,-4.9086,-4.8548,-4.5594,0.0,-4.5232,-4.4908,0.0,-4.4161,-4.3749,-4.3334,-4.316,-4.285,-4.2395,-4.1613,-4.1204,-4.1038,-4.0265,-3.968,-3.9276,-3.8872,-3.8707,-3.8707,-3.8707,-3.8707,-3.8707,-3.8707,-3.8707,-3.8686,-3.8155,-3.7536,-3.6904,-3.6491,-3.5886,-3.5096,-3.5369,-3.5432,-3.5304,-3.5432,-3.55,-3.55,-3.55,-3.55,-3.55,-3.55,-3.4673,-3.2968,0.0,0.0,0.0,0.0,0.0,0.0,0.0,0.0,0.0,0.0,0.0,-2.8381,-2.8664,-2.9045,-2.9441,-3.0015,-3.0718,-3.1609,-3.2625,-3.2461,-3.0696,-3.3067,-3.4819,-3.5269,-3.6913,-3.8125,-3.8555,-3.8984,-3.959,-4.041,-4.0485,-4.0635,-4.1044,-4.1438,-4.2112,-4.3292,-4.3867,-4.4589,-4.5686,-4.582,-4.5763,-4.5696,-4.5632,-4.5594,-4.5594,-4.5594,-4.5594,-4.5594,-4.5594,-4.5594,-4.5594,-4.5594,-4.5661,-4.5807,-4.5881,-4.6157,-4.6739,-4.6912,-4.7109,-4.7539,-4.7506,-4.7471,-4.7804,-4.7763,-4.775,-4.7976,-4.7778,-4.7625,-4.8086,-4.8125,-4.7971,-4.5594,-4.5568,-4.5232,-4.4908,-4.4567,-4.4233,-4.4121,-4.4091,0.0,0.0,0.0,-4.2899,-4.2481,-4.2194,-4.091,-4.0157,-3.9879,-3.9203,-3.8854,-3.8707,-3.8707,-3.8707,-3.8707,-3.8707,-3.8707,-3.8686,-3.8339,-3.7897,-3.7329,-3.6967,-3.6457,-3.5775,-3.5712,-3.5635,-3.55,-3.55,-3.55,-3.55,-3.55,-3.5467,-3.5439,-3.5432,-3.4649,-3.3022,-3.2588,-3.1623,-3.0056,-2.9253,-2.8936,-2.907,-2.8763,-2.8871,-2.9506,-2.9684,-3.0352,-3.1583,-3.1852,-3.2218,-3.2859,-3.3163,-3.3479,-3.3874,-3.5336,-3.5526,-3.3896,-3.5428,-3.6816,-3.7676,-3.8418,-3.918,-4.0039,-4.0137,-4.041,-4.1133,-4.1099,-4.0976,-4.1031,-4.165,-4.2408,-4.3261,-4.4108,-4.4932,-4.5647,-4.5768,-4.5718,-4.5627,-4.5603,-4.5594,-4.5594,-4.5594,-4.5594,-4.5594,-4.5594,-4.5594,-4.5594,-4.5594,-4.5673,-4.5839,-4.5876,-4.5988,-4.6198,-4.6289,-4.6289,-4.6426,-4.6211,-4.6433,-4.6839,-4.6899,-4.702,-4.7544,-4.7163,-4.6654,-4.6721,-4.7182,-4.7355,-4.5594,-4.5549,-4.5251,-4.4908,-4.4593,-4.454,-4.4514,-4.4514,-4.446,-4.4252,-4.3924,-4.3813,-4.3217,-4.2286,-4.2066,-4.1203,-3.9918,-3.9772,-3.9368,0.0,-3.8707,-3.8707,-3.8707,-3.8707,-3.8707,-3.875,-3.915,-3.8919,-3.8263,-3.8619,-3.8081,-3.6712,-3.6538,-3.6192,-3.5538,-3.55,-3.55,-3.55,-3.55,-3.5383,-3.5155,-3.5147,-3.4568,-3.3355,-3.2159,-3.1032,-3.0045,-2.9423,-2.94,-3.0143,-3.0821,-3.1218,-3.1352,-3.1948,-3.2179,-3.1795,-3.2352,-3.2795,-3.2936,-3.368,-3.4866,-3.6452,-3.6947,-3.668,-3.5781,-3.7226,-3.8594,-3.9434,-3.9629,-4.0078,-4.0879,-4.0976,-4.1016,-4.1172,-4.1098,-4.0996,-4.1027,-4.1698,-4.2432,-4.3205,-4.3995,-4.4827,-4.5491,-4.5635,-4.5635,-4.5603,-4.5594,-4.5594,-4.5594,-4.5594,-4.5594,-4.5594,-4.5594,-4.5594,-4.5594,-4.5594,-4.5673,-4.5803,-4.5871,-4.594,-4.6115,-4.6226,-4.6289,-4.6289,-4.6269,-4.6248,-4.6193,-4.6084,-4.6131,-4.6188,-4.5979,-4.5855,-4.5883,-4.6018,-4.6018,-4.5594,-4.5568,-4.5232,-4.5019,-4.4872,-4.4872,-4.4872,-4.4872,-4.4872,-4.4535,-4.4031,-4.4016,-4.3616,-4.2927,-4.2488,-4.1901,-4.1148,-4.0286,-3.9698,-3.9331,-3.8891,-3.8707,-3.8707,-3.8707,-3.8758,-3.8952,-3.9371,-3.9225,-3.8665,-3.9067,-3.8669,-3.745,-3.6942,-3.65,-3.6154,-3.5712,-3.55,-3.55,-3.55,-3.5458,-3.532,-3.5312,-3.4825,-3.387,-3.318,-3.2469,-3.1607,-3.1309,-3.1333,-3.1737,-3.2115,-3.2352,-3.2372,-3.2699,-3.2949,-3.3064,-3.3391,-3.3814,-3.4295,-3.5209,-3.6391,-3.7821,-3.8436,-3.8555,-3.8164,-3.8848,-3.9668,-4.0508,-4.0605,-4.0742,-4.1152,-4.1191,-4.1171,-4.1084,-4.0983,-4.1059,-4.1539,-4.22,-4.2924,-4.3716,-4.455,-4.5232,-4.5565,-4.5594,-4.5594,-4.5594,-4.5594,-4.5594,-4.5594,-4.5594,-4.5594,-4.5594,-4.5594,-4.5594,-4.5594,-4.5594,-4.5648,-4.5796,-4.5855,-4.5955,-4.6099,-4.6202,-4.6289,-4.6289,-4.6247,-4.6117,-4.592,-4.5876,-4.5777,-4.5645,-4.5594,-4.5594,-4.5594,-4.5594,-4.5618,-4.5594,-4.5577,-4.5322,-4.5211,-4.5211,-4.5129,-4.5115,-4.5115,-4.5096,-4.4688,-4.4058,-4.4016,-4.3802,-4.344,-4.2855,-4.247,-4.2121,-4.0818,-4.0065,-3.9843,-3.9074,-3.8707,-3.8704,-3.8747,-3.8869,-3.9068,-3.9462,-3.9456,-3.907,-3.938,-3.9142,-3.8277,-3.7411,-3.6885,-3.6692,-3.6077,-3.5692,-3.5519,-3.55,-3.546,-3.5417,-3.5398,-3.5076,-3.4381,-3.4155,-3.3799,-3.314,-3.2968,-3.2987,-3.3179,-3.3199,-3.3256,-3.337,-3.3461,-3.3756,-3.4344,-3.4467,-3.4892,-3.577,-3.6595,-3.7585,-3.8809,-3.9512,-3.998,-4.0156,-4.0195,-4.0449,-4.1094,-4.1152,-4.1191,-4.1191,-4.1152,-4.1125,-4.0998,-4.1048,-4.133,-4.1949,-4.2816,-4.362,-4.4322,-4.5104,-4.564,-4.5643,-4.561,-4.5594,-4.5594,-4.5594,-4.5594,-4.5594,-4.5594,-4.5594,-4.5594,-4.5594,-4.5594,-4.5594,-4.5594,-4.5648,-4.5789,-4.5855,-4.5955,-4.608,-4.6202,-4.625,-4.6248,-4.6174,-4.6039,-4.5914,-4.5836,-4.5742,-4.5635,-4.5594,-4.5612,-4.566,-4.5648,-4.568,-4.5594,-4.5594,-4.554,-4.5559,-4.5504,-4.5232,-4.5126,-4.5115,-4.5115,-4.4688,-4.4046,-4.4016,-4.3804,-4.3531,-4.3386,-4.3001,-4.2286,-4.1389,-4.0598,-3.9863,-3.9074,-3.8707,-3.8719,-3.8947,-3.8947,-3.8888,-3.9637,-3.9874,-3.9553,-4.0086,-3.9958,-3.9169,-3.8315,-3.7507,-3.6808,-3.6635,-3.6212,-3.5519,-3.55,-3.5376,-3.5147,-3.513,-3.4969,-3.466,-3.4113,-3.3802,-3.375,-3.3189,-3.3295,-3.3994,-3.409,-3.4316,-3.4797,-3.51,-3.518,-3.5029,-3.5234,-3.5815,-3.6736,-3.7074,-3.7948,-3.9551,-3.9863,-4.0254,-4.0957,-4.1055,-4.1074,-4.1191,-4.1191,-4.1191,-4.1191,-4.1083,-4.1021,-4.1018,-4.1488,-4.1949,-4.2208,-4.3421,-4.4421,-4.446,-4.5273,-4.5769,-4.5768,-4.5673,-4.5594,-4.5594,-4.5594,-4.5594,-4.5594,-4.5594,-4.5612,-4.5603,-4.5603,-4.5603,-4.5603,-4.5594,-4.5665,-4.5783,-4.5861,-4.5963,-4.6084,-4.6178,-4.6249,-4.6173,-4.6106,-4.6001,-4.588,-4.5796,-4.5754,-4.5643,-4.5612,-4.5627,-4.574,-4.5756,-4.5796,-4.5594,-4.5594,-4.5594,-4.5594,-4.5577,-4.5467,-4.5292,-4.5085,-4.4884,-4.4495,-4.4016,-4.3788,-4.3631,-4.3479,-4.3479,-4.3296,-4.2928,-4.168,-4.093,-4.0506,-3.9313,-3.8707,-3.8735,-3.8971,-3.9036,-3.9017,-3.972,-4.0041,-3.9983,-4.0311,-4.0323,-3.9958,-3.9188,-3.8584,-3.818,-3.7219,-3.6538,-3.6212,-3.5731,-3.5446,-3.5354,-3.5346,-3.5289,-3.516,-3.4944,-3.479,-3.4779,-3.4562,-3.4596,-3.493,-3.4968,-3.5,-3.5094,-3.5361,-3.5395,-3.5147,-3.5391,-3.6221,-3.7676,-3.7849,-3.8714,-4.0547,-4.0664,-4.084,-4.1133,-4.1191,-4.1191,-4.1191,-4.1191,-4.1171,-4.1082,-4.1026,-4.095,-4.0945,-4.1521,-4.2169,-4.2685,-4.375,-4.4672,-4.5243,-4.5627,-4.5842,-4.5783,-4.5677,-4.5603,-4.5594,-4.5594,-4.5594,-4.5594,-4.5594,-4.5635,-4.5692,-4.5723,-4.5688,-4.5635,-4.5673,-4.5733,-4.5803,-4.592,-4.6045,-4.6104,-4.6142,-4.6168,-4.611,-4.6001,-4.5906,-4.5828,-4.5718,-4.5648,-4.5594,-4.5603,-4.5643,-4.5782,-4.5796,-4.584,-4.5594,-4.5594,-4.5594,-4.5594,-4.5594,-4.5594,-4.5352,-4.4954,-4.4695,-4.4337,-4.3868,-4.3614,-4.3479,-4.3479,-4.3479,-4.3479,-4.3296,-4.2066,-4.1425,-4.124,-3.9772,-3.9019,-3.9047,-3.9064,-3.9077,-3.9136,-3.9742,-4.0139,-4.0213,-4.0408,-4.0496,-4.04,-3.9919,-3.9515,-3.9169,-3.7757,-3.6923,-3.6615,-3.5904,-3.55,-3.5481,-3.55,-3.55,-3.55,-3.55,-3.55,-3.55,-3.55,-3.55,-3.5481,-3.5439,-3.5254,-3.5016,-3.5258,-3.5327,-3.5254,-3.5444,-3.6377,-3.8128,-3.8346,-3.9198,-4.0875,-4.1191,-4.1191,-4.1191,-4.1191,-4.1191,-4.1191,-4.1151,-4.1083,-4.1003,-4.0947,-4.084,-4.0784,-4.1627,-4.2582,-4.3136,-4.4164,-4.522,-4.5835,-4.5924,-4.5905,-4.5821,-4.5723,-4.5648,-4.5612,-4.5594,-4.5594,-4.5612,-4.5627,-4.5692,-4.5783,-4.5835,-4.5803,-4.5713,-4.5764,-4.5826,-4.5901,-4.6014,-4.6089,-4.612,-4.6142,-4.6072,-4.6024,-4.5885,-4.5764,-4.5725,-4.5632,-4.5601,-4.5612,-4.5654,-4.57,-4.582,-4.585,-4.5962,-4.5594,-4.5594,-4.5594,-4.5594,-4.5594,-4.5594,-4.5232,-4.4644,-4.4606,-4.4213,-4.3597,-4.3513,-4.3479,-4.3479,-4.3479,-4.3479,-4.3369,-4.258,-4.2176,-4.2029,-4.0579,-3.9845,-3.9822,-3.9346,-3.899,-3.8888,-3.9709,-4.0241,-4.0457,-4.0508,-4.0496,-4.0477,-4.04,-4.0035,-3.9361,-3.843,-3.7526,-3.6796,-3.6,-3.5519,-3.55,-3.55,-3.55,-3.55,-3.55,-3.55,-3.55,-3.55,-3.55,-3.5481,-3.5273,-3.5008,-3.4793,-3.4962,-3.5223,-3.5453,-3.5537,-3.6371,-3.7914,-3.8318,-3.9167,-4.0695,-4.1133,-4.1191,-4.1191,-4.1191,-4.1191,-4.1191,-4.1082,-4.1002,-4.0968,-4.0856,-4.0729,-4.0794,-4.2117,-4.2981,-4.3206,-4.4733,-4.5877,-4.6084,-4.608,-4.5997,-4.5834,-4.5815,-4.5703,-4.5635,-4.5594,-4.5603,-4.5635,-4.5696,-4.5776,-4.5814,-4.5861,-4.589,-4.5885,-4.59,-4.5955,-4.6021,-4.6069,-4.6152,-4.6191,-4.6178,-4.6072,-4.5971,-4.5859,-4.5763,-4.5648,-4.5601,-4.5616,-4.5665,-4.5747,-4.5808,-4.591,-4.6011,-4.6108,-4.5594,-4.5594,-4.5594,-4.5594,-4.5594,-4.5594,-4.5232,-4.4606,-4.4593,-4.4198,-4.358,-4.3479,-4.3479,-4.3479,-4.3479,-4.3479,-4.3406,-4.2653,-4.2304,-4.2176,-4.1167,-4.0396,-3.9942,-4.0071,-3.973,-3.9187,-3.9894,-4.0417,-4.0481,-4.0496,-4.0496,-4.0496,-4.0496,-4.0323,-3.9958,-3.9246,-3.8411,-3.7526,-3.6712,-3.6019,-3.5538,-3.55,-3.55,-3.55,-3.55,-3.55,-3.55,-3.55,-3.5424,-3.5258,-3.5157,-3.4991,-3.4754,-3.4954,-3.5215,-3.5474,-3.5548,-3.6371,-3.7904,-3.8332,-3.9144,-4.0766,-4.1127,-4.1191,-4.1191,-4.1191,-4.1191,-4.1172,-4.108,-4.0998,-4.0955,-4.0822,-4.0681,-4.0751,-4.1667,-4.2718,-4.3379,-4.4475,-4.5496,-4.6042,-4.615,-4.605,-4.591,-4.5832,-4.5747,-4.5627,-4.5594,-4.5643,-4.5715,-4.5789,-4.5838,-4.5951,-4.6014,-4.6069,-4.6168,-4.6077,-4.6047,-4.6091,-4.6152,-4.6211,-4.625,-4.6172,-4.6072,-4.5967,-4.5875,-4.5777,-4.5681,-4.5711,-4.5699,-4.577,-4.5839,-4.591,-4.6018,-4.608,-4.6173,-4.5594,-4.5594,-4.5594,-4.5594,-4.5605,-4.5485,-4.5118,-4.4606,-4.446,-4.4065,-4.3563,-4.3479,-4.3479,-4.3479,-4.3479,-4.3479,-4.3442,-4.2928,-4.269,-4.2598,-4.1864,-4.1056,-4.0433,-4.0532,-4.0094,-3.9363,-3.9955,-4.0417,-4.0489,-4.0496,-4.0496,-4.0496,-4.0496,-4.0496,-4.0342,-3.9438,-3.8565,-3.7892,-3.6892,-3.6,-3.5538,-3.55,-3.55,-3.55,-3.55,-3.55,-3.5493,-3.5424,-3.5297,-3.5113,-3.5016,-3.4926,-3.4851,-3.4999,-3.5223,-3.5467,-3.5784,-3.6584,-3.7926,-3.854,-3.9429,-4.0777,-4.1113,-4.1191,-4.1191,-4.1191,-4.1191,-4.1172,-4.106,-4.0996,-4.0957,-4.0836,-4.0693,-4.0739,-4.1496,-4.2328,-4.3013,-4.4133,-4.5222,-4.6072,-4.6224,-4.6106,-4.5952,-4.591,-4.5802,-4.5616,-4.5657,-4.5749,-4.579,-4.5872,-4.5935,-4.6072,-4.6142,-4.6198,-4.625,-4.6191,-4.6152,-4.6191,-4.6191,-4.6269,-4.6269,-4.6172,-4.6082,-4.5978,-4.5881,-4.5795,-4.5764,-4.5796,-4.5859,-4.5894,-4.5936,-4.6011,-4.608,-4.6122,-4.6211,-4.5594,-4.5586,-4.5586,-4.5568,-4.5504,-4.5232,-4.4908,-4.4527,-4.4209,-4.3852,-4.3513,-4.3479,-4.3479,-4.3479,-4.3479,-4.3479,-4.3478,-4.3387,-4.3369,-4.3296,-4.2653,-4.1882,-4.1109,-4.0677,-4.0024,-3.9229,-3.9797,-4.0223,-4.0414,-4.0449,-4.0465,-4.0473,-4.0446,-4.0465,-4.0496,-3.913,-3.8219,-3.7834,-3.6654,-3.5712,-3.55,-3.5538,-3.55,-3.55,-3.55,-3.5474,-3.5467,-3.5239,-3.5122,-3.5079,-3.486,-3.4832,-3.5025,-3.5113,-3.5231,-3.5561,-3.6199,-3.7072,-3.7961,-3.8937,-3.9827,-4.0685,-4.1052,-4.1191,-4.1191,-4.1191,-4.1191,-4.1172,-4.1102,-4.1021,-4.0996,-4.0908,-4.0801,-4.0883,-4.1594,-4.2149,-4.2639,-4.3918,-4.5332,-4.6074,-4.6269,-4.6191,-4.6005,-4.5988,-4.5927,-4.5737,-4.5764,-4.5857,-4.5872,-4.5959,-4.6053,-4.612,-4.6191,-4.6269,-4.6289,-4.6289,-4.6289,-4.6289,-4.6269,-4.6289,-4.6289,-4.6221,-4.6145,-4.6042,-4.5944,-4.5846,-4.5891,-4.5929,-4.5935,-4.5995,-4.6045,-4.6094,-4.6147,-4.6191,-4.623,-4.5594,-4.5549,-4.5342,-4.5272,-4.5211,-4.4896,-4.4535,-4.419,-4.4046,-4.382,-4.3548,-4.3479,-4.3479,-4.3479,-4.3479,-4.3479,-4.3479,-4.3479,-4.3479,-4.3442,-4.3204,-4.2653,-4.1912,-4.139,-4.0568,-3.9688,-3.9891,-4.0022,-3.9954,-4.0101,-4.0213,-4.0223,-4.0223,-4.033,-4.0469,-3.9958,-3.9496,-3.8815,-3.7815,-3.6962,-3.6327,-3.5769,-3.55,-3.55,-3.55,-3.5424,-3.5231,-3.5138,-3.5096,-3.5096,-3.4851,-3.4813,-3.5079,-3.5281,-3.5398,-3.5563,-3.625,-3.7077,-3.798,-3.9019,-3.9972,-4.0639,-4.1051,-4.1191,-4.1191,-4.1191,-4.1191,-4.1191,-4.1172,-4.1149,-4.1128,-4.1104,-4.0976,-4.0836,-4.1173,-4.1741,-4.2471,-4.3881,-4.5273,-4.6094,-4.6289,-4.6211,-4.6106,-4.6087,-4.6024,-4.5841,-4.5877,-4.5927,-4.6001,-4.6056,-4.6145,-4.6223,-4.6289,-4.6289,-4.6289,-4.6289,-4.6289,-4.6289,-4.6289,-4.6289,-4.6289,-4.6268,-4.6199,-4.6138,-4.6021,-4.5978,-4.6027,-4.6045,-4.6055,-4.6113,-4.6191,-4.6211,-4.623,-4.625,-4.6289,-4.5594,-4.5568,-4.5232,-4.5115,-4.5041,-4.4606,-4.4233,-4.4001,-4.3865,-4.3712,-4.3513,-4.3479,-4.3479,-4.3479,-4.3479,-4.3479,-4.3479,-4.3479,-4.3479,-4.3424,-4.3147,-4.2616,-4.1836,-4.1142,-4.0496,-3.983,-3.9951,-3.9922,-3.9622,-3.9797,-3.9963,-4.0081,-4.0101,-4.0251,-4.0415,-4.0189,-3.9765,-3.9227,-3.843,-3.7577,-3.6769,-3.6212,-3.5788,-3.5551,-3.541,-3.5273,-3.5124,-3.5274,-3.5267,-3.5011,-3.4879,-3.4981,-3.5261,-3.5667,-3.5907,-3.6048,-3.693,-3.7893,-3.8378,-3.9434,-4.0221,-4.0753,-4.1051,-4.1191,-4.1191,-4.1191,-4.1191,-4.1191,-4.1191,-4.1191,-4.1191,-4.1191,-4.1094,-4.0914,-4.1034,-4.1606,-4.2663,-4.3806,-4.5019,-4.5879,-4.6289,-4.623,-4.6145,-4.6167,-4.6084,-4.5947,-4.5988,-4.6033,-4.6095,-4.6144,-4.623,-4.6269,-4.6289,-4.6289,-4.6289,-4.6289,-4.6289,-4.6289,-4.6289,-4.6289,-4.6289,-4.6289,-4.6247,-4.6224,-4.6142,-4.6142,-4.6174,-4.6174,-4.6191,-4.6269,-4.6289,-4.6289,-4.6269,-4.6269,-4.6289,-4.5594,-4.5559,-4.5211,-4.5052,-4.4954,-4.429,-4.3974,-4.3893,-4.3644,-4.3513,-4.3479,-4.3479,-4.3479,-4.3479,-4.3479,-4.3479,-4.3496,-4.3563,-4.358,-4.3378,-4.2896,-4.2191,-4.1486,-4.0822,-4.0282,-3.9821,-4.0032,-3.9914,-3.9476,-3.9569,-3.9746,-4.0002,-4.0081,-4.0232,-4.0342,-3.9765,-3.9534,-3.9381,-3.8592,-3.7777,-3.7046,-3.6808,-3.6467,-3.5773,-3.5564,-3.5431,-3.5419,-3.5769,-3.567,-3.5066,-3.5341,-3.5624,-3.5785,-3.6358,-3.6611,-3.6504,-3.8219,-3.8767,-3.9112,-3.9937,-4.0711,-4.0818,-4.1055,-4.1191,-4.1191,-4.1191,-4.1191,-4.1191,-4.1191,-4.1191,-4.1191,-4.1328,-4.1308,-4.125,-4.1403,-4.207,-4.3457,-4.3867,-4.4726,-4.5898,-4.6289,-4.6267,-4.6147,-4.6224,-4.6149,-4.6075,-4.6144,-4.6177,-4.6175,-4.6211,-4.6269,-4.6289,-4.6289,-4.6289,-4.6289,-4.6289,-4.6289,-4.6289,-4.6289,-4.6289,-4.6289,-4.6289,-4.6289,-4.6289,-4.6269,-4.6289,-4.6289,-4.6269,-4.625,-4.6289,-4.6289,-4.6289,-4.6289,-4.6289,-4.6289,-4.5594,-4.5531,-4.4977,-4.472,-4.4637,-4.3943,-4.3629,-4.3612,-4.3565,-4.3513,-4.3496,-4.3479,-4.3513,-4.3496,-4.3513,-4.3479,-4.358,-4.3772,-4.3865,-4.3797,-4.3315,-4.2814,-4.2489,-4.2305,-4.1469,-4.0377,-4.0394,-4.0096,-3.9064,-3.9371,-3.9634,-3.9742,-4.0002,-4.0251,-4.0388,-4.0265,-4.0208,-4.0073,-3.9381,-3.8861,-3.8527,-3.7911,-3.7444,-3.7033,-3.6858,-3.6614,-3.6351,-3.661,-3.6838,-3.6891,-3.7092,-3.7256,-3.7221,-3.7277,-3.7257,-3.7393,-3.822,-3.8984,-3.9223,-4.0117,-4.0804,-4.0952,-4.1102,-4.1191,-4.1191,-4.1191,-4.1191,-4.1191,-4.1191,-4.1269,-4.1328,-4.1758,-4.2266,-4.281,-4.247,-4.2717,-4.4049,-4.4629,-4.5098,-4.6074,-4.6289,-4.6269,-4.6269,-4.625,-4.6269,-4.6211,-4.623,-4.6289,-4.625,-4.625,-4.6289,-4.6289,-4.6289,-4.6289,-4.6289,-4.6289,-4.6289,-4.6289,-4.6289,-4.6289,-4.6289,-4.6289,-4.6289,-4.6289,-4.6289,-4.6289,-4.6289,-4.6289,-4.6289,-4.6289,-4.6289,-4.6289,-4.6289,-4.6289,-4.6289,-4.5594,-4.554,-4.5041,-4.472,-4.4572,-4.4121,-4.3791,-4.3563,-4.3646,-4.3631,-4.3565,-4.3662,-4.371,-4.3726,-4.3884,-4.3962,-4.3989,-4.4165,-4.4247,-4.4247,-4.4134,-4.3415,-4.2655,-4.2596,-4.1879,-4.0405,-4.051,-3.99,-3.8992,-3.9189,-3.9426,-3.9645,-3.9932,-4.0223,-4.0481,-4.0496,-4.0496,-4.04,-3.9996,-3.9688,-3.9284,-3.8815,-3.8161,-3.765,-3.7424,-3.7265,-3.7376,-3.7559,-3.7654,-3.7632,-3.7715,-3.78,-3.7814,-3.7852,-3.7839,-3.7877,-3.8803,-3.9438,-3.9637,-4.0379,-4.0872,-4.0996,-4.1127,-4.1387,-4.1641,-4.1719,-4.1758,-4.2246,-4.2246,-4.2246,-4.2305,-4.2674,-4.3275,-4.3895,-4.3707,-4.3798,-4.4824,-4.492,-4.541,-4.5996,-4.6289,-4.6289,-4.6289,-4.6289,-4.6289,-4.6289,-4.6269,-4.6289,-4.6289,-4.6289,-4.6289,-4.6289,-4.6289,-4.6289,-4.6289,-4.6289,-4.6269,-4.6269,-4.6269,-4.6269,-4.6269,-4.6269,-4.6289,-4.6289,-4.6289,-4.6289,-4.6289,-4.6289,-4.6289,-4.6289,-4.6289,-4.6289,-4.6289,-4.6269,-4.6269,-4.5594,-4.5558,-4.5232,-4.4931,-4.467,-4.4593,-4.4227,-4.3758,-4.3881,-4.3849,-4.3758,-4.3912,-4.4001,-4.4073,-4.4355,-4.4553,-4.4572,-4.4593,-4.4682,-4.4769,-4.4729,-4.4037,-4.2575,-4.28,-4.1922,-4.0581,-4.0354,-3.9752,-3.9099,-3.9027,-3.9314,-3.9634,-3.9963,-4.025,-4.0465,-4.0496,-4.0496,-4.0496,-4.0419,-4.0092,-3.9669,-3.9423,-3.8931,-3.8118,-3.7623,-3.783,-3.824,-3.8433,-3.8291,-3.7871,-3.7775,-3.7956,-3.7919,-3.8234,-3.8388,-3.8583,-3.9385,-4.001,-4.0235,-4.0626,-4.0984,-4.102,-4.1229,-4.1601,-4.2168,-4.2402,-4.2793,-4.334,-4.3672,-4.3555,-4.3711,-4.3776,-4.4156,-4.4781,-4.4972,-4.5021,-4.5098,-4.5137,-4.5449,-4.6133,-4.6289,-4.6289,-4.6289,-4.6289,-4.6289,-4.6289,-4.6289,-4.6289,-4.6289,-4.6289,-4.6289,-4.6289,-4.6289,-4.6289,-4.6289,-4.6289,-4.6269,-4.625,-4.623,-4.623,-4.6191,-4.6211,-4.6269,-4.6289,-4.6289,-4.6289,-4.6289,-4.6289,-4.6289,-4.6269,-4.6269,-4.6269,-4.6269,-4.623,-4.6211,-4.5594,-4.5568,-4.5251,-4.5082,-4.4954,-4.4726,-4.4501,-4.4337,-4.4106,-4.4146,-4.4266,-4.4136,-4.4204,-4.4487,-4.4593,-4.4593,-4.4695,-4.4896,-4.5099,-4.5352,-4.514,-4.4763,-4.3989,-4.4056,-4.3114,-4.1675,-4.1272,-4.0385,-3.9243,-3.9227,-3.951,-3.9645,-4.0091,-4.0441,-4.0481,-4.0496,-4.0496,-4.0496,-4.0496,-4.0419,-4.0265,-4.0154,-3.9808,-3.9064,-3.8549,-3.8525,-3.8811,-3.8956,-3.9027,-3.9176,-3.9275,-3.9152,-3.8998,-3.892,-3.9008,-3.9282,-3.9594,-4.0,-4.0242,-4.0694,-4.1005,-4.115,-4.1699,-4.2226,-4.2383,-4.3105,-4.3457,-4.3711,-4.3711,-4.4121,-4.4609,-4.4612,-4.4979,-4.5593,-4.5802,-4.582,-4.5976,-4.5976,-4.6074,-4.6211,-4.6289,-4.6289,-4.6289,-4.6289,-4.6289,-4.6289,-4.6289,-4.6289,-4.6289,-4.6289,-4.6289,-4.6289,-4.6289,-4.6289,-4.6289,-4.625,-4.6191,-4.6147,-4.614,-4.613,-4.6097,-4.6152,-4.623,-4.6269,-4.6289,-4.6289,-4.6289,-4.6289,-4.6289,-4.6269,-4.6223,-4.6177,-4.615,-4.6149,-4.635,-4.5594,-4.5577,-4.541,-4.5262,-4.5126,-4.5055,-4.4896,-4.4644,-4.4561,-4.4535,-4.4593,-4.4508,-4.4638,-4.483,-4.4988,-4.5066,-4.5088,-4.5232,-4.5332,-4.5332,-4.514,-4.4837,-4.4269,-4.4041,-4.3192,-4.1979,-4.1499,-4.0511,-3.9682,-3.9455,-3.9587,-3.9656,-4.0193,-4.0465,-4.0496,-4.0496,-4.0496,-4.0496,-4.0496,-4.0496,-4.0496,-4.0489,-4.0202,-3.9622,-3.905,-3.8833,-3.9053,-3.9075,-3.9167,-3.9364,-3.9541,-3.9576,-3.9401,-3.9212,-3.9314,-3.9648,-3.9887,-4.0176,-4.0552,-4.0844,-4.121,-4.1612,-4.2147,-4.2832,-4.3379,-4.4101,-4.4512,-4.4785,-4.4941,-4.5078,-4.5458,-4.5485,-4.5802,-4.6072,-4.623,-4.625,-4.6289,-4.6289,-4.6289,-4.6289,-4.6289,-4.6289,-4.6289,-4.6289,-4.6289,-4.6289,-4.6289,-4.6289,-4.6289,-4.6289,-4.6289,-4.6289,-4.6289,-4.6289,-4.6269,-4.6211,-4.6094,-4.6044,-4.5986,-4.5955,-4.5935,-4.605,-4.6172,-4.6211,-4.625,-4.6289,-4.6289,-4.6289,-4.6269,-4.62,-4.6144,-4.608,-4.6226,-4.6555,-4.6778,-4.5594,-4.5594,-4.5594,-4.5448,-4.5243,-4.5448,-4.5273,-4.4853,-4.4977,-4.4943,-4.4837,-4.5011,-4.5063,-4.5222,-4.5429,-4.5577,-4.5577,-4.555,-4.5438,-4.515,-4.5011,-4.4631,-4.4059,-4.3461,-4.303,-4.2376,-4.1344,-4.0393,-3.9767,-3.9661,-3.9606,-3.9694,-4.0193,-4.0473,-4.0496,-4.0496,-4.0496,-4.0496,-4.0496,-4.0496,-4.0473,-4.0422,-4.0101,-3.9486,-3.9008,-3.8788,-3.8961,-3.9013,-3.9022,-3.9036,-3.9036,-3.9077,-3.9093,-3.9149,-3.9368,-3.9814,-4.008,-4.039,-4.081,-4.1152,-4.1603,-4.2343,-4.2773,-4.3457,-4.4551,-4.5058,-4.5449,-4.5781,-4.5935,-4.5848,-4.6087,-4.5993,-4.6075,-4.625,-4.6289,-4.6289,-4.6289,-4.6289,-4.6289,-4.6289,-4.6289,-4.6289,-4.6289,-4.6289,-4.6289,-4.6289,-4.6289,-4.6289,-4.6289,-4.6289,-4.6289,-4.6289,-4.6289,-4.623,-4.6211,-4.6174,-4.6075,-4.5951,-4.5881,-4.5875,-4.5856,-4.5986,-4.6122,-4.615,-4.6191,-4.625,-4.6289,-4.6289,-4.625,-4.6152,-4.6342,-4.6567,-4.6794,-4.702,-4.7306,-4.5594,-4.5594,-4.5594,-4.5568,-4.5522,-4.5577,-4.5522,-4.541,-4.5201,-4.5232,-4.5362,-4.5192,-4.5282,-4.5457,-4.555,-4.5594,-4.5594,-4.5559,-4.5371,-4.5033,-4.4806,-4.4392,-4.3927,-4.3407,-4.3212,-4.2722,-4.1387,-3.9918,-3.9471,-3.9337,-3.9599,-3.9746,-4.0221,-4.0489,-4.0496,-4.0496,-4.0496,-4.0496,-4.0496,-4.0489,-4.0414,-4.0185,-3.9861,-3.9251,-3.8869,-3.8762,-3.8747,-3.8773,-3.8743,-3.8762,-3.8743,-3.8894,-3.9101,-3.9227,-3.9566,-3.9996,-4.0289,-4.0577,-4.1013,-4.1632,-4.202,-4.2597,-4.3551,-4.4414,-4.5098,-4.5605,-4.5957,-4.5982,-4.6033,-4.5978,-4.6104,-4.6099,-4.6171,-4.625,-4.6289,-4.6289,-4.6289,-4.6289,-4.6289,-4.6289,-4.6289,-4.6289,-4.6289,-4.6289,-4.6289,-4.6289,-4.6289,-4.6289,-4.6289,-4.6289,-4.6289,-4.6289,-4.6289,-4.6211,-4.6133,-4.6108,-4.6037,-4.5915,-4.5847,-4.5861,-4.5876,-4.5997,-4.6077,-4.6082,-4.6152,-4.6269,-4.6289,-4.6289,-4.6367,-4.6387,-4.6739,-4.7138,-4.7423,-4.771,-4.8248,-4.5594,-4.5594,-4.5594,-4.5594,-4.5594,-4.5594,-4.5594,-4.5577,-4.5429,-4.5342,-4.5352,-4.5342,-4.5313,-4.54,-4.555,-4.5594,-4.5568,-4.54,-4.515,-4.4837,-4.4455,-4.4106,-4.368,-4.3197,-4.2926,-4.247,-4.1258,-4.0449,-4.0159,-3.9739,-3.9777,-3.9924,-4.0302,-4.0489,-4.0496,-4.0496,-4.0496,-4.0496,-4.0489,-4.0433,-4.025,-3.9861,-3.9377,-3.9144,-3.884,-3.8704,-3.8707,-3.8707,-3.8689,-3.8707,-3.8707,-3.8937,-3.9277,-3.9593,-3.9846,-4.0269,-4.0526,-4.0972,-4.1484,-4.2155,-4.263,-4.3683,-4.459,-4.5195,-4.5605,-4.6016,-4.6191,-4.6033,-4.5924,-4.5896,-4.6001,-4.5995,-4.6089,-4.625,-4.6289,-4.6289,-4.6289,-4.6289,-4.6289,-4.6289,-4.6289,-4.6289,-4.6289,-4.6289,-4.6289,-4.6289,-4.6289,-4.6289,-4.6289,-4.6289,-4.6289,-4.6269,-4.625,-4.6133,-4.605,-4.6014,-4.5998,-4.5875,-4.6003,-4.6011,-4.6071,-4.6247,-4.6105,-4.5962,-4.6094,-4.6543,-4.6269,-4.6269,-4.6445,-4.6683,-4.7084,-4.7518,-4.7996,-4.8468,-4.9064,-4.5594,-4.5594,-4.5594,-4.5594,-4.5594,-4.5594,-4.5594,-4.5605,-4.5523,-4.5332,-4.515,-4.5332,-4.5322,-4.5243,-4.541,-4.5568,-4.5495,-4.5201,-4.4908,-4.4468,-4.419,-4.3833,-4.3378,-4.2947,-4.2671,-4.2708,-4.1846,-4.1383,-4.1089,-4.0659,-4.0299,-4.0344,-4.0563,-4.0612,-4.0554,-4.0496,-4.0496,-4.0481,-4.0433,-4.0278,-3.984,-3.9401,-3.9058,-3.9027,-3.88,-3.8707,-3.8707,-3.8707,-3.8854,-3.8903,-3.8951,-3.9115,-3.977,-4.0132,-4.0423,-4.0762,-4.0991,-4.166,-4.2362,-4.2916,-4.3593,-4.459,-4.5078,-4.5644,-4.5957,-4.6152,-4.6115,-4.592,-4.5788,-4.5795,-4.5905,-4.5907,-4.6039,-4.6211,-4.6289,-4.6289,-4.6289,-4.6289,-4.6289,-4.6289,-4.6289,-4.6289,-4.6289,-4.6289,-4.6289,-4.6289,-4.6289,-4.6289,-4.6289,-4.6289,-4.6289,-4.625,-4.6191,-4.6074,-4.5978,-4.5929,-4.5901,-4.5852,-4.621,-4.6506,-4.6534,-4.6579,-4.6477,-4.652,-4.6855,-4.7187,-4.6719,-4.6381,-4.6677,-4.7028,-4.7443,-4.8032,-4.8778,-4.9486,-5.0136,-4.5594,-4.5594,-4.5594,-4.5594,-4.5594,-4.5594,-4.5594,-4.5568,-4.5312,-4.514,-4.5052,-4.5148,-4.5129,-4.5171,-4.5448,-4.5419,-4.5222,-4.5063,-4.4701,-4.4171,-4.4001,-4.3788,-4.3548,-4.346,-4.3204,-4.3094,-4.2506,-4.1791,-4.1579,-4.1611,-4.1278,-4.0953,-4.1245,-4.1316,-4.0727,-4.0862,-4.0496,-4.0476,-4.0269,-3.9851,-3.9352,-3.9133,-3.8975,-3.8833,-3.8735,-3.8762,-3.8817,-3.8891,-3.9093,-3.9672,-3.9326,-3.9714,-4.0629,-4.1255,-4.165,-4.1952,-4.2207,-4.2524,-4.3436,-4.3975,-4.4476,-4.5176,-4.5664,-4.6113,-4.623,-4.6108,-4.5974,-4.5931,-4.5737,-4.5736,-4.5867,-4.5899,-4.6061,-4.6191,-4.6289,-4.6289,-4.6289,-4.6289,-4.6289,-4.6289,-4.6289,-4.6289,-4.6289,-4.6289,-4.6289,-4.6289,-4.6289,-4.6289,-4.6289,-4.6289,-4.6289,-4.6269,-4.6191,-4.6055,-4.5985,-4.5909,-4.6075,-4.5987,-4.6415,-4.6984,-4.7239,-4.7356,-4.7451,-4.756,-4.7793,-4.7568,-4.6967,-4.6783,-4.7027,-4.7572,-4.8258,-4.8994,-4.9767,-5.0445,-5.0988,-4.5594,-4.5594,-4.5594,-4.5594,-4.5594,-4.5594,-4.5594,-4.5522,-4.5262,-4.4977,-4.4849,-4.4806,-4.4908,-4.5107,-4.5448,-4.5419,-4.5118,-4.4908,-4.4535,-4.4013,-4.382,-4.3627,-4.3512,-4.3479,-4.3479,-4.3387,-4.3184,-4.2928,-4.2509,-4.2076,-4.1723,-4.1391,-4.1953,-4.2104,-4.1354,-4.172,-4.1492,-4.0931,-4.0114,-3.9439,-3.9125,-3.8961,-3.8833,-3.8726,-3.8744,-3.8982,-3.9276,-3.9386,-3.9772,-4.0402,-4.0444,-4.0879,-4.1625,-4.2179,-4.2728,-4.3723,-4.3827,-4.4041,-4.4433,-4.4785,-4.5195,-4.5644,-4.6074,-4.625,-4.625,-4.6075,-4.5899,-4.5899,-4.5715,-4.5715,-4.5857,-4.5894,-4.605,-4.6191,-4.6289,-4.6289,-4.6289,-4.6289,-4.6289,-4.6289,-4.6289,-4.6289,-4.6289,-4.6289,-4.6289,-4.6289,-4.6289,-4.6289,-4.6289,-4.6289,-4.6289,-4.6289,-4.6191,-4.6082,-4.603,-4.5983,-4.6473,-4.6556,-4.6814,-4.7393,-4.802,-4.8257,-4.8331,-4.8183,-4.812,-4.774,-4.721,-4.7437,-4.7875,-4.8513,-4.9188,-4.978,-5.0337,-5.0698,-5.1152,-4.5594,-4.5594,-4.5594,-4.5594,-4.5594,-4.5594,-4.5594,-4.5559,-4.514,-4.4837,-4.4637,-4.4527,-4.4625,-4.4977,-4.5243,-4.5192,-4.4806,-4.4657,-4.4308,-4.3912,-4.3646,-4.3531,-4.3479,-4.3479,-4.3479,-4.3479,-4.3424,-4.3332,-4.3236,-4.2928,-4.2423,-4.1852,-4.2766,-4.2778,-4.2407,-4.2089,-4.1743,-4.0479,-3.9896,-3.9522,-3.9365,-3.9411,-3.9396,-3.9368,-3.9368,-3.9588,-4.0084,-4.0194,-4.0598,-4.1266,-4.15,-4.1832,-4.2474,-4.3132,-4.3713,-4.4562,-4.4879,-4.5215,-4.5293,-4.5449,-4.5703,-4.6055,-4.6289,-4.6269,-4.6191,-4.6014,-4.5891,-4.5862,-4.572,-4.5736,-4.5846,-4.5899,-4.6042,-4.6172,-4.6289,-4.6289,-4.6289,-4.6289,-4.6289,-4.6289,-4.6289,-4.6289,-4.6289,-4.6289,-4.6289,-4.6289,-4.6289,-4.6289,-4.6289,-4.6289,-4.6289,-4.6289,-4.6191,-4.613,-4.6128,-4.6222,-4.6696,-4.7216,-4.7481,-4.7992,-4.8734,-4.9091,-4.9184,-4.8952,-4.8671,-4.856,-4.8398,-4.8573,-4.8748,-4.9161,-4.9606,-5.024,-5.0758,-5.106,-5.125,-4.5594,-4.5594,-4.5594,-4.5594,-4.5594,-4.5594,-4.5594,-4.5531,-4.4931,-4.4637,-4.4447,-4.4261,-4.4304,-4.4644,-4.4896,-4.4781,-4.4132,-4.446,-4.4169,-4.3793,-4.3532,-4.3531,-4.3531,-4.3529,-4.3479,-4.3479,-4.3479,-4.3479,-4.3545,-4.3561,-4.3339,-4.3309,-4.361,-4.3407,-4.2862,-4.2229,-4.1411,-4.0453,-4.0072,-4.0081,-4.0142,-4.0354,-4.0726,-4.0765,-4.0857,-4.0967,-4.1003,-4.102,-4.1434,-4.222,-4.2366,-4.2697,-4.3444,-4.4097,-4.4712,-4.503,-4.5586,-4.5859,-4.5918,-4.5957,-4.6172,-4.6269,-4.6289,-4.6248,-4.6147,-4.6018,-4.5901,-4.5814,-4.5685,-4.5713,-4.5834,-4.592,-4.6033,-4.6172,-4.6269,-4.6289,-4.6289,-4.6289,-4.6289,-4.6289,-4.6289,-4.6289,-4.6289,-4.6289,-4.6289,-4.6289,-4.6289,-4.6289,-4.6289,-4.6289,-4.6289,-4.6269,-4.6191,-4.6175,-4.6258,-4.6593,-4.7171,-4.7899,-4.8424,-4.8988,-4.9655,-4.9868,-4.9896,-4.9894,-4.966,-4.9618,-4.9548,-4.9497,-4.9502,-4.962,-4.9986,-5.0535,-5.0874,-5.1132,-5.1268,-4.5594,-4.5594,-4.5594,-4.5594,-4.5594,-4.5594,-4.5594,-4.5495,-4.4896,-4.4308,-4.3946,-4.3971,-4.4091,-4.4304,-4.4593,-4.4527,-4.4058,-4.4132,-4.4016,-4.3836,-4.3646,-4.3646,-4.3644,-4.3629,-4.3479,-4.3513,-4.3513,-4.3479,-4.3531,-4.3679,-4.3788,-4.3849,-4.4189,-4.3893,-4.3247,-4.255,-4.1817,-4.1334,-4.0915,-4.0709,-4.0754,-4.0857,-4.1113,-4.1113,-4.1113,-4.1407,-4.1735,-4.1846,-4.2435,-4.3067,-4.3422,-4.3884,-4.4335,-4.5,-4.5313,-4.5402,-4.5886,-4.6019,-4.6117,-4.6191,-4.6289,-4.6289,-4.6289,-4.6245,-4.6101,-4.5974,-4.5886,-4.5777,-4.5688,-4.5696,-4.5796,-4.5896,-4.5978,-4.6142,-4.623,-4.6289,-4.6289,-4.6289,-4.6289,-4.6289,-4.6289,-4.6289,-4.6289,-4.6289,-4.6289,-4.6289,-4.6289,-4.6289,-4.6289,-4.6289,-4.6289,-4.6387,-4.6348,-4.6591,-4.6711,-4.717,-4.7689,-4.8458,-4.9254,-4.9773,-5.0245,-5.0383,-5.0417,-5.0502,-5.0492,-5.0266,-5.0144,-5.0192,-5.0202,-5.0173,-5.0351,-5.0708,-5.0992,-5.1177,-5.1289,-4.5594,-4.5594,-4.5594,-4.5594,-4.5594,-4.5594,-4.555,-4.5352,-4.4842,-4.4198,-4.3549,-4.374,-4.3849,-4.3955,-4.4219,-4.4209,-4.3986,-4.4058,-4.4091,-4.4001,-4.3927,-4.3958,-4.4035,-4.4004,-4.3931,-4.3825,-4.3679,-4.3679,-4.3679,-4.3546,-4.3607,-4.3933,-4.439,-4.4108,-4.3851,-4.3077,-4.2664,-4.2134,-4.1709,-4.1324,-4.1394,-4.1586,-4.1645,-4.1664,-4.1683,-4.1865,-4.223,-4.2393,-4.2884,-4.3649,-4.4255,-4.4721,-4.517,-4.555,-4.5783,-4.588,-4.5896,-4.5894,-4.5967,-4.6094,-4.623,-4.6211,-4.623,-4.6163,-4.604,-4.5914,-4.5838,-4.5728,-4.566,-4.5668,-4.5783,-4.5866,-4.5963,-4.6113,-4.623,-4.6289,-4.6289,-4.6289,-4.6289,-4.6289,-4.6289,-4.6289,-4.6289,-4.6289,-4.6289,-4.6289,-4.6289,-4.6289,-4.6289,-4.6289,-4.6289,-4.6426,-4.6582,-4.6912,-4.7301,-4.7954,-4.8596,-4.8967,-4.9698,-5.0229,-5.0628,-5.0713,-5.0738,-5.0743,-5.0708,-5.0701,-5.0616,-5.0481,-5.0539,-5.0635,-5.0764,-5.0875,-5.0994,-5.1161,-5.1265,-4.5594,-4.5594,-4.5594,-4.5594,-4.5594,-4.5594,-4.5448,-4.5129,-4.472,-4.4169,-4.3548,-4.3546,-4.3546,-4.3612,-4.3912,-4.3852,-4.3807,-4.4165,-4.435,-4.4146,-4.4294,-4.4487,-4.4527,-4.4487,-4.4337,-4.4433,-4.4165,-4.3912,-4.3943,-4.3629,-4.3563,-4.3631,-4.394,-4.4158,-4.4363,-4.3348,-4.2257,-4.1368,-4.1433,-4.1669,-4.1977,-4.2213,-4.2262,-4.2393,-4.2375,-4.2484,-4.2686,-4.2759,-4.3239,-4.4002,-4.4387,-4.4787,-4.5185,-4.556,-4.5769,-4.5803,-4.585,-4.5891,-4.5903,-4.6033,-4.6082,-4.6117,-4.614,-4.6021,-4.5883,-4.5809,-4.5769,-4.5673,-4.5612,-4.5665,-4.5764,-4.5861,-4.5963,-4.6074,-4.6211,-4.6289,-4.6289,-4.6289,-4.6289,-4.6289,-4.6289,-4.6289,-4.6289,-4.6289,-4.6289,-4.6289,-4.6289,-4.6328,-4.6406,-4.6543,-4.6621,-4.6992,-4.7258,-4.7616,-4.814,-4.8885,-4.9463,-4.9772,-5.0082,-5.0548,-5.0765,-5.075,-5.0814,-5.0882,-5.0819,-5.0712,-5.0683,-5.0664,-5.0721,-5.0739,-5.083,-5.0925,-5.1044,-5.1144,-5.1258,-4.5594,-4.5594,-4.5594,-4.5594,-4.5594,-4.5594,-4.541,-4.5022,-4.4482,-4.3927,-4.3563,-4.3479,-4.3479,-4.3529,-4.3597,-4.3647,-4.3664,-4.3912,-4.4102,-4.4428,-4.4593,-4.4751,-4.4825,-4.4757,-4.4644,-4.4501,-4.4237,-4.4046,-4.3986,-4.3662,-4.3531,-4.3546,-4.3543,-4.3833,-4.3835,-4.3252,-4.2432,-4.2158,-4.1921,-4.1772,-4.1968,-4.2101,-4.2302,-4.2635,-4.2655,-4.2826,-4.3087,-4.3087,-4.3555,-4.4214,-4.458,-4.4853,-4.5273,-4.5653,-4.5653,-4.5673,-4.5694,-4.5757,-4.5808,-4.5896,-4.5982,-4.6011,-4.6014,-4.5924,-4.5809,-4.5803,-4.5737,-4.5643,-4.5603,-4.5673,-4.5783,-4.5861,-4.5963,-4.6084,-4.6211,-4.6269,-4.6289,-4.6289,-4.6289,-4.6289,-4.6289,-4.6289,-4.6289,-4.6308,-4.6308,-4.6387,-4.6406,-4.6721,-4.6875,-4.7109,-4.7285,-4.7812,-4.8185,-4.8487,-4.8943,-4.9497,-4.9973,-5.0291,-5.0449,-5.0697,-5.0811,-5.0782,-5.0811,-5.0859,-5.0771,-5.0693,-5.0721,-5.074,-5.0775,-5.0833,-5.0886,-5.0972,-5.1079,-5.1158,-5.1258,-4.5594,-4.5594,-4.5594,-4.5594,-4.5594,-4.5594,-4.5352,-4.4842,-4.4161,-4.3693,-4.3531,-4.3479,-4.3479,-4.3479,-4.3496,-4.3631,-4.3695,-4.4065,-4.4414,-4.4745,-4.4919,-4.5096,-4.514,-4.5044,-4.5055,-4.4806,-4.4474,-4.4237,-4.4223,-4.3726,-4.3531,-4.3427,-4.316,-4.3282,-4.3351,-4.3122,-4.2661,-4.234,-4.1976,-4.1555,-4.174,-4.1895,-4.2018,-4.2322,-4.2559,-4.2827,-4.3142,-4.344,-4.3765,-4.4354,-4.4769,-4.5011,-4.5429,-4.5594,-4.5594,-4.5594,-4.5612,-4.568,-4.5763,-4.572,-4.5832,-4.5942,-4.5906,-4.583,-4.5749,-4.5723,-4.5688,-4.5618,-4.5603,-4.5677,-4.5803,-4.5876,-4.5967,-4.6084,-4.6211,-4.6269,-4.6289,-4.6289,-4.6289,-4.6289,-4.6289,-4.6289,-4.6247,-4.6308,-4.6328,-4.6426,-4.6543,-4.6978,-4.7432,-4.7696,-4.7986,-4.8483,-4.8903,-4.9138,-4.9458,-4.986,-5.0333,-5.0761,-5.0839,-5.083,-5.0791,-5.0738,-5.0786,-5.0848,-5.0803,-5.0791,-5.0775,-5.0793,-5.0799,-5.0859,-5.0952,-5.1031,-5.1096,-5.1174,-5.1267,-4.5594,-4.5594,-4.5594,-4.5594,-4.5594,-4.5522,-4.5161,-4.4553,-4.3839,-4.3513,-4.3479,-4.3479,-4.3479,-4.3479,-4.3479,-4.3629,-4.3924,-4.4337,-4.467,-4.5022,-4.5243,-4.5438,-4.5504,-4.5448,-4.5312,-4.5192,-4.4865,-4.4308,-4.4414,-4.3673,-4.3356,-4.3267,-4.2676,-4.2922,-4.3142,-4.3069,-4.2732,-4.2422,-4.1835,-4.1512,-4.1556,-4.1768,-4.1853,-4.2101,-4.242,-4.2751,-4.3032,-4.328,-4.3835,-4.4404,-4.4877,-4.5232,-4.5466,-4.5586,-4.5594,-4.5594,-4.5594,-4.5661,-4.5718,-4.5657,-4.5669,-4.5783,-4.579,-4.5703,-4.5665,-4.5643,-4.5624,-4.5635,-4.5627,-4.5718,-4.5815,-4.5891,-4.5951,-4.6089,-4.6225,-4.6269,-4.6289,-4.6289,-4.6289,-4.6289,-4.6289,-4.6269,-4.6211,-4.6236,-4.6711,-4.6957,-4.7229,-4.7782,-4.8195,-4.8437,-4.8744,-4.9142,-4.9494,-4.9726,-5.0034,-5.0332,-5.054,-5.0918,-5.083,-5.0789,-5.0747,-5.0747,-5.078,-5.0844,-5.0879,-5.089,-5.0855,-5.0814,-5.0816,-5.0894,-5.1014,-5.1069,-5.1158,-5.1199,-5.1289,-4.5594,-4.5594,-4.5594,-4.5594,-4.5522,-4.5077,-4.4776,-4.4501,-4.3823,-4.3479,-4.3479,-4.3479,-4.3479,-4.3479,-4.3479,-4.3563,-4.3868,-4.4237,-4.454,-4.4919,-4.5312,-4.5513,-4.5504,-4.5352,-4.5292,-4.5011,-4.4625,-4.4204,-4.3979,-4.3388,-4.3232,-4.3286,-4.2638,-4.2902,-4.305,-4.2976,-4.2826,-4.2519,-4.1877,-4.1534,-4.1468,-4.1686,-4.1789,-4.2059,-4.248,-4.2846,-4.3213,-4.3552,-4.4113,-4.4521,-4.4919,-4.5243,-4.5549,-4.5594,-4.5594,-4.5594,-4.5594,-4.561,-4.5651,-4.561,-4.5618,-4.5657,-4.5653,-4.564,-4.5612,-4.5612,-4.5616,-4.5632,-4.5632,-4.5703,-4.5844,-4.5927,-4.6017,-4.6173,-4.6269,-4.6289,-4.6289,-4.6289,-4.6308,-4.6328,-4.6328,-4.6445,-4.6348,-4.6822,-4.7285,-4.7551,-4.7981,-4.8555,-4.9002,-4.927,-4.9506,-4.9885,-5.0105,-5.0344,-5.0522,-5.0791,-5.0894,-5.0997,-5.0901,-5.0844,-5.0889,-5.0882,-5.0847,-5.0859,-5.0933,-5.0939,-5.0894,-5.0879,-5.0894,-5.1002,-5.1116,-5.1158,-5.1201,-5.1247,-5.1308,-4.5594,-4.5594,-4.5594,-4.5594,-4.5495,-4.4896,-4.4593,-4.446,-4.3823,-4.3479,-4.3479,-4.3479,-4.3479,-4.3479,-4.3496,-4.3597,-4.3788,-4.4308,-4.4606,-4.4776,-4.5159,-4.5191,-4.515,-4.5022,-4.4931,-4.4682,-4.4401,-4.4061,-4.3765,-4.3247,-4.2976,-4.3392,-4.279,-4.294,-4.3124,-4.3014,-4.2884,-4.2675,-4.2284,-4.1686,-4.1621,-4.1814,-4.208,-4.2262,-4.2713,-4.3142,-4.3512,-4.3912,-4.435,-4.4606,-4.4919,-4.5161,-4.5342,-4.5283,-4.5303,-4.5293,-4.5371,-4.5466,-4.5566,-4.5612,-4.5594,-4.5594,-4.5594,-4.5594,-4.5603,-4.5603,-4.5624,-4.5657,-4.5657,-4.5681,-4.5839,-4.5985,-4.6119,-4.6268,-4.6289,-4.6289,-4.6289,-4.6289,-4.6308,-4.6348,-4.6465,-4.6641,-4.6925,-4.745,-4.7994,-4.8455,-4.8932,-4.9437,-4.9897,-5.0218,-5.0399,-5.0646,-5.0794,-5.0964,-5.1079,-5.1063,-5.1063,-5.1042,-5.0945,-5.0932,-5.1002,-5.0997,-5.0908,-5.0933,-5.1011,-5.0994,-5.0984,-5.0997,-5.1008,-5.1111,-5.1187,-5.1223,-5.1268,-5.1322,-5.1367,-4.5479,-4.5441,-4.5421,-4.5325,-4.5389,-4.4744,-4.4479,-4.4501,-4.3823,-4.3479,-4.3479,-4.3479,-4.3479,-4.3479,-4.3496,-4.3647,-4.3868,-4.4252,-4.4428,-4.4585,-4.4884,-4.4954,-4.4769,-4.4567,-4.4535,-4.4401,-4.418,-4.3849,-4.3703,-4.3212,-4.2958,-4.341,-4.2542,-4.258,-4.3286,-4.3087,-4.305,-4.3142,-4.2676,-4.2103,-4.2121,-4.2382,-4.2732,-4.2732,-4.3087,-4.3496,-4.3679,-4.4065,-4.458,-4.467,-4.4853,-4.5066,-4.4966,-4.4872,-4.4896,-4.4988,-4.5118,-4.5273,-4.5448,-4.5531,-4.5586,-4.5594,-4.5594,-4.5594,-4.5594,-4.5594,-4.5627,-4.5685,-4.57,-4.5783,-4.5918,-4.6014,-4.6115,-4.623,-4.6289,-4.6289,-4.6289,-4.6367,-4.6484,-4.6601,-4.6931,-4.7141,-4.7551,-4.8085,-4.8686,-4.929,-4.985,-5.0314,-5.0549,-5.0906,-5.1016,-5.1157,-5.1188,-5.1205,-5.1164,-5.114,-5.1128,-5.1094,-5.1008,-5.0991,-5.1053,-5.1033,-5.0966,-5.1002,-5.1059,-5.1107,-5.1111,-5.1102,-5.1096,-5.1158,-5.1225,-5.127,-5.1328,-5.1387,-5.1387,-4.4613,-4.4528,-4.3951,-4.4028,-4.4505,-4.3904,-4.3995,-4.4508,-4.3823,-4.346,-4.3479,-4.3461,-4.3479,-4.3479,-4.3479,-4.358,-4.3712,-4.4031,-4.4117,-4.428,-4.454,-4.4618,-4.4501,-4.4252,-4.4161,-4.4031,-4.3818,-4.3662,-4.3526,-4.3142,-4.2958,-4.3375,-4.2771,-4.2902,-4.3427,-4.3232,-4.3321,-4.3444,-4.3196,-4.2696,-4.258,-4.2865,-4.3178,-4.305,-4.3196,-4.3462,-4.3728,-4.4169,-4.4294,-4.4304,-4.4818,-4.4908,-4.472,-4.4618,-4.4631,-4.4732,-4.4908,-4.5055,-4.5263,-4.5429,-4.5531,-4.5586,-4.5594,-4.5594,-4.5594,-4.5594,-4.5627,-4.5692,-4.579,-4.589,-4.5979,-4.6027,-4.6113,-4.6211,-4.6308,-4.6308,-4.6328,-4.6504,-4.666,-4.7051,-4.7422,-4.7858,-4.8273,-4.8793,-4.9367,-4.9965,-5.0564,-5.0953,-5.0974,-5.1167,-5.114,-5.1242,-5.1318,-5.1318,-5.1267,-5.1234,-5.1238,-5.1196,-5.1117,-5.1105,-5.1084,-5.1044,-5.102,-5.1053,-5.1084,-5.1137,-5.1161,-5.118,-5.1196,-5.1236,-5.1269,-5.1328,-5.1348,-5.1387,-5.1387,-4.3778,-4.3701,-4.3297,-4.3355,-4.3595,-4.305,-4.3039,-4.3356,-4.3103,-4.2745,-4.2635,-4.3112,-4.3479,-4.3479,-4.3479,-4.3479,-4.3546,-4.3849,-4.3865,-4.3943,-4.4125,-4.4169,-4.4065,-4.3912,-4.3836,-4.3693,-4.3595,-4.3496,-4.3427,-4.3339,-4.3286,-4.3427,-4.3178,-4.3178,-4.3479,-4.3479,-4.3479,-4.3479,-4.3479,-4.3303,-4.2995,-4.3268,-4.3391,-4.3232,-4.3286,-4.3479,-4.3662,-4.405,-4.4121,-4.4087,-4.4395,-4.4332,-4.4165,-4.405,-4.4184,-4.4304,-4.4489,-4.475,-4.5022,-4.5263,-4.5457,-4.5531,-4.5594,-4.5594,-4.5594,-4.5594,-4.5603,-4.5673,-4.5761,-4.5867,-4.5959,-4.6021,-4.6142,-4.625,-4.6387,-4.6445,-4.6758,-4.709,-4.7461,-4.7949,-4.839,-4.8911,-4.9356,-4.9834,-5.0315,-5.0493,-5.1115,-5.1222,-5.1295,-5.1319,-5.1319,-5.132,-5.1365,-5.1386,-5.1343,-5.1342,-5.1342,-5.1295,-5.124,-5.1161,-5.1107,-5.1074,-5.1069,-5.1084,-5.1111,-5.1158,-5.1191,-5.1236,-5.1291,-5.132,-5.1348,-5.1387,-5.1387,-5.1387,-5.1387,-4.2854,-4.2777,-4.2739,-4.2835,-4.2825,-4.2215,-4.2039,-4.2152,-4.2122,-4.1774,-4.1497,-4.2727,-4.3259,-4.3332,-4.3479,-4.3479,-4.3563,-4.3724,-4.3695,-4.3679,-4.382,-4.3836,-4.3728,-4.3529,-4.3546,-4.3546,-4.3496,-4.3479,-4.3479,-4.341,-4.341,-4.3479,-4.3479,-4.3479,-4.3479,-4.3479,-4.3479,-4.3479,-4.3479,-4.3479,-4.3462,-4.3479,-4.3462,-4.3462,-4.3479,-4.3479,-4.3595,-4.3772,-4.3971,-4.394,-4.394,-4.3852,-4.3658,-4.3543,-4.3691,-4.3846,-4.3896,-4.4331,-4.4818,-4.5085,-4.5322,-4.5495,-4.5568,-4.5594,-4.5594,-4.5594,-4.5603,-4.5632,-4.5752,-4.5828,-4.5915,-4.6027,-4.6147,-4.6308,-4.6426,-4.6699,-4.7168,-4.7617,-4.8105,-4.8649,-4.9282,-4.9825,-5.0298,-5.078,-5.0981,-5.1154,-5.126,-5.1317,-5.1364,-5.1344,-5.1343,-5.1343,-5.1365,-5.1386,-5.1386,-5.1387,-5.1387,-5.1386,-5.1295,-5.1219,-5.1126,-5.1011,-5.0994,-5.1108,-5.1128,-5.1164,-5.1256,-5.1318,-5.1365,-5.1387,-5.1387,-5.1387,-5.1387,-5.1387,-5.1387,-4.1623,-4.0997,-4.0997,-4.1393,-4.1876,-4.1331,-4.1442,-4.1926,-4.1511,-4.1205,-4.1279,-4.1937,-4.2525,-4.258,-4.3276,-4.3496,-4.3513,-4.3629,-4.3597,-4.3546,-4.3612,-4.3563,-4.3513,-4.3479,-4.3479,-4.3479,-4.3479,-4.3479,-4.3479,-4.3479,-4.3479,-4.3479,-4.3479,-4.3479,-4.3479,-4.3479,-4.3479,-4.3479,-4.3479,-4.3479,-4.3479,-4.3479,-4.3479,-4.3479,-4.3479,-4.3479,-4.358,-4.3818,-4.3788,-4.3695,-4.358,-4.3495,-4.3267,-4.3032,-4.3123,-4.3282,-4.3347,-4.3874,-4.4347,-4.4834,-4.515,-4.5531,-4.5594,-4.5594,-4.5594,-4.5594,-4.5603,-4.561,-4.57,-4.5782,-4.5869,-4.6004,-4.6136,-4.6293,-4.6445,-4.7051,-4.7598,-4.7949,-4.834,-4.9112,-4.9911,-5.0384,-5.0818,-5.1107,-5.1176,-5.1295,-5.1318,-5.1367,-5.1387,-5.1367,-5.1367,-5.1344,-5.1343,-5.1386,-5.1387,-5.1387,-5.1387,-5.1387,-5.1363,-5.1235,-5.1084,-5.0859,-5.0894,-5.1047,-5.1135,-5.1167,-5.1269,-5.1367,-5.1387,-5.1387,-5.1387,-5.1387,-5.1387,-5.1445,-5.1484]},{"header":{"parameterUnit":"m.s-1","parameterCategory":1,"la1":31.0,"la2":29.5877,"lo1":-88.7671,"lo2":-86.6584,"dy":0.0162,"dx":0.0185,"nx":115,"ny":88,"refTime":"2026-02-17T12:00:00:Z","depth":0,"parameterNumber":3,"parameterNumberName":"V-component_of_WINDS"},"data":[0.0,0.0,0.0,0.0,0.0,0.0,0.0,0.0,0.0,0.0,0.0,0.0,0.0,0.0,0.0,0.0,0.0,0.0,0.0,0.0,0.0,0.0,0.0,0.0,0.0,0.0,0.0,0.0,0.0,0.0,0.0,0.0,0.0,0.0,0.0,0.0,0.0,0.0,0.0,0.0,0.0,0.0,0.0,0.0,0.0,0.0,0.0,0.0,0.0,0.0,0.0,0.0,0.0,0.0,0.0,0.0,0.0,0.0,0.0,0.0,0.0,0.0,0.0,0.0,0.0,0.0,0.0,0.0,0.0,0.0,0.0,0.0,0.0,0.0,0.0,0.0,0.0,0.0,0.0,0.0,0.0,0.0,0.0,0.0,0.0,0.0,0.0,0.0,0.0,0.0,0.0,0.0,0.0,0.0,0.0,0.0,0.0,0.0,0.0,0.0,0.0,0.0,0.0,0.0,0.0,0.0,0.0,0.0,0.0,0.0,0.0,0.0,0.0,0.0,0.0,0.0,0.0,0.0,0.0,0.0,0.0,0.0,0.0,0.0,0.0,0.0,0.0,0.0,0.0,0.0,0.0,0.0,0.0,0.0,0.0,0.0,0.0,0.0,0.0,0.0,0.0,0.0,0.0,0.0,0.0,0.0,0.0,0.0,0.0,0.0,0.0,0.0,0.0,0.0,0.0,0.0,0.0,0.0,0.0,0.0,0.0,0.0,0.0,0.0,0.0,0.0,0.0,0.0,0.0,0.0,0.0,0.0,0.0,0.0,0.0,0.0,0.0,0.0,0.0,0.0,0.0,0.0,0.0,0.0,0.0,0.0,0.0,0.0,0.0,0.0,0.0,0.0,0.0,0.0,0.0,0.0,0.0,0.0,0.0,0.0,0.0,0.0,0.0,0.0,0.0,0.0,0.0,0.0,0.0,0.0,0.0,0.0,0.0,0.0,0.0,0.0,0.0,0.0,0.0,0.0,0.0,0.0,0.0,0.0,0.0,0.0,0.0,0.0,0.0,0.0,0.0,0.0,0.0,0.0,0.0,0.0,0.0,0.0,0.0,0.0,0.0,0.0,0.0,0.0,0.0,0.0,0.0,0.0,0.0,0.0,0.0,0.0,0.0,0.0,0.0,0.0,0.0,0.0,0.0,0.0,0.0,0.0,0.0,0.0,0.0,0.0,0.0,0.0,0.0,0.0,0.0,0.0,0.0,0.0,0.0,0.0,0.0,0.0,0.0,0.0,0.0,0.0,0.0,0.0,0.0,0.0,0.0,0.0,0.0,0.0,0.0,0.0,0.0,0.0,0.0,0.0,0.0,0.0,0.0,0.0,0.0,0.0,0.0,0.0,0.0,0.0,0.0,0.0,0.0,0.0,0.0,0.0,0.0,0.0,0.0,0.0,0.0,0.0,0.0,0.0,0.0,0.0,0.0,0.0,0.0,0.0,0.0,0.0,0.0,0.0,0.0,0.0,0.0,0.0,0.0,0.0,0.0,0.0,0.0,0.0,0.0,0.0,0.0,0.0,0.0,0.0,0.0,0.0,0.0,0.0,0.0,0.0,0.0,0.0,0.0,0.0,0.0,0.0,0.0,0.0,0.0,0.0,0.0,0.0,0.0,0.0,0.0,0.0,0.0,0.0,0.0,0.0,0.0,0.0,0.0,0.0,0.0,0.0,0.0,0.0,0.0,0.0,0.0,0.0,0.0,0.0,0.0,0.0,0.0,0.0,0.0,0.0,0.0,0.0,0.0,0.0,0.0,0.0,0.0,0.0,0.0,0.0,0.0,0.0,0.0,0.0,0.0,0.0,0.0,0.0,0.0,0.0,0.0,0.0,0.0,0.0,0.0,0.0,0.0,0.0,0.0,0.0,0.0,0.0,0.0,0.0,0.0,0.0,0.0,0.0,0.0,0.0,0.0,0.0,0.0,0.0,0.0,0.0,0.0,0.0,0.0,0.0,0.0,0.0,0.0,0.0,0.0,0.0,0.0,0.0,0.0,0.0,0.0,0.0,0.0,0.0,0.0,0.0,0.0,0.0,0.0,0.0,0.0,0.0,0.0,0.0,0.0,0.0,0.0,0.0,0.0,0.0,0.0,0.0,0.0,0.0,0.0,0.0,0.0,0.0,0.0,0.0,0.0,0.0,0.0,0.0,0.0,0.0,0.0,0.0,0.0,0.0,0.0,0.0,0.0,0.0,0.0,0.0,0.0,0.0,0.0,0.0,0.0,0.0,0.0,0.0,0.0,0.0,0.0,0.0,0.0,0.0,0.0,0.0,0.0,0.0,0.0,0.0,0.0,0.0,0.0,0.0,0.0,0.0,0.0,0.0,0.0,0.0,0.0,0.0,0.0,0.0,0.0,0.0,0.0,0.0,0.0,0.0,0.0,0.0,0.0,0.0,0.0,0.0,0.0,0.0,0.0,0.0,0.0,0.0,0.0,0.0,0.0,0.0,0.0,0.0,0.0,0.0,0.0,0.0,0.0,0.0,0.0,0.0,0.0,0.0,0.0,0.0,0.0,0.0,0.0,0.0,0.0,0.0,0.0,0.0,0.0,0.0,0.0,0.0,0.0,0.0,0.0,0.0,0.0,0.0,0.0,0.0,0.0,0.0,0.0,0.0,0.0,0.0,0.0,0.0,0.0,0.0,0.0,0.0,0.0,0.0,0.0,0.0,0.0,0.0,0.0,0.0,0.0,0.0,0.0,0.0,0.0,0.0,0.0,0.0,0.0,0.0,0.0,0.0,0.0,0.0,0.0,0.0,0.0,0.0,0.0,0.0,0.0,0.0,0.0,0.0,0.0,0.0,0.0,0.0,0.0,0.0,0.0,0.0,0.0,0.0,0.0,0.0,0.0,0.0,0.0,0.0,0.0,0.0,0.0,0.0,0.0,0.0,0.0,0.0,0.0,0.0,0.0,0.0,0.0,0.0,0.0,0.0,0.0,0.0,0.0,0.0,0.0,0.0,0.0,0.0,0.0,0.0,0.0,0.0,0.0,0.0,0.0,0.0,0.0,0.0,0.0,0.0,0.0,0.0,0.0,0.0,0.0,0.0,0.0,0.0,0.0,0.0,0.0,0.0,0.0,0.0,0.0,0.0,0.0,0.0,0.0,0.0,0.0,0.0,0.0,0.0,0.0,0.0,0.0,0.0,0.0,0.0,0.0,0.0,0.0,0.0,0.0,0.0,0.0,0.0,0.0,0.0,0.0,0.0,0.0,0.0,0.0,0.0,0.0,0.0,0.0,0.0,0.0,0.0,0.0,0.0,0.0,0.0,0.0,0.0,0.0,0.0,0.0,0.0,0.0,0.0,0.0,0.0,0.0,0.0,0.0,0.0,0.0,0.0,0.0,0.0,0.0,0.0,0.0,0.0,0.0,0.0,0.0,0.0,0.0,0.0,0.0,0.0,0.0,0.0,0.0,0.0,0.0,0.0,0.0,0.0,0.0,0.0,0.0,0.0,0.0,0.0,0.0,0.0,0.0,0.0,0.0,0.0,0.0,0.0,0.0,0.0,0.0,0.0,0.0,0.0,0.0,0.0,0.0,0.0,0.0,0.0,0.0,0.0,0.0,0.0,0.0,0.0,0.0,0.0,0.0,0.0,0.0,0.0,0.0,0.0,0.0,0.0,0.0,0.0,0.0,0.0,0.0,0.0,0.0,0.0,0.0,0.0,0.0,0.0,0.0,0.0,0.0,0.0,0.0,0.0,0.0,0.0,0.0,0.0,0.0,0.0,0.0,0.0,0.0,0.0,0.0,0.0,0.0,0.0,0.0,0.0,0.0,0.0,0.0,0.0,0.0,0.0,0.0,0.0,0.0,0.0,0.0,0.0,0.0,0.0,0.0,0.0,0.0,0.0,0.0,0.0,0.0,0.0,0.0,0.0,0.0,0.0,0.0,0.0,0.0,0.0,0.0,0.0,0.0,0.0,0.0,0.0,0.0,0.0,0.0,0.0,0.0,0.0,0.0,0.0,0.0,0.0,0.0,0.0,0.0,0.0,0.0,0.0,0.0,0.0,0.0,0.0,0.0,0.0,0.0,0.0,0.0,0.0,0.0,0.0,0.0,0.0,0.0,0.0,0.0,0.0,0.0,0.0,0.0,0.0,0.0,0.0,0.0,0.0,0.0,0.0,0.0,0.0,0.0,0.0,0.0,0.0,0.0,0.0,0.0,0.0,0.0,0.0,0.0,0.0,0.0,0.0,0.0,0.0,0.0,0.0,0.0,0.0,0.0,0.0,0.0,0.0,0.0,0.0,0.0,0.0,0.0,0.0,-0.8904,0.0,0.0,0.0,0.0,0.0,0.0,0.0,0.0,0.0,0.0,0.0,0.0,0.0,0.0,0.0,0.0,0.0,0.0,0.0,0.0,0.0,0.0,0.0,0.0,0.0,0.0,0.0,0.0,0.0,0.0,0.0,0.0,0.0,0.0,0.0,0.0,0.0,0.0,0.0,0.0,0.0,0.0,0.0,0.0,0.0,0.0,0.0,0.0,0.0,0.0,0.0,0.0,0.0,0.0,0.0,0.0,0.0,0.0,0.0,0.0,0.0,0.0,0.0,0.0,0.0,0.0,0.0,0.0,0.0,0.0,0.0,0.0,0.0,0.0,0.0,0.0,0.0,0.0,0.0,0.0,0.0,0.0,0.0,0.0,0.0,0.0,0.0,0.0,0.0,0.0,0.0,0.0,0.0,0.0,0.0,0.0,0.0,0.0,0.0,0.0,0.0,0.0,0.0,0.0,0.0,0.0,0.0,0.0,0.0,0.0,-1.2144,-1.2291,-1.2053,-1.1153,-0.9608,0.0,0.0,0.0,0.0,0.0,0.0,0.0,0.0,0.0,0.0,0.0,0.0,0.0,0.0,0.0,0.0,0.0,0.0,0.0,0.0,0.0,0.0,0.0,0.0,0.0,0.0,0.0,0.0,0.0,0.0,0.0,0.0,0.0,0.0,0.0,0.0,0.0,0.0,0.0,0.0,0.0,0.0,0.0,0.0,0.0,0.0,0.0,0.0,0.0,0.0,0.0,0.0,0.0,0.0,0.0,0.0,0.0,0.0,0.0,0.0,0.0,0.0,0.0,0.0,0.0,0.0,0.0,0.0,0.0,0.0,0.0,0.0,0.0,0.0,0.0,0.0,0.0,0.0,0.0,0.0,0.0,0.0,0.0,0.0,0.0,0.0,0.0,0.0,0.0,0.0,0.0,0.0,0.0,0.0,0.0,0.0,0.0,0.0,0.0,0.0,0.0,0.0,0.0,0.0,0.0,0.0,0.0,0.0,0.0,0.0,0.0,0.0,-1.178,-1.1354,-1.0551,0.0,0.0,0.0,0.0,0.0,0.0,0.0,0.0,0.0,0.0,0.0,0.0,0.0,0.0,0.0,0.0,0.0,0.0,0.0,0.0,0.0,0.0,0.0,0.0,0.0,0.0,0.0,0.0,0.0,0.0,0.0,0.0,0.0,0.0,0.0,0.0,0.0,0.0,0.0,0.0,0.0,0.0,0.0,0.0,0.0,0.0,0.0,0.0,0.0,0.0,0.0,0.0,0.0,0.0,0.0,0.0,0.0,0.0,0.0,0.0,0.0,0.0,0.0,0.0,0.0,0.0,0.0,0.0,0.0,0.0,0.0,0.0,0.0,0.0,0.0,0.0,0.0,0.0,0.0,0.0,0.0,0.0,0.0,0.0,0.0,0.0,0.0,0.0,0.0,0.0,0.0,0.0,0.0,0.0,0.0,0.0,0.0,0.0,0.0,0.0,0.0,0.0,0.0,0.0,0.0,0.0,0.0,0.0,0.0,0.0,-1.0603,-1.0752,-1.1082,0.0,-1.1644,0.0,0.0,0.0,0.0,0.0,0.0,0.0,0.0,0.0,0.0,0.0,0.0,0.0,0.0,0.0,0.0,0.0,0.0,0.0,0.0,0.0,0.0,0.0,0.0,0.0,0.0,0.0,0.0,0.0,0.0,0.0,0.0,0.0,0.0,0.0,0.0,0.0,0.0,0.0,0.0,0.0,0.0,0.0,0.0,0.0,0.0,0.0,0.0,0.0,0.0,0.0,0.0,0.0,0.0,0.0,0.0,0.0,0.0,0.0,0.0,0.0,0.0,0.0,0.0,0.0,0.0,0.0,0.0,0.0,0.0,0.0,0.0,0.0,0.0,0.0,0.0,0.0,0.0,0.0,0.0,0.0,0.0,0.0,0.0,0.0,0.0,0.0,0.0,0.0,0.0,0.0,0.0,0.0,0.0,0.0,0.0,0.0,0.0,0.0,0.0,0.0,0.0,0.0,0.0,0.0,0.0,0.0,0.0,0.0,0.0,0.0,-0.982,-1.0306,-1.0737,0.0,0.0,0.0,0.0,0.0,0.0,0.0,0.0,0.0,0.0,0.0,0.0,0.0,0.0,0.0,0.0,0.0,0.0,0.0,0.0,0.0,0.0,0.0,0.0,0.0,0.0,0.0,0.0,0.0,0.0,0.0,0.0,0.0,0.0,0.0,0.0,0.0,0.0,0.0,0.0,0.0,0.0,0.0,0.0,0.0,0.0,0.0,0.0,0.0,0.0,0.0,0.0,0.0,0.0,0.0,0.0,0.0,0.0,0.0,0.0,0.0,0.0,0.0,0.0,0.0,0.0,0.0,0.0,0.0,0.0,0.0,0.0,0.0,0.0,0.0,0.0,0.0,0.0,0.0,0.0,0.0,0.0,0.0,0.0,0.0,0.0,0.0,0.0,0.0,0.0,0.0,0.0,0.0,0.0,0.0,0.0,0.0,0.0,0.0,0.0,0.0,0.0,0.0,0.0,0.0,0.0,0.0,0.0,0.0,0.0,-0.8806,0.0,-0.9309,-1.0146,-1.0641,-1.0701,0.0,0.0,0.0,0.0,0.0,0.0,0.0,0.0,0.0,0.0,0.0,0.0,0.0,0.0,0.0,0.0,0.0,0.0,0.0,0.0,0.0,0.0,0.0,0.0,0.0,0.0,0.0,0.0,0.0,0.0,0.0,0.0,0.0,0.0,0.0,0.0,0.0,0.0,0.0,0.0,0.0,0.0,0.0,0.0,0.0,0.0,0.0,0.0,0.0,0.0,0.0,0.0,0.0,0.0,0.0,0.0,0.0,0.0,0.0,0.0,0.0,0.0,0.0,0.0,0.0,0.0,0.0,0.0,0.0,0.0,0.0,0.0,0.0,0.0,0.0,0.0,0.0,0.0,0.0,0.0,0.0,0.0,0.0,0.0,0.0,0.0,0.0,0.0,0.0,0.0,0.0,0.0,0.0,0.0,0.0,0.0,0.0,0.0,0.0,0.0,0.0,0.0,0.0,0.0,0.0,0.0,0.0,0.0,0.0,-0.7673,-0.7838,-0.9276,-1.0912,-1.1549,0.0,0.0,0.0,0.0,0.0,0.0,0.0,0.0,0.0,0.0,0.0,0.0,0.0,0.0,0.0,0.0,0.0,0.0,0.0,0.0,0.0,0.0,0.0,0.0,0.0,0.0,0.0,0.0,0.0,0.0,0.0,0.0,0.0,0.0,0.0,0.0,0.0,0.0,0.0,0.0,0.0,0.0,0.0,0.0,0.0,0.0,0.0,0.0,0.0,0.0,0.0,0.0,0.0,0.0,0.0,0.0,0.0,0.0,0.0,0.0,0.0,0.0,0.0,0.0,0.0,0.0,0.0,0.0,0.0,0.0,0.0,0.0,0.0,0.0,0.0,0.0,0.0,0.0,0.0,0.0,0.0,0.0,0.0,0.0,0.0,0.0,0.0,0.0,0.0,0.0,0.0,0.0,0.0,0.0,0.0,0.0,0.0,0.0,0.0,0.0,0.0,0.0,0.0,0.0,0.0,0.0,0.0,0.0,0.0,-0.8214,-0.6952,-0.7216,-0.9185,-0.9373,-0.9817,0.0,0.0,0.0,0.0,0.0,0.0,0.0,0.0,0.0,0.0,0.0,0.0,0.0,0.0,0.0,0.0,0.0,0.0,0.0,0.0,0.0,0.0,0.0,0.0,0.0,0.0,0.0,0.0,0.0,0.0,0.0,0.0,0.0,0.0,0.0,0.0,0.0,0.0,0.0,0.0,0.0,0.0,0.0,0.0,0.0,0.0,0.0,0.0,0.0,0.0,0.0,0.0,0.0,0.0,0.0,0.0,0.0,0.0,0.0,0.0,0.0,0.0,0.0,0.0,0.0,0.0,0.0,0.0,0.0,0.0,0.0,0.0,0.0,0.0,0.0,0.0,0.0,0.0,0.0,0.0,0.0,0.0,0.0,0.0,0.0,0.0,0.0,0.0,0.0,0.0,0.0,0.0,0.0,0.0,0.0,0.0,0.0,0.0,0.0,0.0,0.0,0.0,0.0,0.0,0.0,0.0,0.0,0.0,0.0,-0.7253,0.0,-0.7114,0.0,-0.8632,-0.9006,0.0,0.0,0.0,0.0,0.0,0.0,0.0,0.0,0.0,0.0,0.0,0.0,0.0,0.0,0.0,0.0,0.0,0.0,0.0,0.0,0.0,0.0,0.0,0.0,0.0,0.0,0.0,0.0,0.0,0.0,0.0,0.0,0.0,0.0,0.0,0.0,0.0,0.0,0.0,0.0,0.0,0.0,0.0,0.0,0.0,0.0,0.0,0.0,0.0,0.0,0.0,0.0,0.0,0.0,0.0,0.0,0.0,0.0,0.0,0.0,0.0,0.0,0.0,0.0,0.0,0.0,0.0,0.0,0.0,0.0,0.0,0.0,0.0,0.0,0.0,0.0,0.0,0.0,0.0,0.0,0.0,0.0,0.0,0.0,0.0,0.0,0.0,0.0,0.0,0.0,0.0,0.0,0.0,0.0,0.0,0.0,0.0,0.0,0.0,0.0,0.0,0.0,0.0,0.0,0.0,0.0,0.0,0.0,-0.7076,-0.5779,-0.6717,-0.7457,-0.8025,-0.8868,-0.932,0.0,0.0,0.0,0.0,0.0,0.0,0.0,0.0,0.0,0.0,0.0,0.0,0.0,0.0,0.0,0.0,0.0,0.0,0.0,0.0,0.0,0.0,0.0,0.0,0.0,0.0,0.0,0.0,0.0,0.0,0.0,0.0,0.0,0.0,0.0,0.0,0.0,0.0,0.0,0.0,0.0,0.0,0.0,0.0,0.0,0.0,0.0,0.0,0.0,0.0,0.0,0.0,0.0,0.0,0.0,0.0,0.0,0.0,0.0,0.0,0.0,0.0,0.0,0.0,0.0,0.0,0.0,0.0,0.0,0.0,0.0,0.0,0.0,0.0,0.0,0.0,0.0,0.0,0.0,0.0,0.0,0.0,0.0,0.0,0.0,0.0,0.0,0.0,0.0,0.0,0.0,0.0,0.0,0.0,0.0,0.0,0.0,0.0,0.0,0.0,0.0,0.0,0.0,0.0,0.0,0.0,0.0,0.0,0.0,-0.7054,-0.6518,-0.6791,-0.7781,-0.7457,-0.7877,0.0,0.0,0.0,0.0,0.0,0.0,0.0,0.0,0.0,0.0,0.0,0.0,0.0,0.0,0.0,0.0,0.0,0.0,0.0,0.0,0.0,0.0,0.0,0.0,0.0,0.0,0.0,0.0,0.0,0.0,0.0,0.0,0.0,0.0,0.0,0.0,0.0,0.0,0.0,0.0,0.0,0.0,0.0,0.0,0.0,0.0,0.0,0.0,0.0,0.0,0.0,0.0,0.0,0.0,0.0,0.0,0.0,0.0,0.0,0.0,0.0,0.0,0.0,0.0,0.0,0.0,0.0,0.0,0.0,0.0,0.0,0.0,0.0,0.0,0.0,0.0,0.0,0.0,0.0,0.0,0.0,0.0,0.0,0.0,0.0,0.0,0.0,0.0,0.0,0.0,0.0,0.0,0.0,0.0,0.0,0.0,0.0,0.0,0.0,0.0,0.0,0.0,0.0,0.0,0.0,0.0,0.0,0.0,0.0,-0.7425,-0.6546,-0.6536,-0.7522,-0.6826,-0.7288,-0.8906,0.0,0.0,0.0,0.0,0.0,0.0,0.0,0.0,0.0,0.0,0.0,0.0,0.0,0.0,0.0,0.0,0.0,0.0,0.0,0.0,0.0,0.0,0.0,0.0,0.0,0.0,0.0,0.0,0.0,0.0,0.0,0.0,0.0,0.0,0.0,0.0,0.0,0.0,0.0,0.0,0.0,0.0,0.0,0.0,0.0,0.0,0.0,0.0,0.0,0.0,0.0,0.0,0.0,0.0,0.0,0.0,0.0,0.0,0.0,0.0,0.0,0.0,0.0,0.0,0.0,0.0,0.0,0.0,0.0,0.0,0.0,0.0,0.0,0.0,0.0,0.0,0.0,0.0,0.0,0.0,0.0,0.0,0.0,0.0,0.0,0.0,0.0,0.0,0.0,0.0,0.0,0.0,0.0,0.0,0.0,0.0,0.0,0.0,0.0,0.0,0.0,0.0,0.0,0.0,0.0,0.0,0.0,0.0,-0.708,-0.6652,-0.6631,-0.7041,-0.6897,-0.7368,0.0,0.0,0.0,0.0,0.0,0.0,0.0,0.0,0.0,0.0,0.0,0.0,0.0,0.0,0.0,0.0,0.0,0.0,0.0,0.0,0.0,0.0,0.0,0.0,0.0,0.0,0.0,0.0,0.0,0.0,0.0,0.0,0.0,0.0,0.0,0.0,0.0,0.0,0.0,0.0,0.0,0.0,0.0,0.0,0.0,0.0,0.0,0.0,0.0,0.0,0.0,0.0,0.0,0.0,0.0,0.0,0.0,0.0,0.0,0.0,0.0,0.0,0.0,0.0,0.0,0.0,0.0,0.0,0.0,0.0,0.0,0.0,0.0,0.0,0.0,0.0,0.0,0.0,0.0,0.0,0.0,0.0,0.0,0.0,0.0,0.0,0.0,0.0,0.0,0.0,0.0,0.0,0.0,0.0,0.0,0.0,0.0,0.0,0.0,0.0,0.0,0.0,0.0,0.0,0.0,0.0,0.0,0.0,0.0,-0.6695,-0.5894,-0.5868,-0.6757,-0.635,-0.6482,0.0,0.0,0.0,0.0,0.0,0.0,0.0,0.0,0.0,0.0,0.0,0.0,0.0,0.0,0.0,0.0,0.0,0.0,0.0,0.0,0.0,0.0,0.0,0.0,0.0,0.0,0.0,0.0,0.0,0.0,0.0,0.0,0.0,0.0,0.0,0.0,0.0,0.0,0.0,0.0,0.0,0.0,0.0,0.0,0.0,0.0,0.0,0.0,0.0,0.0,0.0,0.0,0.0,0.0,0.0,0.0,0.0,0.0,0.0,0.0,0.0,0.0,0.0,0.0,0.0,0.0,0.0,0.0,0.0,0.0,0.0,0.0,0.0,0.0,0.0,0.0,0.0,0.0,0.0,0.0,0.0,0.0,0.0,0.0,0.0,0.0,0.0,0.0,0.0,0.0,0.0,0.0,0.0,0.0,0.0,0.0,0.0,0.0,0.0,0.0,0.0,0.0,0.0,0.0,0.0,0.0,0.0,0.0,-0.787,-0.66,-0.5698,-0.5728,-0.6755,-0.5878,-0.5965,0.0,0.0,0.0,0.0,0.0,0.0,0.0,0.0,0.0,0.0,0.0,0.0,0.0,0.0,0.0,0.0,0.0,0.0,0.0,0.0,0.0,0.0,0.0,0.0,0.0,0.0,0.0,0.0,0.0,0.0,0.0,0.0,0.0,0.0,0.0,0.0,0.0,0.0,0.0,0.0,0.0,0.0,0.0,0.0,0.0,0.0,0.0,0.0,0.0,0.0,0.0,0.0,0.0,0.0,0.0,0.0,0.0,0.0,0.0,0.0,0.0,0.0,0.0,0.0,0.0,0.0,0.0,0.0,0.0,0.0,0.0,0.0,0.0,0.0,0.0,0.0,0.0,0.0,0.0,0.0,0.0,0.0,0.0,0.0,0.0,0.0,0.0,0.0,0.0,0.0,0.0,0.0,0.0,0.0,0.0,0.0,0.0,0.0,0.0,0.0,0.0,0.0,0.0,0.0,0.0,0.0,0.0,0.0,-0.8103,-0.676,-0.586,-0.5887,-0.682,-0.5588,-0.5574,0.0,0.0,0.0,0.0,0.0,0.0,0.0,0.0,0.0,0.0,0.0,0.0,0.0,0.0,0.0,0.0,0.0,0.0,0.0,0.0,0.0,0.0,0.0,0.0,0.0,0.0,0.0,0.0,0.0,0.0,0.0,0.0,0.0,0.0,0.0,0.0,0.0,0.0,0.0,0.0,0.0,0.0,0.0,0.0,0.0,0.0,0.0,0.0,0.0,0.0,0.0,0.0,0.0,0.0,0.0,0.0,0.0,0.0,0.0,0.0,0.0,0.0,0.0,0.0,0.0,0.0,0.0,0.0,0.0,0.0,0.0,0.0,0.0,0.0,0.0,0.0,0.0,0.0,0.0,0.0,0.0,0.0,0.0,0.0,0.0,0.0,0.0,0.0,0.0,0.0,0.0,0.0,0.0,0.0,0.0,0.0,0.0,0.0,0.0,0.0,0.0,0.0,0.0,0.0,0.0,0.0,0.0,0.0,-0.766,-0.6871,-0.5906,-0.5924,-0.7007,-0.5546,-0.5249,0.0,0.0,0.0,0.0,0.0,0.0,0.0,0.0,0.0,0.0,0.0,0.0,0.0,0.0,0.0,0.0,0.0,0.0,0.0,0.0,0.0,0.0,0.0,0.0,0.0,0.0,0.0,0.0,0.0,0.0,0.0,0.0,0.0,0.0,0.0,0.0,0.0,0.0,0.0,0.0,0.0,0.0,0.0,0.0,0.0,0.0,0.0,0.0,0.1453,0.0,0.0,0.0,0.0,0.0,0.0,0.0,0.0,0.0,0.0,0.0,0.0,0.0,0.0,0.0,0.0,0.0,0.0,0.0,0.0,0.0,0.0,0.0,0.0,0.0,0.0,0.0,0.0,0.0,0.0,0.0,0.0,0.0,0.0,0.0,0.0,0.0,0.0,0.0,0.0,0.0,0.0,0.0,0.0,0.0,0.0,0.0,0.0,0.0,0.0,0.0,0.0,0.0,0.0,0.0,0.0,0.0,0.0,0.0,-0.7516,-0.6919,-0.592,-0.5938,-0.6993,-0.5644,-0.5289,0.0,0.0,0.0,0.0,0.0,0.0,0.0,0.0,0.0,0.0,0.0,0.0,0.0,0.0,0.0,0.0,0.0,0.0,0.0,0.0,0.0,0.0,0.0,0.0,0.0,0.0,0.0,0.0,0.0,0.0,0.0,0.0,0.0,0.0,0.0,0.0,0.0,0.0,0.0,0.0,0.0,0.0,0.0,0.0,0.0,0.0,0.0,0.0,0.0,0.0,0.0,0.0,0.0,0.0,0.0,0.0,0.0,0.0,0.0,0.0,0.0,0.0,0.0,0.0,0.0,0.0,0.0,0.0,0.0,0.0,0.0,0.0,0.0,0.0,0.0,0.0,0.0,0.0,0.0,0.0,0.0,0.0,0.0,0.0,0.0,0.0,0.0,0.0,0.0,0.0,0.0,0.0,0.0,0.0,0.0,0.0,0.0,0.0,0.0,0.0,0.0,0.0,0.0,0.0,0.0,0.0,0.0,-0.7711,-0.7337,-0.6903,-0.6107,-0.6115,-0.7051,-0.5988,-0.5663,-0.6278,0.0,0.0,0.0,0.0,0.0,0.0,0.0,0.0,0.0,0.0,0.0,0.0,0.0,0.0,0.0,0.0,0.0,0.0,0.0,0.0,0.0,0.0,0.0,0.0,0.0,0.0,0.0,0.0,0.0,0.0,0.0,0.0,0.0,0.0,0.0,0.0,0.0,0.0,0.2931,0.3017,0.0,0.0,0.0,0.0,0.0,0.0,0.0,0.0,0.0246,0.0,0.0,0.0,0.0,0.0,0.0,0.0,0.0,0.0,0.0,0.0,0.0,0.0,0.0,0.0,0.0,0.0,0.0,0.0,0.0,0.0,0.0,0.0,0.0,0.0,0.0,0.0,0.0,0.0,0.0,0.0,0.0,0.0,0.0,0.0,0.0,0.0,0.0,0.0,0.0,0.0,0.0,0.0,0.0,0.0,0.0,0.0,0.0,0.0,0.0,0.0,0.0,0.0,0.0,0.0,0.0,-0.9005,-0.7386,-0.6718,-0.7045,-0.6908,-0.6918,-0.7092,-0.678,-0.6504,-0.6278,0.0,0.0,0.0,0.0,0.0,0.0,0.0,0.0,0.0,0.0,0.0,0.0,0.0,0.0,0.0,0.0,0.0,0.0,0.0,0.0,0.0,0.0,0.0,0.0,0.0,0.0,0.0,0.0,0.0,0.0,0.0,0.0,0.0,0.0,0.0,0.0,0.0,0.0,0.0,0.4397,0.4193,0.0,0.0,0.0,0.0,0.0,0.0,0.0,0.0,0.2159,0.0,0.0,0.0,0.0,0.0,0.0,0.0,0.0,0.0,0.0,0.0,0.0,0.0,0.0,0.0,0.0,0.0,0.0,0.0,0.0,0.0,0.0,0.0,0.0,0.0,0.0,0.0,0.0,0.0,0.0,0.0,0.0,0.0,0.0,0.0,0.0,0.0,0.0,0.0,0.0,0.0,0.0,0.0,0.0,0.0,0.0,0.0,0.0,0.0,0.0,0.0,0.0,0.0,0.0,0.0,-0.8509,-0.7258,-0.6702,-0.7078,-0.6517,-0.6517,-0.7044,-0.6319,-0.6017,0.0,0.0,0.0,0.0,0.0,0.0,0.0,0.0,0.0,0.0,0.0,0.0,0.0,0.0,0.0,0.0,0.0,0.0,0.0,0.0,0.0,0.0,0.0,0.0,0.0,0.0,0.0,0.0,0.0,0.0,0.0,0.0,0.0,0.0,0.0,0.0,0.0,0.0,0.0,0.0,0.4356,0.415,0.4407,0.0,0.0,0.0,0.0,0.0,0.0,0.2396,0.2811,0.0,0.0,0.0,0.0,0.0,0.0,0.0,0.0,0.0,0.0,0.0,0.0,0.0,0.0,0.0,0.0,0.0,0.0,0.0,0.0,0.0,0.0,0.0,0.0,0.0,0.0,0.0,0.0,0.0,0.0,0.0,0.0,0.0,0.0,0.0,0.0,0.0,0.0,0.0,0.0,0.0,0.0,0.0,0.0,0.0,0.0,0.0,0.0,0.0,0.0,0.0,0.0,0.0,0.0,0.0,-0.795,-0.7106,-0.6783,-0.7031,-0.5983,-0.5938,-0.7048,-0.5678,-0.5347,0.0,0.0,0.0,0.0,0.0,0.0,0.0,0.0,0.0,0.0,0.0,0.0,0.0,0.0,0.0,0.0,0.0,0.0,0.0,0.0,0.0,0.0,0.0,0.0,0.0,0.0,0.0,0.0,0.0,0.0,0.0,0.0,0.0,0.0,0.0,0.0,0.0,0.0,0.0,0.0,0.0,0.4153,0.5139,0.44,0.0,0.0,0.0,0.0,0.3215,0.3558,0.0,0.0,0.0,0.0,0.0,0.0,0.0,0.0,0.0,0.0,0.0,0.0,0.0,0.0,0.0,0.0,0.0,0.0,0.0,0.0,0.0,0.0,0.0,0.0,0.0,0.0,0.0,0.0,0.0,0.0,0.0,0.0,0.0,0.0,0.0,0.0,0.0,0.0,0.0,0.0,0.0,0.0,0.0,0.0,0.0,0.0,0.0,0.0,0.0,0.0,0.0,0.0,0.0,0.0,0.0,0.0,-0.7932,-0.6923,-0.6583,-0.7017,-0.598,-0.5938,-0.7048,-0.58,-0.5383,0.0,0.0,0.0,0.0,0.0,0.0,0.0,0.0,0.0,0.0,0.0,0.0,0.0,0.0,0.0,0.0,0.0,0.0,0.0,0.0,0.0,0.0,0.0,0.0,0.0,0.0,0.0,0.0,0.0,0.0,0.0,0.0,0.0,0.0,0.0,0.0,0.0,0.0,0.0,0.0,0.0,0.5254,0.4971,0.5084,0.4813,0.0,0.0,0.4553,0.3702,0.5196,0.0,0.0,0.0,0.0,0.0,0.0,0.0,0.0,0.0,0.0,0.0,0.0,0.0,0.0,0.0,0.0,0.0,0.0,0.0,0.0,0.0,0.0,0.0,0.0,0.0,0.0,0.0,0.0,0.0,0.0,0.0,0.0,0.0,0.0,0.0,0.0,0.0,0.0,0.0,0.0,0.0,0.0,0.0,0.0,0.0,0.0,0.0,0.0,0.0,0.0,0.0,0.0,0.0,0.0,0.0,-0.7559,-0.7946,-0.703,-0.6421,-0.6098,-0.4999,-0.4614,-0.5087,-0.3692,-0.3576,0.0,0.0,0.0,0.0,0.0,0.0,0.0,0.0,0.0,0.0,0.0,0.0,0.0,0.0,0.0,0.0,0.0,0.0,0.0,0.0,0.0,0.0,0.0,0.0,0.0,0.0,0.0,0.0,0.0,0.0,0.0,0.0,0.0,0.0,0.0,0.0,0.0,0.0,0.0,0.0,0.0,0.0,0.6005,0.6254,0.0,0.0,0.0,0.5999,0.5663,0.0,0.0,0.0,0.0,0.0,0.0,0.0,0.0,0.0,0.0,0.0,0.0,0.0,0.0,0.0,0.0,0.0,0.0,0.0,0.0,0.0,0.0,0.0,0.0,0.0,0.0,0.0,0.0,0.0,0.0,0.0,0.0,0.0,0.0,0.0,0.0,0.0,0.0,0.0,0.0,0.0,0.0,0.0,0.0,0.0,0.0,0.0,0.0,0.0,0.0,0.0,0.0,0.0,0.0,0.0,0.0,0.0,-0.7986,-0.7132,-0.629,-0.5393,-0.4221,-0.3606,-0.3594,-0.2148,0.0,0.0,0.0,0.0,0.0,0.0,0.0,0.0,0.0,0.0,0.0,0.0,0.0,0.0,0.0,0.0,0.0,0.0,0.0,0.0,0.0,0.0,0.0,0.0,0.0,0.0,0.0,-0.4244,0.0,0.0,0.0,0.0,0.0,0.0,0.0,0.0,0.0,0.0,0.0,0.0,0.0,0.0,0.4723,0.6752,0.7139,0.7206,0.0,0.0,0.7088,0.7193,0.7183,0.696,0.0,0.0,0.0,0.0,0.0,0.0,0.0,0.0,0.0,0.0,0.0,0.0,0.0,0.0,0.0,0.0,0.0,0.0,0.0,0.0,0.0,0.0,0.0,0.0,0.0,0.0,0.0,0.0,0.0,0.0,0.0,0.0,0.0,0.0,0.0,0.0,0.0,0.0,0.0,0.0,0.0,0.0,0.0,0.0,0.0,0.0,0.0,0.0,0.0,0.0,0.0,0.0,0.0,0.0,0.0,-0.7943,-0.7139,-0.6287,-0.539,-0.4208,-0.3601,-0.3592,-0.2279,-0.2313,0.0,0.0,0.0,0.0,0.0,0.0,0.0,0.0,0.0,0.0,0.0,0.0,0.0,0.0,0.0,0.0,0.0,0.0,0.0,0.0,0.0,0.0,0.0,0.0,0.0,0.0,0.0,0.0,0.0,0.0,0.0,0.0,0.0,0.0,0.0,0.0,0.0,0.0,0.0,0.0,0.0,0.4726,0.6655,0.7302,0.757,0.0,0.0,0.7556,0.7567,0.779,0.7624,0.662,0.0,0.0,0.0,0.0,0.0,0.0,0.0,0.0,0.0,0.0,0.0,0.0,0.0,0.0,0.0,0.0,0.0,0.0,0.0,0.0,0.0,0.0,0.0,0.0,0.0,0.0,0.0,0.0,0.0,0.0,0.0,0.0,0.0,0.0,0.0,0.0,0.0,0.0,0.0,0.0,0.0,0.0,0.0,0.0,0.0,0.0,0.0,0.0,0.0,0.0,0.0,0.0,0.0,-0.7674,-0.799,-0.7136,-0.5906,-0.4374,-0.3826,-0.2867,-0.1417,-0.0882,-0.1315,0.0,0.0,0.0,0.0,0.0,0.0,0.0,0.0,0.0,0.0,0.0,0.0,0.0,0.0,0.0,0.0,0.0,0.0,0.0,0.0,0.0,0.0,0.0,0.0,0.0,0.0,0.0,0.0,-0.2931,-0.2585,-0.2617,0.0,0.0,0.0,0.0,0.0,0.0,0.0,0.0,0.0,0.0,0.5509,0.7005,0.7502,0.0,0.0,0.7729,0.7763,0.7858,0.7733,0.74,0.6722,0.638,0.0,0.0,0.0,0.0,0.0,0.0,0.0,0.0,0.0,0.0,0.0,0.0,0.0,0.0,0.0,0.0,0.0,0.0,0.0,0.0,0.0,0.0,0.0,0.0,0.0,0.0,0.0,0.0,0.0,0.0,0.0,0.0,0.0,0.0,0.0,0.0,0.0,0.0,0.0,0.0,0.0,0.0,0.0,0.0,0.0,0.0,0.0,0.0,0.0,0.0,0.0,0.0,-0.7641,-0.7887,-0.7056,-0.5782,-0.403,-0.3707,-0.272,-0.1016,-0.0631,-0.1193,0.0,0.0,0.0,0.0,0.0,0.0,0.0,0.0,0.0,0.0,0.0,0.0,0.0,0.0,0.0,0.0,0.0,0.0,0.0,0.0,0.0,0.0,0.0,0.0,0.0,0.0,0.0,0.0,-0.2741,-0.212,-0.1896,0.0,0.0,0.0,0.0,0.0,0.0,0.0,0.0,0.0,0.0,0.5733,0.7267,0.7719,0.7879,0.7879,0.7838,0.7928,0.8282,0.8197,0.799,0.7693,0.0,0.0,0.0,0.0,0.0,0.0,0.0,0.0,0.0,0.0,0.0,0.0,0.0,0.0,0.0,0.0,0.0,0.0,0.0,0.0,0.0,0.0,0.0,0.0,0.0,0.0,0.0,0.0,0.0,0.0,-0.9833,0.0,0.0,0.0,0.0,0.0,0.0,0.0,0.0,0.0,0.0,0.0,0.0,0.0,0.0,0.0,0.0,0.0,0.0,0.0,0.0,0.0,0.0,-0.7574,-0.7695,-0.6935,-0.5978,-0.4856,-0.3938,-0.3283,-0.2989,-0.2092,-0.2322,-0.3867,0.0,0.0,0.0,0.0,0.0,0.0,0.0,0.0,0.0,0.0,0.0,0.0,0.0,0.0,0.0,0.0,0.0,0.0,0.0,0.0,0.0,0.0,0.0,0.0,0.0,0.0,-0.3421,-0.2679,-0.1899,0.0,0.0,0.0,0.0,0.0,0.0,0.0,0.0,0.0,0.0,0.3941,0.4972,0.7388,0.7929,0.7971,0.7982,0.786,0.8099,0.8945,0.9403,0.9754,0.0,0.0,0.0,0.0,0.0,0.0,0.0,0.0,0.0,0.0,0.0,0.0,0.0,0.0,0.0,0.0,0.0,0.0,0.0,0.0,0.0,0.0,0.0,0.0,0.0,0.0,0.0,-1.0367,-0.9869,0.0,0.0,0.0,0.0,0.0,0.0,0.0,0.0,0.0,0.0,0.0,-1.0621,-1.1061,0.0,0.0,0.0,0.0,0.0,0.0,0.0,0.0,0.0,0.0,0.0,0.0,-0.7574,-0.7675,-0.692,-0.5969,-0.4953,-0.4551,-0.3977,-0.3122,-0.2761,-0.2754,-0.3142,0.0,0.0,0.0,0.0,0.0,0.0,0.0,0.0,0.0,0.0,0.0,0.0,0.0,0.0,0.0,0.0,0.0,0.0,0.0,0.0,0.0,0.0,0.0,0.0,0.0,-0.3442,0.0,0.0,0.0,0.0,0.0,0.0,0.0,0.0,0.0,0.0,0.0,0.2033,0.241,0.4543,0.6172,0.6422,0.7257,0.7874,0.0,0.0,0.0,0.0,0.0,0.0,0.0,0.0,0.0,0.0,0.0,0.0,0.0,0.0,0.7187,0.6149,0.5833,0.5776,0.5885,0.0,0.0,0.0,0.0,0.0,0.0,0.0,0.0,0.0,0.0,0.0,0.0,0.0,0.0,-1.0929,0.0,-1.1312,0.0,0.0,0.0,0.0,0.0,0.0,0.0,0.0,-1.1724,-1.1863,-1.1531,-1.1979,-1.1774,0.0,-1.089,-1.0766,0.0,0.0,0.0,0.0,0.0,0.0,0.0,0.0,-0.7442,-0.7334,-0.6753,-0.608,-0.5402,-0.5039,-0.4644,-0.4217,-0.4086,-0.3946,-0.3711,-0.4351,-0.4442,0.0,0.0,0.0,0.0,0.0,0.0,0.0,0.0,0.0,0.0,0.0,0.0,0.0,0.0,0.0,0.0,0.0,0.0,0.0,0.0,0.0,0.0,0.0,-0.262,0.0,0.0,0.0,0.0,0.0,0.0,0.0,0.0,0.0,-0.0642,0.1362,0.2757,0.257,0.4909,0.6615,0.6592,0.0,0.0,0.0,0.0,0.0,0.0,0.0,1.0281,1.1837,1.1558,1.0867,1.016,0.9279,0.8428,0.7563,0.0,0.0,0.6746,0.6451,0.6396,0.6546,0.7094,0.7586,0.7643,0.8522,0.9091,0.0,0.0,0.0,0.0,0.0,0.0,0.0,0.0,-1.1129,-1.1572,0.0,-1.2409,0.0,0.0,0.0,0.0,0.0,-1.1305,0.0,0.0,-1.2779,-1.2684,-1.1844,-1.2505,-1.2144,-1.0968,-1.1829,-1.183,-1.1008,-0.9837,0.0,0.0,0.0,0.0,0.0,0.0,-0.7253,-0.6731,-0.6444,-0.6303,-0.6261,-0.5279,-0.5237,-0.6212,-0.5932,-0.5706,-0.5517,-0.5255,-0.4968,-0.4653,-0.4548,0.0,0.0,0.0,0.0,0.0,0.0,0.0,0.0,0.0,0.0,0.0,0.0,0.0,0.0,0.0,0.0,0.0,0.0,0.0,0.0,-0.2636,0.0,0.0,0.0,0.0,0.0,0.0,0.0,0.0,0.0,0.0,0.0,0.1113,0.2366,0.3702,0.0,0.0,0.0,0.0,0.7982,0.7988,0.7867,0.8575,1.0677,1.1315,1.2188,1.4007,0.0,0.0,0.9469,0.8246,0.7681,0.7487,0.7675,0.7879,0.7955,0.7638,0.7467,0.7697,0.8662,0.9531,0.9862,1.014,1.0302,-0.8233,0.0,0.0,0.0,0.0,-1.0312,-1.1152,-1.1727,-1.3436,-1.3885,-1.347,-1.4745,0.0,0.0,0.0,0.0,0.0,0.0,-1.2017,-1.2549,-1.2986,-1.3154,-1.3054,-1.3266,-1.3074,-1.2538,-1.2355,-1.2064,-1.1597,-1.0862,-1.018,-0.9559,0.0,0.0,0.0,0.0,-0.7521,-0.6867,-0.6494,-0.63,-0.63,-0.5986,-0.5983,-0.6296,-0.6067,-0.559,-0.4862,-0.5129,-0.4929,-0.4104,-0.4442,0.0,0.0,0.0,0.0,0.0,0.0,0.0,0.0,0.0,0.0,0.0,0.0,0.0,0.0,0.0,0.0,0.0,0.0,0.0,-0.1895,-0.162,-0.1249,0.0,0.0,0.0,0.0,0.0,0.0,0.0,0.0,0.0,0.0,0.1884,0.3081,0.0,0.0,0.6943,0.6626,0.7287,0.7867,0.7971,0.0,0.0,0.0,0.99,1.0412,1.2104,1.232,1.1786,1.0114,0.9616,0.9172,0.8341,0.8231,0.8306,0.8323,0.8082,0.8255,0.93,0.9891,1.0547,1.1636,1.1932,1.1595,-0.7864,-0.8388,-0.8236,-0.8277,-0.8589,-1.0305,-1.1335,-1.2031,-1.458,-1.5408,-1.5072,-1.6735,-1.659,-1.4985,-1.4179,0.0,0.0,0.0,-1.2576,-1.3106,-1.326,-1.3493,-1.3808,-1.3814,-1.3607,-1.3206,-1.2839,-1.2445,-1.2074,-1.1605,-1.1015,-1.0388,0.0,0.0,-0.8236,-0.8174,-0.7622,-0.6611,-0.6359,-0.63,-0.63,-0.63,-0.63,-0.6296,-0.6108,-0.5695,-0.5041,-0.532,-0.5114,-0.4354,-0.4616,-0.4755,0.0,0.0,0.0,0.0,0.0,0.0,0.0,0.0,0.0,0.0,0.0,-0.8678,-0.7484,0.0,0.0,0.0,-0.4069,-0.2437,-0.1205,-0.0901,0.0,0.0,0.0,0.0,0.0,0.0,0.0,0.0,0.0,0.0,0.0,0.1824,0.2993,0.2829,0.5616,0.7446,0.6896,0.0,0.7936,0.7978,0.7988,0.84,0.951,0.9548,0.9793,1.0756,1.1027,1.0748,0.9688,0.947,0.9248,0.872,0.857,0.8591,0.8652,0.8513,0.8577,0.9476,1.0184,1.094,1.1888,1.2021,1.1762,-0.7753,-0.7611,-0.7284,-0.7241,-0.7539,-1.0053,-1.1263,-1.1743,-1.5066,-1.6475,-1.6492,-1.8345,-1.7952,-1.5807,-1.4305,0.0,-1.2857,-1.2878,-1.3192,-1.364,-1.3633,-1.378,-1.4082,-1.4082,-1.3794,-1.3247,-1.322,-1.2913,-1.2345,-1.1972,-1.1686,-1.1455,-1.0824,-0.9715,-0.8292,-0.8359,-0.7646,-0.6047,-0.619,-0.63,-0.63,-0.63,-0.6293,-0.6279,-0.6105,-0.5915,-0.5789,-0.5657,-0.5454,-0.513,-0.4972,-0.4853,-0.4707,0.0,0.0,0.0,0.0,0.0,0.0,0.0,0.0,0.0,0.0,0.0,0.0,0.0,0.0,0.0,-0.3325,0.0,-0.1103,-0.0378,0.0,0.0,0.0,0.0,0.0,0.0,0.0,0.0,0.0,0.0,0.0,0.0,0.2593,0.3819,0.6117,0.7732,0.7968,0.7982,0.7988,0.7988,0.7988,0.8432,0.9444,0.9678,0.9674,0.978,0.9752,0.9226,0.8347,0.793,0.8037,0.8135,0.8399,0.8544,0.8686,0.8682,0.8852,0.8623,0.9834,1.0946,1.1221,1.1231,1.118,-0.7917,-0.788,-0.7806,-0.8251,-0.9088,-1.0798,-1.2634,-1.4624,-1.7166,-1.8382,-1.8635,-1.8919,-1.7521,-1.491,-1.4782,-1.4255,-1.3407,-1.3667,-1.3848,-1.3981,-1.3981,-1.4021,-1.4088,-1.4088,-1.3895,-1.3507,-1.3313,-1.3013,-1.2639,-1.1583,-1.1414,-1.1976,-1.0423,-0.919,-0.8384,-0.8572,-0.7881,-0.6245,-0.6279,-0.63,-0.63,-0.63,-0.6242,-0.6088,-0.601,-0.5868,-0.565,-0.561,-0.5501,-0.5344,-0.5057,-0.4874,-0.4863,-0.4925,0.0,0.0,0.0,0.0,0.0,0.0,0.0,0.0,0.0,-0.809,-0.6567,0.0,-0.5785,0.0,-0.2519,-0.1059,-0.0326,-0.01,0.0,0.0,0.0,0.0,0.0,0.0,0.0,0.0,0.0,0.0,0.0,0.2044,0.3638,0.3982,0.5388,0.6799,0.7783,0.7988,0.7988,0.7988,0.7988,0.8088,0.8432,0.8482,0.8482,0.8482,0.7624,0.69,0.681,0.5848,0.5224,0.5507,0.6438,0.7116,0.7252,0.8097,0.8806,0.89,0.9992,1.1413,1.2435,1.1833,1.1109,-0.7988,-0.7988,-0.7988,-0.9002,-1.0635,-1.1416,-1.3201,-1.5709,-1.7545,-1.8665,-1.9092,-1.8129,-1.6813,-1.5268,-1.4823,-1.4365,-1.3848,-1.4015,-1.4088,-1.4088,-1.4088,-1.4088,-1.4088,-1.4088,-1.3935,-1.3593,-1.3353,-1.2811,-1.2043,-1.1226,-1.0864,-1.095,-0.9863,-0.8908,-0.8171,-0.8268,-0.7673,-0.6296,-0.63,-0.63,-0.63,-0.63,-0.6186,-0.6034,-0.6392,-0.6458,-0.6176,-0.6124,-0.6007,-0.5841,-0.516,-0.485,-0.4877,-0.4913,-0.5249,0.0,0.0,0.0,0.0,0.0,0.0,0.0,0.0,0.0,0.0,0.0,-0.4746,-0.2882,-0.1735,-0.0804,-0.0071,0.0,0.0,0.0,0.0,0.0,0.0,0.0,0.0,0.0,0.0,0.0234,0.0829,0.2169,0.3577,0.4712,0.5525,0.6481,0.769,0.7988,0.7988,0.7988,0.7988,0.7988,0.7988,0.7988,0.7789,0.7185,0.6481,0.5884,0.5419,0.4715,0.4286,0.4559,0.5678,0.6624,0.6725,0.7841,0.8797,0.8968,0.9475,1.0319,1.1143,1.0676,1.0116,-0.7988,-0.8038,-0.8187,-0.9653,-1.1896,-1.2091,-1.3609,-1.6061,-1.7188,-1.8033,-1.8503,-1.6901,-1.6056,-1.5826,-1.4661,-1.4122,-1.4088,-1.4088,-1.4088,-1.4088,-1.4088,-1.4088,-1.4088,-1.4088,-1.3948,-1.3653,-1.3239,-1.2424,-1.128,-1.0699,-1.0067,-0.9296,-0.9031,-0.8542,-0.7821,-0.7668,-0.7173,-0.6296,-0.63,-0.63,-0.63,-0.63,-0.6214,-0.601,-0.6702,-0.6956,-0.6683,-0.6544,-0.6419,-0.6199,-0.5303,-0.4802,-0.4874,-0.475,-0.4952,0.0,-0.5497,0.0,0.0,0.0,0.0,0.0,0.0,0.0,0.0,-0.4323,-0.3475,-0.1284,-0.1037,-0.0676,-0.0039,0.0,0.0,0.0,0.0,0.0,0.0,0.0,0.0089,0.0231,0.0236,0.0768,0.2057,0.239,0.3468,0.5527,0.6179,0.6783,0.7739,0.7988,0.7988,0.7988,0.7988,0.7988,0.7988,0.7988,0.7534,0.6379,0.5777,0.531,0.4121,0.3722,0.364,0.3914,0.4839,0.5871,0.6278,0.743,0.845,0.8777,0.8811,0.8838,0.9013,0.903,0.8835,-0.7988,-0.8088,-0.9167,-1.0489,-1.1994,-1.3054,-1.4959,-1.7336,-1.7591,-1.7628,-1.7446,-1.6794,-1.5842,-1.4813,-1.4549,-1.4309,-1.4088,-1.4088,-1.4088,-1.4088,-1.4088,-1.4088,-1.4088,-1.4088,-1.4062,-1.3946,-1.2721,-1.1961,-1.1585,-0.9542,-0.8811,-0.9231,-0.7672,-0.7173,-0.7744,0.0,0.0,0.0,-0.63,-0.63,-0.63,-0.63,-0.6125,-0.5854,-0.5905,0.0,-0.5456,-0.541,-0.5378,-0.535,-0.5137,0.0,0.0,0.0,0.0,0.0,0.0,0.0,0.0,0.0,0.0,0.0,-0.4563,-0.3977,-0.3228,-0.2335,-0.1626,-0.1147,-0.0574,-0.016,0.0,0.0,0.0,0.0,0.0,0.0,0.0,0.0,0.0408,0.1507,0.1615,0.2121,0.3426,0.4512,0.5377,0.6029,0.6933,0.764,0.7939,0.7988,0.7988,0.7988,0.7988,0.7988,0.7988,0.7988,0.7534,0.6279,0.502,0.3945,0.2674,0.1552,0.0,0.0,0.2021,0.345,0.4528,0.5861,0.7311,0.8352,0.8547,0.857,0.8716,0.8655,0.856,-0.7988,0.0,-0.946,-1.073,0.0,-1.3343,-1.4638,-1.588,-1.6513,-1.6664,-1.6487,-1.6182,-1.5611,-1.4937,-1.4605,-1.4442,-1.4295,-1.4148,-1.4088,-1.4088,-1.4088,-1.4088,-1.4088,-1.4088,-1.4088,-1.4033,-1.2582,-1.1565,-1.0888,-0.8972,-0.7956,-0.7821,-0.6795,-0.6567,-0.7022,-0.6567,-0.63,-0.63,-0.63,-0.63,-0.63,-0.63,-0.6153,-0.5813,0.0,0.0,0.0,0.0,0.0,0.0,0.0,0.0,0.0,0.0,0.0,-0.5485,-0.5864,-0.6141,-0.6157,-0.5461,-0.4694,-0.3951,-0.2675,-0.195,-0.2012,-0.1119,-0.057,-0.0577,-0.0201,0.0,0.0,0.0,0.0,0.0,0.053,0.0887,0.094,0.1492,0.2161,0.2743,0.2923,0.3509,0.4802,0.5525,0.6279,0.688,0.7534,0.7988,0.7988,0.7988,0.7988,0.7988,0.7988,0.7988,0.7988,0.7988,0.7232,0.5472,0.4418,0.3228,0.1326,0.0461,0.0,0.0,0.114,0.254,0.3972,0.5389,0.687,0.8082,0.8425,0.8397,0.8479,0.8486,0.8459,-0.7988,-0.8137,-0.946,-1.073,-1.1994,-1.3102,-1.3542,-1.3638,0.0,0.0,0.0,-1.5244,-1.5252,-1.5357,-1.489,-1.4616,-1.4466,-1.4269,-1.4142,-1.4088,-1.4088,-1.4088,-1.4088,-1.4088,-1.4088,-1.4033,-1.2457,-1.1181,-1.0177,-0.8577,-0.7334,-0.6429,-0.6337,-0.6323,-0.63,-0.63,-0.63,-0.63,-0.63,-0.6374,-0.6528,-0.6567,-0.65,-0.6381,-0.6853,-0.6974,-0.6732,-0.6385,-0.6184,-0.6212,-0.5461,-0.5091,-0.5203,-0.5201,-0.5352,-0.5569,-0.5616,-0.5681,-0.5757,-0.4845,-0.3777,-0.274,-0.1041,-0.0271,-0.0851,-0.0348,0.0,0.0,0.0,0.0,0.0,0.0,0.0,0.0,0.1076,0.1789,0.1881,0.3004,0.3803,0.4118,0.4296,0.4871,0.6111,0.6381,0.6731,0.7686,0.7939,0.7988,0.7988,0.7988,0.7988,0.7988,0.7988,0.7988,0.7988,0.7988,0.703,0.502,0.4266,0.3115,0.1109,0.0151,0.0,0.0,0.0,0.218,0.3789,0.5033,0.6451,0.8063,0.8316,0.8279,0.8238,0.8319,0.835,-0.7988,-0.8134,-0.9464,-1.073,-1.1896,-1.2091,-1.2188,-1.2188,-1.2382,-1.3108,-1.4166,-1.413,-1.4565,-1.5391,-1.5311,-1.4997,-1.4529,-1.4476,-1.4329,0.0,-1.4088,-1.4088,-1.4088,-1.4088,-1.4088,-1.3913,-1.1829,-1.0656,-1.0163,-0.8165,-0.6843,-0.6515,-0.6484,-0.6422,-0.6306,-0.63,-0.63,-0.63,-0.63,-0.6718,-0.7553,-0.7591,-0.7941,-0.8549,-0.7609,-0.7022,-0.6868,-0.5853,-0.535,-0.5519,-0.5504,-0.5504,-0.5528,-0.5633,-0.5674,-0.5606,-0.5705,-0.5783,-0.577,-0.4958,-0.3665,-0.195,-0.0685,-0.004,-0.0117,-0.0041,0.0,0.0,0.0,0.0,0.0,0.0,0.0,0.0,0.1121,0.179,0.1971,0.3144,0.4366,0.5353,0.5646,0.62,0.7307,0.7637,0.7637,0.7939,0.7988,0.7988,0.7988,0.7988,0.7988,0.7988,0.7988,0.7988,0.7988,0.7988,0.7285,0.5979,0.472,0.3515,0.1862,0.0656,0.0,0.0,0.0,0.1413,0.3534,0.4133,0.5562,0.7522,0.8056,0.8085,0.8039,0.8062,0.8062,-0.7988,-0.8137,-0.946,-1.0342,-1.0877,-1.0877,-1.0877,-1.0877,-1.0877,-1.2037,-1.383,-1.3878,-1.4541,-1.5571,-1.5464,-1.5251,-1.4977,-1.4663,-1.4449,-1.4315,-1.4155,-1.4088,-1.4088,-1.4088,-1.3773,-1.3033,-1.1429,-1.019,-0.9372,-0.7727,-0.6775,-0.6603,-0.6555,-0.6477,-0.6416,-0.6337,-0.63,-0.63,-0.63,-0.6532,-0.6945,-0.6984,-0.7125,-0.7393,-0.6788,-0.6459,-0.6287,-0.5767,-0.5525,-0.5596,-0.5699,-0.5705,-0.5708,-0.5766,-0.581,-0.583,-0.5888,-0.5962,-0.6047,-0.4596,-0.2864,-0.0908,-0.0293,0.0,0.0,0.0,0.0,0.0,0.0,0.0,0.0,0.0,0.0269,0.0896,0.2058,0.3051,0.3863,0.5041,0.6128,0.6777,0.7006,0.7316,0.7932,0.7988,0.7988,0.7988,0.7988,0.7988,0.7988,0.7988,0.7988,0.7988,0.7988,0.7988,0.7988,0.7988,0.7434,0.6182,0.487,0.3566,0.2214,0.0907,0.0,0.0,0.0555,0.1812,0.3765,0.467,0.5874,0.7332,0.7988,0.7988,0.7988,0.7988,0.7736,-0.7988,-0.8088,-0.9118,-0.9558,-0.9558,-0.985,-1.0002,-1.0002,-0.9998,-1.1453,-1.368,-1.3878,-1.4603,-1.5704,-1.5598,-1.5458,-1.5331,-1.4856,-1.4583,-1.4452,-1.4222,-1.4088,-1.4039,-1.3864,-1.3336,-1.2553,-1.1037,-0.9838,-0.902,-0.7655,-0.6902,-0.6749,-0.6597,-0.6545,-0.6511,-0.6402,-0.6334,-0.6303,-0.63,-0.6412,-0.6644,-0.6641,-0.6659,-0.6761,-0.6485,-0.6264,-0.6179,-0.5924,-0.5817,-0.585,-0.5854,-0.5976,-0.6222,-0.6051,-0.6066,-0.6327,-0.6194,-0.5917,-0.5506,-0.3846,-0.197,0.0,0.0,0.0,0.0,0.0,0.0,0.0,0.0,0.0,0.0,0.0,0.0808,0.1745,0.3186,0.439,0.5476,0.659,0.7251,0.7318,0.7497,0.7484,0.7587,0.7786,0.7988,0.7988,0.7988,0.7988,0.7988,0.7988,0.7988,0.7988,0.7988,0.7988,0.7988,0.7988,0.7434,0.6232,0.487,0.3566,0.2213,0.0907,0.0,0.0454,0.126,0.2614,0.4067,0.5222,0.6429,0.7637,0.7988,0.7889,0.7487,0.7434,0.7235,-0.7988,-0.7988,-0.8184,-0.8187,-0.8382,-0.946,-0.9953,-1.0002,-1.0002,-1.1453,-1.3782,-1.3878,-1.4657,-1.5683,-1.5738,-1.5598,-1.5391,-1.5115,-1.4776,-1.4509,-1.4222,-1.4088,-1.3997,-1.2984,-1.2984,-1.3343,-1.0621,-0.9527,-1.0091,-0.811,-0.7001,-0.6862,-0.6756,-0.6614,-0.6532,-0.6501,-0.6426,-0.6303,-0.63,-0.6756,-0.7591,-0.7668,-0.8114,-0.8964,-0.7915,-0.7339,-0.7212,-0.6339,-0.5871,-0.5956,-0.5973,-0.6476,-0.7357,-0.6743,-0.6639,-0.7486,-0.6769,-0.5472,-0.3618,-0.2349,-0.1242,0.0,0.0,0.0,0.0,0.0,0.0,0.0,0.0,0.0,0.0,0.0941,0.1657,0.215,0.3995,0.5476,0.5604,0.5813,0.5996,0.6001,0.6111,0.6229,0.6381,0.7285,0.7988,0.7988,0.7988,0.7988,0.7988,0.7988,0.7889,0.7939,0.7939,0.7939,0.7939,0.7988,0.7335,0.6129,0.482,0.3466,0.2113,0.1108,0.0353,0.131,0.2063,0.3217,0.4822,0.6029,0.6481,0.7587,0.7889,0.7686,0.6581,0.6329,0.6182,-0.7988,-0.7988,-0.7988,-0.7988,-0.8088,-0.8581,-0.9266,-1.0047,-1.0828,-1.2183,-1.3878,-1.4704,-1.5343,-1.5825,-1.5825,-1.5758,-1.5625,-1.517,-1.4948,-1.4743,-1.4309,-1.4088,-1.3955,-1.2851,-1.2589,-1.2772,-1.0226,-0.9152,-0.9231,-0.7881,-0.7065,-0.7001,-0.6866,-0.6803,-0.6732,-0.6563,-0.6484,-0.6426,-0.634,-0.649,-0.6872,-0.6911,-0.7099,-0.7433,-0.703,-0.6802,-0.676,-0.6328,-0.6139,-0.6159,-0.6166,-0.6645,-0.774,-0.6834,-0.676,-0.7591,-0.624,-0.4688,-0.3213,-0.2149,-0.1141,-0.0088,0.0,0.0,0.0,0.0,0.0,0.0,0.0,0.0225,0.0986,0.1522,0.2325,0.3717,0.496,0.5598,0.5572,0.5711,0.5584,0.4905,0.4796,0.5172,0.5977,0.7132,0.7939,0.7988,0.7988,0.7988,0.7988,0.7988,0.7637,0.7033,0.6833,0.7185,0.7637,0.7285,0.6631,0.5827,0.4219,0.2514,0.2114,0.1662,0.1461,0.1963,0.3217,0.437,0.5627,0.6731,0.7434,0.7988,0.7939,0.7587,0.6282,0.6029,0.5527,-0.7988,-0.7988,-0.7988,-0.7988,-0.7988,-0.7988,-0.897,-1.0534,-1.1507,-1.2818,-1.4465,-1.5391,-1.5825,-1.5825,-1.5825,-1.5825,-1.5758,-1.5311,-1.5129,-1.501,-1.4476,-1.4202,-1.4067,-1.2881,-1.2462,-1.2339,-1.0139,-0.8715,-0.8364,-0.758,-0.7095,-0.7078,-0.6994,-0.6923,-0.6862,-0.6658,-0.6552,-0.6497,-0.6371,-0.63,-0.6296,-0.63,-0.63,-0.63,-0.63,-0.63,-0.63,-0.63,-0.63,-0.6296,-0.6528,-0.7173,-0.8084,-0.7253,-0.6907,-0.7173,-0.5693,-0.4386,-0.3629,-0.2345,-0.1283,-0.058,-0.0225,0.0,0.0,0.0,0.0,0.0,0.0314,0.0941,0.1611,0.237,0.3573,0.5188,0.5526,0.5606,0.5583,0.5227,0.4354,0.3607,0.3463,0.4168,0.5677,0.6833,0.7434,0.7889,0.7988,0.7988,0.7889,0.7686,0.7033,0.6129,0.5729,0.5827,0.6628,0.6126,0.5475,0.4622,0.3016,0.2012,0.1711,0.1662,0.2364,0.2865,0.4772,0.6126,0.6681,0.7534,0.7836,0.7889,0.764,0.6983,0.5525,0.5275,0.3971,-0.7988,-0.7988,-0.7988,-0.7988,-0.7988,-0.7988,-0.946,-1.1702,-1.1848,-1.3307,-1.5439,-1.573,-1.5825,-1.5825,-1.5825,-1.5825,-1.5785,-1.5498,-1.5351,-1.5297,-1.477,-1.4502,-1.4396,-1.3022,-1.2857,-1.3343,-1.0269,-0.8233,-0.7316,-0.7143,-0.7095,-0.7092,-0.7078,-0.7014,-0.6896,-0.6776,-0.6617,-0.6488,-0.6388,-0.6303,-0.63,-0.63,-0.63,-0.63,-0.63,-0.63,-0.63,-0.63,-0.63,-0.6296,-0.7176,-0.8122,-0.8998,-0.8232,-0.7326,-0.6451,-0.5351,-0.4748,-0.4529,-0.2763,-0.1582,-0.151,0.0,0.0,0.0,0.0,0.0,0.0,0.0986,0.1656,0.1968,0.3619,0.5001,0.5416,0.5545,0.5563,0.5497,0.3668,0.2354,0.2113,0.2213,0.3267,0.5577,0.6032,0.683,0.7637,0.7988,0.7939,0.7637,0.688,0.6179,0.5575,0.482,0.4116,0.4166,0.4218,0.3566,0.2916,0.2414,0.0,0.0,0.1108,0.2364,0.3618,0.5022,0.6279,0.7434,0.7836,0.7633,0.7335,0.6531,0.5625,0.432,0.3066,0.2013,-0.7988,-0.7988,-0.7988,-0.7988,-0.7988,-0.7988,-0.946,-1.1848,-1.1896,-1.3355,-1.5486,-1.5825,-1.5825,-1.5825,-1.5825,-1.5825,-1.5798,-1.5524,-1.5398,-1.5351,-1.4983,-1.4703,-1.4291,-1.249,-1.2005,-1.2308,-0.944,-0.7536,-0.7183,-0.7095,-0.7095,-0.7095,-0.7095,-0.7065,-0.7001,-0.6876,-0.6773,-0.6617,-0.6515,-0.6392,-0.6306,-0.63,-0.63,-0.63,-0.63,-0.63,-0.63,-0.63,-0.6606,-0.7253,-0.7633,-0.828,-0.9069,-0.8351,-0.7365,-0.6335,-0.5273,-0.4748,-0.4612,-0.2849,-0.1666,-0.1691,-0.0673,0.0,0.0,0.0,0.0,0.0,0.1076,0.1745,0.2236,0.3976,0.5672,0.6272,0.5949,0.5151,0.432,0.2915,0.1688,0.1055,0.141,0.2766,0.432,0.5425,0.6531,0.7686,0.7988,0.7587,0.6883,0.6232,0.5375,0.3869,0.3016,0.2414,0.1461,0.2264,0.2464,0.1962,0.0,0.0,0.0,0.0,0.2364,0.3416,0.4872,0.6027,0.698,0.6781,0.6728,0.5772,0.502,0.432,0.2966,0.2213,0.131,-0.7988,-0.7988,-0.7988,-0.7988,-0.8041,-0.8482,-0.9899,-1.1848,-1.2382,-1.3788,-1.5534,-1.5825,-1.5825,-1.5825,-1.5825,-1.5825,-1.5812,-1.5625,-1.5538,-1.5504,-1.5237,-1.4943,-1.4368,-1.2586,-1.1876,-1.18,-0.9179,-0.7536,-0.7139,-0.7095,-0.7095,-0.7095,-0.7095,-0.7095,-0.7068,-0.691,-0.68,-0.6681,-0.6505,-0.6388,-0.6306,-0.63,-0.63,-0.63,-0.63,-0.63,-0.6338,-0.6606,-0.7061,-0.7744,-0.8084,-0.8466,-0.8689,-0.8161,-0.7326,-0.6374,-0.5668,-0.5345,-0.5204,-0.3414,-0.2239,-0.2271,0.0,0.0,0.0,0.0,0.0,0.0,0.1075,0.179,0.2191,0.3618,0.5132,0.568,0.5003,0.4029,0.3102,0.2023,0.1036,0.0402,0.0756,0.2063,0.3616,0.432,0.5675,0.7633,0.7385,0.6379,0.6079,0.5074,0.4271,0.2364,0.1662,0.1109,0.0,0.0,0.0,0.0,0.0,0.0,0.0,0.0,0.2163,0.3265,0.4418,0.5572,0.5974,0.5724,0.5022,0.4066,0.3565,0.3066,0.2213,0.1661,0.0,-0.7988,-0.8038,-0.8038,-0.8137,-0.8382,-0.946,-1.073,-1.2139,-1.3253,-1.4513,-1.573,-1.5825,-1.5825,-1.5825,-1.5825,-1.5825,-1.5771,-1.5792,-1.5785,-1.5758,-1.5524,-1.5244,-1.4912,-1.3413,-1.238,-1.204,-0.9923,-0.8321,-0.7445,-0.736,-0.7272,-0.7228,-0.7268,-0.7272,-0.7095,-0.6856,-0.6739,-0.6671,-0.6504,-0.6337,-0.63,-0.6306,-0.63,-0.63,-0.63,-0.6335,-0.6374,-0.7249,-0.7706,-0.7897,-0.8732,-0.8765,-0.8046,-0.7744,-0.7288,-0.6511,-0.6383,-0.6495,-0.6395,-0.4522,-0.3266,-0.3068,-0.1344,0.0,0.0,0.0,0.0,0.0,0.0942,0.1657,0.179,0.2681,0.357,0.3532,0.2954,0.2209,0.1768,0.0815,0.0,0.0,0.0,0.0,0.2864,0.3115,0.3917,0.6174,0.5822,0.4668,0.5074,0.3768,0.2363,0.1711,0.0,0.0,0.0,0.0,0.0,0.0,0.0,0.0,0.0,0.0908,0.1561,0.2564,0.3717,0.4768,0.4318,0.4119,0.3817,0.3015,0.2514,0.0,0.1511,0.0,0.0,-0.7988,-0.8134,-0.9019,-0.9365,-0.9558,-1.0779,-1.2037,-1.3247,-1.3782,-1.4609,-1.5635,-1.5825,-1.5825,-1.5825,-1.5825,-1.5825,-1.5825,-1.5825,-1.5825,-1.5812,-1.5725,-1.5524,-1.5048,-1.3748,-1.2403,-1.11,-0.9623,-0.9148,-0.927,-0.8707,-0.8364,-0.8321,-0.8321,-0.7885,-0.7136,-0.7001,-0.692,-0.6844,-0.6668,-0.6559,-0.6446,-0.6347,-0.63,-0.63,-0.63,-0.6606,-0.7288,-0.7629,-0.7821,-0.7821,-0.877,-0.8841,-0.7897,-0.7138,-0.6641,-0.6391,-0.6433,-0.6579,-0.6398,-0.4661,-0.3409,-0.3154,-0.1389,0.0,0.0,0.0,0.0,0.0,0.0,0.0539,0.0628,0.0852,0.1789,0.3393,0.2518,0.1731,0.1576,0.0718,0.0,0.0,0.0,0.0,0.2063,0.2063,0.2865,0.4818,0.4468,0.3917,0.3217,0.2666,0.1561,0.0807,0.0,0.0,0.0,0.0,0.0,0.0,0.0,0.0,0.0,0.0404,0.1058,0.1762,0.2916,0.3265,0.2815,0.2514,0.2313,0.0,0.0,0.0,0.0,0.0,0.0,-0.7988,-0.8137,-0.946,-1.0002,-1.0243,-1.1848,-1.3102,-1.3926,-1.4411,-1.5051,-1.573,-1.5825,-1.5825,-1.5825,-1.5825,-1.5825,-1.5825,-1.5825,-1.5825,-1.5805,-1.5651,-1.5511,-1.4969,-1.312,-1.1756,-1.0579,-0.9453,-0.9492,-1.0524,-0.9923,-0.9318,-0.8978,-0.889,-0.8281,-0.7217,-0.7041,-0.6967,-0.6873,-0.6776,-0.6668,-0.6525,-0.6426,-0.6351,-0.6349,-0.6683,-0.7176,-0.7787,-0.8184,-0.8385,-0.8365,-0.8656,-0.8237,-0.7334,-0.6691,-0.6574,-0.6885,-0.6844,-0.6895,-0.707,-0.4973,-0.3475,-0.3207,-0.1389,0.0,0.0,0.0,0.0,0.0,0.0,0.0,0.0,0.0,0.0,0.1384,0.1299,0.1135,0.1024,0.0478,0.0,0.0,0.0,0.0,0.1561,0.1511,0.2113,0.3414,0.3115,0.2715,0.1861,0.1611,0.0,0.0,0.0,0.0,0.0,0.0,0.0,0.0,0.0,0.0,0.0,0.0,0.0504,0.0756,0.1662,0.1662,0.126,0.126,0.0,0.0,0.0,0.0,0.0,0.0,0.0,-0.7988,-0.8187,-0.9558,-1.0194,-1.0534,-1.2909,-1.4076,-1.4262,-1.5188,-1.573,-1.5825,-1.5825,-1.5825,-1.5825,-1.5825,-1.5825,-1.5778,-1.5534,-1.5486,-1.5414,-1.5137,-1.4785,-1.4437,-1.2238,-1.1077,-1.0763,-0.9703,-0.9859,-1.1133,-1.0649,-1.0048,-0.9235,-0.8978,-0.8277,-0.7295,-0.6967,-0.6927,-0.69,-0.6761,-0.6661,-0.6532,-0.6532,-0.6553,-0.6549,-0.7316,-0.7936,-0.8503,-0.9043,-0.935,-0.911,-0.824,-0.741,-0.6592,-0.6493,-0.7158,-0.7967,-0.7386,-0.7535,-0.7603,-0.5346,-0.3472,-0.3123,0.0,0.0,0.0,0.0,0.0,0.0,0.0,0.0,0.0,0.0,0.0,-0.126,-0.0497,-0.0138,-0.0095,-0.0096,0.0,0.0,0.0,0.0454,0.1511,0.0756,0.146,0.2314,0.1611,0.1159,0.1209,0.0,0.0,0.0,0.0,0.0,0.0,0.0,0.0,0.0,0.0,0.0,0.0,0.0,0.0,0.0,0.0,0.0,0.0,0.0,0.0,0.0,0.0,0.0,0.0,0.0,0.0,-0.7988,-0.8233,-1.0435,-1.1409,-1.1804,-1.4172,-1.5289,-1.5337,-1.5588,-1.573,-1.5778,-1.5825,-1.573,-1.5778,-1.573,-1.5825,-1.5486,-1.4752,-1.4411,-1.4178,-1.3036,-1.3141,-1.3397,-1.2181,-1.1549,-1.1817,-1.0965,-1.1308,-1.2881,-1.1429,-1.0481,-1.0139,-0.9235,-0.8281,-0.7258,-0.7055,-0.7045,-0.7021,-0.69,-0.6809,-0.6793,-0.6685,-0.7067,-0.7829,-0.8087,-0.9044,-1.0338,-1.0067,-0.9356,-0.8474,-0.7546,-0.6905,-0.6773,-0.7415,-0.8089,-0.829,-0.8255,-0.7843,-0.7004,-0.5015,-0.3301,-0.2281,-0.0942,0.0,0.0,0.0,0.0,0.0,0.0,0.0,0.0,0.0,0.0,-0.0467,-0.0927,-0.1212,-0.1105,0.0,0.0,0.0,0.0,0.0,0.0,0.0,0.0,0.0,0.0,0.0,0.0,0.0,0.0,0.0,0.0,0.0,0.0,0.0,0.0,0.0,0.0,0.0,0.0,0.0,0.0,0.0,0.0,0.0,0.0,0.0,0.0,0.0,0.0,0.0,0.0,0.0,0.0,-0.7988,-0.8184,-1.0243,-1.1409,-1.2047,-1.3542,-1.4758,-1.5534,-1.5242,-1.5343,-1.5588,-1.5194,-1.4997,-1.4949,-1.4418,-1.4178,-1.4028,-1.3397,-1.3054,-1.2845,-1.1568,-1.1836,-1.2584,-1.2013,-1.2107,-1.3177,-1.2192,-1.258,-1.3521,-1.2169,-1.1166,-1.0438,-0.9449,-0.8321,-0.7183,-0.7095,-0.7095,-0.7078,-0.7007,-0.6953,-0.6883,-0.6844,-0.7375,-0.8304,-0.8769,-0.9811,-1.0806,-1.0372,-0.9476,-0.8386,-0.7716,-0.739,-0.7522,-0.8565,-0.9215,-0.9225,-0.8514,-0.7666,-0.6677,-0.4467,-0.2634,-0.179,-0.0673,0.0,0.0,0.0,0.0,0.0,0.0,0.0,0.0,-0.0419,-0.0755,-0.1006,-0.1431,-0.1625,0.0,-0.0441,0.0,0.0,0.0,0.0,0.0,0.0,0.0,0.0,0.0,0.0,0.0,0.0,0.0,0.0,0.0,0.0,0.0,0.0,0.0,0.0,0.0,0.0,0.0,0.0,0.0,0.0,0.0,0.0,0.0,0.0,0.0,0.0,0.0,0.0,0.0,0.0,0.0,-0.7988,-0.8084,-0.946,-1.0632,-1.1604,-1.1896,-1.3258,-1.4854,-1.4364,-1.4459,-1.4854,-1.4268,-1.3926,-1.3632,-1.2823,-1.2042,-1.2047,-1.1896,-1.1556,-1.1214,-1.0635,-1.1082,-1.251,-1.1568,-1.2169,-1.3578,-1.3209,-1.3349,-1.351,-1.2681,-1.1552,-1.0481,-0.9318,-0.8189,-0.7272,-0.7095,-0.7095,-0.7095,-0.7082,-0.7024,-0.695,-0.6996,-0.7611,-0.8888,-1.0213,-1.0491,-1.0695,-1.0433,-0.9903,-0.8569,-0.8461,-0.8458,-0.8711,-0.9888,-1.0376,-1.0023,-0.8596,-0.737,-0.6283,-0.3554,-0.161,-0.1119,-0.036,0.0,0.0,0.0,0.0,0.0,0.0,0.0,0.0,-0.1051,-0.1446,-0.1466,-0.157,-0.1277,0.0,0.0,0.0,0.0,0.0,0.0,0.0,0.0,0.0,0.0,0.0,0.0,0.0,0.0,0.0,0.0,0.0,0.0,0.0,0.0,0.0,0.0,0.0,0.0,0.0,0.0,0.0,0.0,0.0,0.0,0.0,0.0,0.0,0.0,0.0,0.0,0.0,0.0,0.0,-0.7988,-0.8137,-0.9464,-1.0149,-1.0534,-1.1463,-1.2237,-1.2818,-1.359,-1.3392,-1.306,-1.3494,-1.3199,-1.2285,-1.1896,-1.1896,-1.1507,-1.0779,-0.9895,-0.897,-0.9801,-1.0747,-1.1735,-1.1087,-1.1603,-1.299,-1.3162,-1.3366,-1.3512,-1.218,-1.0864,-1.0438,-0.8659,-0.7404,-0.7183,-0.7095,-0.7095,-0.7095,-0.7095,-0.7082,-0.7055,-0.7125,-0.8009,-0.9876,-1.1924,-1.2518,-1.2005,-1.1864,-1.1283,-1.0223,-0.9429,-0.9354,-1.0131,-1.116,-1.1277,-1.0205,-0.9005,-0.7098,-0.463,-0.2667,-0.0939,0.0449,0.0,0.0,0.0,0.0,0.0,0.0,0.0,0.0,0.0,-0.1217,-0.1374,-0.1045,-0.1299,-0.135,0.0,0.0,0.0,0.0,0.0,0.0,0.0,0.0,0.0,0.0,0.0,0.0,0.0,0.0,0.0,0.0,0.0,0.0,0.0,0.0,0.0,-0.1511,-0.1712,-0.1964,-0.2265,0.0,0.0,0.0,0.0,0.0,0.0,0.0,0.0,0.0,-0.0807,-0.1159,-0.141,-0.146,-0.1264,-0.7988,-0.8088,-0.8775,-0.9414,-0.9953,-1.0092,-1.0779,-1.1702,-1.194,-1.2037,-1.1896,-1.2134,-1.1648,-1.097,-1.0386,-1.0043,-0.9944,-0.946,-0.9069,-0.9069,-0.9801,-1.1023,-1.2485,-1.2214,-1.2487,-1.3893,-1.4037,-1.4147,-1.3615,-1.1969,-1.0654,-1.0394,-0.8269,-0.7272,-0.7095,-0.7095,-0.7095,-0.7095,-0.7095,-0.7095,-0.7095,-0.7139,-0.8225,-1.0524,-1.2735,-1.3561,-1.2407,-1.2273,-1.1975,-1.1381,-1.0826,-1.0697,-1.1252,-1.1895,-1.1413,-0.9794,-0.7393,-0.5468,-0.3014,-0.1114,0.0225,0.0863,0.0322,0.0,0.0,0.0,0.0,0.0,0.0,0.0,-0.0992,-0.1439,-0.1299,-0.0452,0.0,0.0,0.0,0.0,0.0,0.0,0.0,0.0,0.0,0.0,0.0,0.0,0.0,0.0,0.0,0.0,0.0,0.0,0.0,0.0,0.0,0.0,0.0,-0.2867,-0.3417,-0.3819,-0.4271,-0.2766,0.0,0.0,0.0,0.0,0.0,0.0,0.0,-0.1008,-0.1611,-0.2213,-0.2423,-0.2084,-0.1889,-0.7988,-0.7988,-0.7988,-0.868,-0.941,-0.8577,-0.9262,-1.0872,-1.0435,-1.0583,-1.1023,-1.0288,-1.0145,-0.9509,-0.8676,-0.8088,-0.8088,-0.8237,-0.8627,-0.9752,-1.0288,-1.175,-1.3208,-1.3755,-1.4137,-1.5371,-1.4895,-1.4652,-1.379,-1.2031,-1.0659,-1.0173,-0.8269,-0.7228,-0.7095,-0.7095,-0.7095,-0.7095,-0.7095,-0.7095,-0.7228,-0.7401,-0.8707,-1.095,-1.2863,-1.3688,-1.2942,-1.2723,-1.2632,-1.2589,-1.2589,-1.2462,-1.2279,-1.1969,-1.101,-0.8645,-0.5455,-0.309,-0.1559,0.0224,0.1226,0.0277,0.0047,0.0,0.0,0.0,0.0,0.0,-0.1403,-0.2152,-0.2063,-0.1958,-0.1307,0.0,0.0,0.0,0.0,0.0,0.0,0.0,0.0,0.0,0.0,0.0,0.0,0.0,0.0,0.0,0.0,0.0,0.0,0.0,0.0,0.0,0.0,-0.126,-0.2667,-0.3869,-0.462,-0.4872,-0.5225,-0.3417,-0.1661,-0.141,0.0,0.0,0.0,0.0,0.0,0.0,-0.2023,-0.2237,-0.2401,-0.2567,-0.2324,-0.7988,-0.7988,-0.7988,-0.8137,-0.8283,-0.8088,-0.8283,-0.8775,-0.9608,-0.946,-0.892,-0.9554,-0.9316,-0.863,-0.8237,-0.7988,-0.7988,-0.8187,-0.8871,-1.019,-1.1068,-1.2624,-1.3903,-1.4735,-1.5355,-1.5391,-1.5064,-1.4529,-1.3687,-1.1886,-1.0611,-1.0048,-0.8229,-0.7139,-0.7095,-0.7095,-0.7095,-0.7095,-0.7095,-0.7139,-0.7445,-0.8404,-0.9662,-1.1766,-1.3336,-1.3822,-1.3864,-1.373,-1.3815,-1.3822,-1.3815,-1.3203,-1.2188,-1.1294,-0.9636,-0.7232,-0.4012,-0.1506,-0.0447,0.0863,0.1605,0.1301,0.057,0.0,0.0,0.0,0.0,-0.1756,-0.2715,-0.3265,-0.2114,-0.2214,-0.136,0.0,0.0,0.0,0.0,0.0,0.0,0.0,0.0,0.0,0.0,0.0,0.0,0.0,0.0,0.0,0.0,0.0,0.0,0.0,0.0,0.0,0.0,-0.2013,-0.2967,-0.4472,-0.5122,-0.482,-0.467,-0.3267,-0.2264,-0.2163,0.0,0.0,0.0,0.0,0.0,0.0,-0.1887,-0.2161,-0.2693,-0.3127,-0.2265,-0.7988,-0.7988,-0.7988,-0.7988,-0.7988,-0.7988,-0.7988,-0.8088,-0.8676,-0.9019,-0.897,-0.9019,-0.9065,-0.8825,-0.8237,-0.7988,-0.8137,-0.8825,-0.9752,-1.1023,-1.2328,-1.359,-1.4721,-1.5456,-1.5518,-1.5458,-1.5017,-1.4324,-1.3486,-1.163,-1.0472,-0.9401,-0.7925,-0.7139,-0.7095,-0.7095,-0.7095,-0.7095,-0.7139,-0.7448,-0.8189,-0.9662,-1.1338,-1.2248,-1.3421,-1.4039,-1.4088,-1.4088,-1.4082,-1.4088,-1.4088,-1.3075,-1.1541,-0.9688,-0.8016,-0.5928,-0.2834,-0.0626,0.0091,0.1058,0.1489,0.0858,0.0,0.0,0.0,0.0,0.0,-0.2715,-0.4169,-0.447,-0.3217,-0.3015,-0.2012,0.0,0.0,0.0,0.0,0.0,0.0,0.0,0.0,0.0,0.0,0.0,0.0,0.0,0.0,0.0,0.0,0.0,0.0,0.0,0.0,0.0,-0.2413,-0.3016,-0.3519,-0.4872,-0.514,-0.4887,-0.4487,-0.3335,-0.3123,-0.3214,0.0,0.0,0.0,0.0,0.0,-0.1834,-0.2468,-0.3062,-0.3514,-0.3495,-0.2357,-0.7988,-0.7988,-0.7988,-0.7988,-0.7988,-0.7988,-0.7988,-0.8041,-0.8386,-0.9069,-0.9752,-0.9069,-0.9118,-0.941,-0.8775,-0.8137,-0.8432,-0.9608,-1.073,-1.228,-1.3247,-1.4507,-1.5414,-1.5631,-1.5531,-1.5545,-1.5231,-1.4553,-1.3599,-1.1755,-1.0328,-0.9407,-0.8115,-0.7115,-0.7105,-0.7095,-0.7095,-0.7183,-0.7448,-0.8149,-0.9749,-1.1252,-1.2456,-1.2681,-1.3597,-1.4088,-1.4088,-1.4088,-1.4142,-1.4064,-1.3698,-1.2662,-1.0424,-0.7983,-0.6086,-0.4374,-0.1431,-0.0136,0.0277,0.1077,0.1332,0.0,0.0,0.0,0.0,0.0,-0.1862,-0.3765,-0.547,-0.5572,-0.4168,-0.3915,-0.2614,0.0,0.0,0.0,0.0,0.0,0.0,0.0,0.0,0.0,0.0,0.0,0.0,0.0,0.0,0.0,0.0,0.0,0.0,0.0,0.0,0.0,-0.3265,-0.4119,-0.4622,-0.5427,-0.4857,-0.4018,-0.3918,-0.3615,-0.3658,-0.361,0.0,0.0,0.0,-0.1518,-0.2395,-0.3082,-0.3578,-0.3569,-0.3251,-0.2539,-0.1422,-0.7988,-0.7988,-0.7988,-0.7988,-0.7988,-0.7988,-0.7988,-0.8137,-0.9167,-0.9801,-1.0194,-0.9854,-0.985,-0.9653,-0.8577,-0.8726,-0.9509,-1.0145,-1.1404,-1.3241,-1.3926,-1.4704,-1.5635,-1.5764,-1.5725,-1.5685,-1.5471,-1.5211,-1.4165,-1.2326,-1.106,-1.0211,-0.8391,-0.7285,-0.7136,-0.7159,-0.7095,-0.7319,-0.8193,-0.9705,-1.1423,-1.2151,-1.2899,-1.3561,-1.3955,-1.4108,-1.4128,-1.4155,-1.4229,-1.4293,-1.3206,-1.1576,-0.9473,-0.695,-0.4515,-0.2244,-0.0184,0.1114,0.0379,0.0912,0.1213,0.0,0.0,0.0,0.0,-0.2013,-0.3316,-0.3867,-0.6174,-0.6326,-0.4568,-0.4016,-0.2565,0.0,0.0,0.0,0.0,0.0,0.0,0.0,0.0,0.0,0.0,0.0,0.0,0.0,0.0,0.0,0.0,0.0,0.0,0.0,0.0,-0.2313,-0.3165,-0.4117,-0.464,-0.5443,-0.4776,-0.344,-0.3148,-0.3156,-0.3734,-0.3587,-0.3342,-0.3744,-0.3903,-0.399,-0.4114,-0.4162,-0.4381,-0.3533,-0.239,-0.1541,-0.089,-0.7988,-0.7988,-0.7988,-0.7988,-0.7988,-0.7988,-0.7988,-0.8283,-0.9414,-1.0435,-1.0974,-1.1068,-1.073,-0.9948,-0.8577,-0.8726,-0.9899,-1.073,-1.2037,-1.3824,-1.4609,-1.5235,-1.5676,-1.5825,-1.5825,-1.5792,-1.5664,-1.5625,-1.4585,-1.2814,-1.0985,-0.9985,-0.8535,-0.7424,-0.7292,-0.7356,-0.7737,-0.856,-0.9862,-1.1262,-1.2242,-1.2942,-1.3561,-1.4095,-1.4102,-1.4188,-1.4295,-1.4335,-1.4476,-1.4456,-1.3434,-1.1625,-0.9323,-0.6869,-0.435,-0.2005,-0.0287,0.0384,0.0145,0.0,0.0,0.0,0.0,0.0,0.0,-0.2314,-0.4016,-0.4016,-0.6476,-0.6476,-0.4668,-0.4066,-0.2413,0.0,0.0,0.0,0.0,0.0,0.0,0.0,0.0,0.0,0.0,0.0,0.0,0.0,0.0,0.0,0.0,0.0,0.0,0.0,0.0,-0.2163,-0.2765,-0.3468,-0.3454,-0.4124,-0.4714,-0.347,-0.2517,-0.2476,-0.3751,-0.4958,-0.5536,-0.5915,-0.6215,-0.5982,-0.5613,-0.5367,-0.5116,-0.4246,-0.3354,-0.2103,0.0,-0.7988,-0.7988,-0.7988,-0.7988,-0.7988,-0.7988,-0.7988,-0.8187,-0.9801,-1.1023,-1.1804,-1.2139,-1.1697,-1.0435,-0.941,-0.9554,-1.1068,-1.1653,-1.2915,-1.4268,-1.5242,-1.5683,-1.5825,-1.5825,-1.5825,-1.5825,-1.5805,-1.5772,-1.4993,-1.3432,-1.1466,-0.9903,-0.9041,-0.7977,-0.7621,-0.7943,-0.8588,-1.0093,-1.144,-1.2414,-1.3028,-1.386,-1.4193,-1.4329,-1.4329,-1.4409,-1.4589,-1.4629,-1.4776,-1.4765,-1.3284,-1.1405,-0.9465,-0.6591,-0.4113,-0.2043,-0.0539,0.0,0.0,0.0,0.0,0.0,0.0,0.0,0.0,-0.2714,-0.4318,-0.4618,-0.6578,-0.6326,-0.4768,-0.4016,-0.2564,0.0,0.0,0.0,0.0,0.0,0.0,0.0,0.0,0.0,0.0,0.0,0.0,0.0,0.0,0.0,0.0,0.0,0.0,0.0,0.0,-0.1964,-0.2417,-0.2827,-0.2754,-0.3198,-0.3841,-0.383,-0.3034,-0.381,-0.5332,-0.6445,-0.7057,-0.7528,-0.7557,-0.7314,-0.7068,-0.68,-0.6421,-0.5558,-0.4497,-0.3067,0.0,-0.7988,-0.7988,-0.7988,-0.7988,-0.7988,-0.7988,-0.7988,-0.8233,-1.0632,-1.1804,-1.2431,-1.3006,-1.2861,-1.1702,-1.0779,-1.1165,-1.344,-1.2382,-1.3451,-1.4813,-1.5737,-1.5683,-1.5683,-1.5629,-1.5825,-1.5825,-1.5825,-1.5825,-1.5527,-1.4522,-1.2889,-1.1554,-1.0018,-0.8831,-0.8574,-0.9121,-1.0229,-1.1552,-1.2683,-1.3411,-1.4018,-1.4588,-1.4823,-1.4888,-1.4921,-1.4961,-1.4975,-1.493,-1.4876,-1.5055,-1.3003,-1.1042,-0.9135,-0.6345,-0.3912,-0.2458,-0.1343,0.0,0.0,0.0,0.0,0.0,0.0,-0.0454,-0.1511,-0.2966,-0.442,-0.5575,-0.7083,-0.6628,-0.507,-0.3765,-0.2715,0.0,0.0,0.0,0.0,0.0,0.0,0.0,0.0,0.0,0.0,0.0,0.0,0.0,0.0,0.0,0.0,0.0,0.0,0.0,0.0,-0.1814,-0.2171,-0.2493,-0.2988,-0.377,-0.4503,-0.434,-0.3853,-0.5186,-0.6901,-0.6624,-0.7035,-0.797,-0.8737,-0.8227,-0.7951,-0.8081,-0.7638,-0.6541,-0.4731,-0.2848,-0.1454,-0.7988,-0.7988,-0.7988,-0.7988,-0.7988,-0.7988,-0.7988,-0.8432,-1.0779,-1.2915,-1.4226,-1.4022,-1.3638,-1.2861,-1.1896,-1.2139,-1.368,-1.344,-1.3878,-1.4561,-1.5242,-1.5242,-1.5188,-1.5289,-1.5825,-1.573,-1.573,-1.5825,-1.5683,-1.5146,-1.4333,-1.2885,-1.112,-1.0437,-1.0283,-1.0905,-1.204,-1.2835,-1.369,-1.4466,-1.4632,-1.4921,-1.5015,-1.5015,-1.5015,-1.5122,-1.519,-1.5231,-1.4975,-1.4149,-1.2605,-1.0891,-0.9071,-0.6374,-0.4613,-0.3374,-0.2555,-0.2261,-0.1812,0.0,0.0,0.0,0.0,-0.0656,-0.2164,-0.3316,-0.457,-0.5874,-0.7185,-0.688,-0.5724,-0.447,-0.3265,-0.1662,0.0,0.0,0.0,0.0,0.0,0.0,0.0,0.0,0.0,0.0,0.0,0.0,0.0,0.0,0.0,0.0,0.0,0.0,0.0,-0.1678,-0.209,-0.2679,-0.3439,-0.4346,-0.5231,-0.4957,-0.4949,-0.6801,-0.8042,-0.7491,-0.7152,-0.8243,-0.8842,-0.8794,-0.8739,-0.8565,-0.8087,-0.7296,-0.5135,-0.2738,-0.1399,-0.7988,-0.7988,-0.7988,-0.7988,-0.7988,-0.7988,-0.8237,-0.897,-1.0921,-1.3355,-1.5689,-1.4848,-1.4459,-1.407,-1.3151,-1.3253,-1.3974,-1.368,-1.3638,-1.3926,-1.422,-1.4124,-1.3884,-1.398,-1.4274,-1.4717,-1.5146,-1.5146,-1.5146,-1.5581,-1.5175,-1.401,-1.2415,-1.1819,-1.1647,-1.2811,-1.3554,-1.4047,-1.4975,-1.5348,-1.5271,-1.5652,-1.5882,-1.5941,-1.6001,-1.6071,-1.6211,-1.6167,-1.5344,-1.413,-1.2533,-1.084,-0.8882,-0.7062,-0.5672,-0.4822,-0.4268,-0.4066,-0.3416,0.0,0.0,0.0,0.0,-0.1612,-0.2917,-0.4067,-0.5375,-0.6528,-0.7487,-0.7437,-0.6129,-0.477,-0.3466,0.0,0.0,0.0,0.0,0.0,0.0,0.0,0.0,0.0,0.0,0.0,0.0,0.0,0.0,0.0,0.0,0.0,0.0,0.0,0.0,-0.1433,-0.2014,-0.3564,-0.4947,-0.5525,-0.6157,-0.5834,-0.6272,-0.7919,-0.8263,-0.7188,-0.7296,-0.8484,-0.8868,-0.8844,-0.8854,-0.8871,-0.8097,-0.7093,-0.5303,-0.3017,-0.1566,-0.7988,-0.7988,-0.7988,-0.7988,-0.7988,-0.7988,-0.868,-0.985,-1.1409,-1.3451,-1.5635,-1.5581,-1.5581,-1.5337,-1.4268,-1.4513,-1.4711,-1.3397,-1.277,-1.3392,-1.2963,-1.2285,-1.2139,-1.2285,-1.2818,-1.2479,-1.3397,-1.4268,-1.4172,-1.5289,-1.5534,-1.5343,-1.4118,-1.308,-1.2147,-1.2995,-1.3986,-1.5057,-1.6478,-1.6466,-1.6324,-1.7001,-1.7398,-1.7182,-1.7174,-1.7165,-1.6815,-1.6789,-1.5684,-1.3663,-1.2571,-1.1063,-0.9399,-0.7369,-0.6229,-0.5979,-0.492,-0.4318,-0.3966,-0.2715,-0.2163,-0.1812,-0.1712,-0.2916,-0.4974,-0.5929,-0.6229,-0.7285,-0.7889,-0.7335,-0.6126,-0.482,-0.3466,0.0,0.0,0.0,0.0,0.0,0.0,0.0,0.0,0.0,0.0,0.0,0.0,0.0,0.0,0.0,0.0,0.0,0.0,0.0,-0.1599,-0.2391,-0.3419,-0.5192,-0.6457,-0.694,-0.6983,-0.6599,-0.674,-0.7811,-0.7651,-0.6755,-0.7482,-0.8771,-0.8937,-0.8933,-0.8716,-0.8377,-0.754,-0.6422,-0.4803,-0.3296,-0.179,-0.7988,-0.7988,-0.7988,-0.7988,-0.7988,-0.7988,-0.8775,-1.0239,-1.2231,-1.422,-1.5534,-1.5825,-1.5825,-1.5629,-1.5439,-1.5296,-1.5248,-1.4268,-1.3536,-1.2425,-1.1896,-1.1365,-1.1072,-1.1263,-1.1702,-1.2237,-1.3156,-1.3782,-1.3974,-1.5194,-1.5683,-1.5581,-1.5473,-1.4507,-1.419,-1.4946,-1.6554,-1.698,-1.7957,-1.8544,-1.8194,-1.8525,-1.8503,-1.7824,-1.7777,-1.7412,-1.6756,-1.6756,-1.5263,-1.3097,-1.1945,-1.0872,-0.9262,-0.7282,-0.7282,-0.7285,-0.6625,-0.6176,-0.5625,-0.4672,-0.372,-0.3066,-0.3016,-0.4169,-0.5777,-0.5979,-0.6734,-0.7587,-0.7939,-0.7285,-0.6129,-0.482,-0.3466,-0.2113,0.0,0.0,0.0,0.0,0.0,0.0,0.0,0.0,0.0,0.0,0.0,0.0,0.0,-0.1274,0.0,0.0,0.0,0.0,-0.3053,-0.3763,-0.482,-0.6187,-0.6912,-0.718,-0.7315,-0.7238,-0.7537,-0.7986,-0.7537,-0.6922,-0.7928,-0.8881,-0.8716,-0.8491,-0.8156,-0.7654,-0.6869,-0.5864,-0.4413,-0.3073,-0.179,-0.7988,-0.7988,-0.7988,-0.7988,-0.7988,-0.7988,-0.897,-1.0921,-1.3343,-1.5045,-1.5683,-1.5825,-1.5825,-1.5825,-1.5778,-1.5343,-1.5099,-1.3788,-1.2474,-1.1312,-1.0681,-0.9998,-0.9801,-1.0141,-1.0092,-1.1068,-1.2334,-1.3156,-1.3204,-1.4949,-1.5683,-1.5967,-1.6567,-1.6021,-1.5778,-1.6391,-1.7507,-1.7972,-1.8854,-1.9765,-1.9464,-1.9314,-1.9093,-1.8457,-1.7956,-1.7358,-1.6615,-1.5704,-1.459,-1.2614,-1.1214,-1.0288,-0.8676,-0.7988,-0.7988,-0.7988,-0.7889,-0.7235,-0.6279,-0.6578,-0.5425,-0.3969,-0.437,-0.5272,-0.6379,-0.6833,-0.7185,-0.7736,-0.7939,-0.7132,-0.5979,-0.467,-0.3416,-0.2113,0.0,0.0,0.0,0.0,0.0,0.0,0.0,0.0,-0.0555,0.0,0.0,0.0,-0.2694,-0.2616,-0.2538,-0.2708,-0.2777,-0.3284,-0.3956,-0.4623,-0.5526,-0.673,-0.7298,-0.7473,-0.7485,-0.754,-0.7931,-0.8263,-0.7703,-0.7146,-0.7593,-0.7931,-0.8156,-0.8045,-0.7875,-0.7204,-0.62,-0.5139,-0.3965,-0.2794,-0.151,-0.7988,-0.7988,-0.7988,-0.7988,-0.7988,-0.8283,-0.9702,-1.2042,-1.4615,-1.573,-1.5825,-1.5825,-1.5825,-1.5825,-1.5825,-1.5289,-1.4166,-1.2818,-1.1604,-1.0239,-0.941,-0.8627,-0.8382,-0.8577,-0.9167,-0.9554,-1.0823,-1.2915,-1.2474,-1.4984,-1.6103,-1.6285,-1.7623,-1.7016,-1.656,-1.6803,-1.7591,-1.8226,-1.9397,-2.0079,-1.9988,-1.9588,-1.9405,-1.891,-1.828,-1.7544,-1.6788,-1.5913,-1.419,-1.2366,-1.0774,-0.946,-0.8478,-0.8038,-0.7988,-0.7988,-0.7988,-0.7232,-0.6731,-0.7385,-0.7182,-0.5824,-0.5927,-0.683,-0.7335,-0.7587,-0.7584,-0.7637,-0.7686,-0.6731,-0.5727,-0.452,-0.3364,-0.2012,-0.0706,0.0,0.0,0.0,0.0,0.0,0.0,0.0,0.0,-0.1766,-0.209,-0.2975,-0.3562,-0.3498,-0.3476,-0.3653,-0.3729,-0.3652,-0.4385,-0.5226,-0.6143,-0.6738,-0.6654,-0.6478,-0.754,-0.7817,-0.8208,-0.8208,-0.7873,-0.7315,-0.6924,-0.6982,-0.7374,-0.7651,-0.7765,-0.6813,-0.5306,-0.43,-0.3073,-0.2291,0.0,-0.7988,-0.7988,-0.7988,-0.7988,-0.8283,-0.9993,-1.1268,-1.2237,-1.4663,-1.5825,-1.5825,-1.5825,-1.5825,-1.5825,-1.5825,-1.5534,-1.4465,-1.3156,-1.2091,-1.0681,-0.9167,-0.8333,-0.8382,-0.897,-0.9266,-1.0288,-1.1697,-1.3199,-1.3866,-1.5846,-1.6433,-1.6292,-1.7716,-1.7171,-1.685,-1.7037,-1.7412,-1.8048,-1.9306,-2.0034,-2.0169,-1.9716,-1.9542,-1.9001,-1.8141,-1.7311,-1.6372,-1.5156,-1.3434,-1.2086,-1.0681,-0.941,-0.8134,-0.7988,-0.7988,-0.7988,-0.7988,-0.7786,-0.7537,-0.7786,-0.7736,-0.7385,-0.7282,-0.7484,-0.7889,-0.7889,-0.7633,-0.7534,-0.7534,-0.683,-0.5325,-0.3917,-0.2663,-0.131,0.0,0.0,0.0,0.0,0.0,0.0,0.0,0.0,0.0,-0.2608,-0.3047,-0.3951,-0.4409,-0.4355,-0.4179,-0.4256,-0.4005,-0.3926,-0.4108,-0.4737,-0.531,-0.5899,-0.5686,-0.5641,-0.6758,-0.7315,-0.67,-0.6755,-0.7429,-0.7204,-0.6197,-0.6311,-0.6813,-0.6924,-0.6813,-0.5417,-0.3967,-0.3073,-0.2235,-0.151,0.0,-0.7988,-0.7988,-0.7988,-0.7988,-0.8432,-1.0779,-1.1896,-1.2382,-1.4663,-1.5825,-1.5825,-1.5825,-1.5825,-1.5825,-1.5778,-1.5439,-1.4704,-1.2915,-1.1848,-1.1268,-0.9805,-0.9657,-0.9752,-1.0239,-1.0632,-1.1556,-1.2522,-1.3734,-1.459,-1.6116,-1.7037,-1.6062,-1.7397,-1.7077,-1.6662,-1.6943,-1.7217,-1.7677,-1.8495,-1.9716,-1.9852,-1.9443,-1.8956,-1.8596,-1.7638,-1.6615,-1.5676,-1.4268,-1.277,-1.1848,-1.0681,-0.9702,-0.9019,-0.9213,-0.9114,-0.9164,-0.8871,-0.8478,-0.8035,-0.7889,-0.7988,-0.7988,-0.7988,-0.7988,-0.7939,-0.7939,-0.7584,-0.7385,-0.7385,-0.698,-0.502,-0.3165,-0.1762,-0.0353,0.0,0.0,0.0,0.0,0.0,0.0,0.0,0.0,-0.2511,-0.3214,-0.4041,-0.4986,-0.5305,-0.4978,-0.4695,-0.4394,-0.3856,-0.343,-0.3552,-0.3899,-0.4413,-0.4804,-0.4804,-0.5027,-0.6255,-0.6366,-0.5417,-0.5641,-0.6702,-0.6197,-0.5137,-0.5303,-0.5584,-0.5641,-0.5361,-0.4023,-0.2907,-0.218,-0.1454,-0.0784,0.0,-0.7968,-0.7961,-0.7958,-0.7941,-0.8361,-1.0742,-1.1866,-1.2237,-1.4663,-1.5825,-1.5825,-1.5825,-1.5825,-1.5825,-1.5778,-1.5296,-1.4465,-1.3108,-1.2425,-1.1999,-1.0828,-1.0534,-1.1214,-1.1994,-1.2037,-1.2522,-1.3349,-1.4459,-1.4835,-1.621,-1.7084,-1.6015,-1.7894,-1.7855,-1.6292,-1.6756,-1.685,-1.6615,-1.7623,-1.8856,-1.8864,-1.8319,-1.7591,-1.7591,-1.6756,-1.5778,-1.5146,-1.3788,-1.1945,-1.1604,-1.0872,-1.0043,-1.0485,-1.0877,-1.0779,-1.0386,-0.9899,-0.9262,-0.8577,-0.8233,-0.8038,-0.7988,-0.7988,-0.7988,-0.7988,-0.7988,-0.7686,-0.7083,-0.6983,-0.5824,-0.4017,-0.3016,-0.1862,0.0,0.0,0.0,0.0,0.0,0.0,0.0,-0.0512,-0.1595,-0.3169,-0.389,-0.4206,-0.5616,-0.5349,-0.4845,-0.4422,-0.3895,-0.3456,-0.2737,-0.2515,-0.2572,-0.2961,-0.3352,-0.3799,-0.447,-0.5361,-0.5697,-0.4916,-0.5308,-0.6089,-0.5417,-0.4636,-0.4078,-0.4023,-0.4134,-0.3965,-0.3073,-0.2125,-0.1399,0.0,0.0,0.0,-0.7816,-0.7851,-0.775,-0.7763,-0.8198,-1.0642,-1.1788,-1.2134,-1.4663,-1.5764,-1.5825,-1.5818,-1.5825,-1.5825,-1.5825,-1.5486,-1.5051,-1.383,-1.3488,-1.3011,-1.2091,-1.1799,-1.2237,-1.3108,-1.3343,-1.383,-1.4555,-1.5194,-1.552,-1.656,-1.7084,-1.6109,-1.7444,-1.7171,-1.5967,-1.6433,-1.6197,-1.592,-1.6473,-1.7576,-1.7855,-1.721,-1.652,-1.685,-1.6527,-1.5872,-1.5003,-1.3451,-1.2963,-1.2861,-1.1019,-1.073,-1.1409,-1.1799,-1.175,-1.1361,-1.073,-1.0092,-0.9312,-0.8676,-0.8233,-0.8038,-0.7988,-0.7988,-0.7988,-0.7988,-0.7686,-0.7033,-0.6079,-0.4722,-0.3518,-0.2815,0.0,0.0,0.0,0.0,0.0,0.0,0.0,0.0,0.0,-0.1776,-0.3481,-0.4322,-0.4699,-0.4371,-0.348,-0.2893,-0.2504,-0.2122,-0.2289,-0.1677,-0.1008,-0.1008,-0.151,-0.1901,-0.2293,-0.2739,-0.3406,-0.3854,-0.4357,-0.4803,-0.525,-0.4916,-0.4357,-0.3688,-0.3017,-0.2682,-0.2347,-0.1845,0.0,0.0,0.0,0.0,0.0,-0.7719,-0.7706,-0.7634,-0.7645,-0.8178,-1.0435,-1.1583,-1.2126,-1.4474,-1.5558,-1.5518,-1.5691,-1.5825,-1.5825,-1.5825,-1.5825,-1.5581,-1.4459,-1.4411,-1.4172,-1.3596,-1.3451,-1.3788,-1.4268,-1.4561,-1.5045,-1.5384,-1.5778,-1.5967,-1.6204,-1.6346,-1.5967,-1.6574,-1.6574,-1.5825,-1.5825,-1.5825,-1.5825,-1.5825,-1.6244,-1.6936,-1.6339,-1.6008,-1.6433,-1.6292,-1.5825,-1.5194,-1.3836,-1.3542,-1.3584,-1.2469,-1.2764,-1.3397,-1.3836,-1.3403,-1.2861,-1.2129,-1.1209,-1.0239,-0.9312,-0.8528,-0.8233,-0.7988,-0.7988,-0.7988,-0.7988,-0.7939,-0.7285,-0.6431,-0.5125,-0.3768,-0.2916,-0.1662,0.0,0.0,0.0,0.0,0.0,0.0,0.0,-0.1637,-0.2296,-0.3668,-0.4305,-0.4402,-0.3365,-0.2399,-0.1677,-0.1175,-0.0952,-0.0952,-0.0896,-0.0448,-0.0168,-0.0672,-0.0784,-0.0784,-0.1175,-0.1733,-0.3017,-0.4078,-0.4244,-0.43,-0.4357,-0.4023,-0.3073,-0.2459,-0.1845,-0.1343,-0.0896,0.0,0.0,0.0,0.0,0.0,-0.7556,-0.7543,-0.7536,-0.7553,-0.7937,-1.0232,-1.1314,-1.1789,-1.4145,-1.5256,-1.5104,-1.5551,-1.5745,-1.5772,-1.5825,-1.5825,-1.5534,-1.4895,-1.5099,-1.5146,-1.4609,-1.4561,-1.5003,-1.5629,-1.5581,-1.5581,-1.5778,-1.5825,-1.5825,-1.6015,-1.6015,-1.5825,-1.5825,-1.5825,-1.5825,-1.5825,-1.5825,-1.5825,-1.5825,-1.5825,-1.5872,-1.5825,-1.5872,-1.5872,-1.5825,-1.5825,-1.5384,-1.4752,-1.4022,-1.4118,-1.4118,-1.4513,-1.5086,-1.5473,-1.4991,-1.4405,-1.3998,-1.2555,-1.1019,-1.0047,-0.9118,-0.8432,-0.8137,-0.7988,-0.7988,-0.7988,-0.7939,-0.7534,-0.6634,-0.5627,-0.427,-0.2815,-0.1511,0.0,0.0,0.0,0.0,0.0,0.0,-0.2018,-0.2313,-0.2775,-0.3352,-0.3997,-0.3397,-0.2401,-0.1734,-0.1064,-0.056,-0.0616,-0.0672,-0.0672,-0.0504,-0.0336,-0.0168,0.0,0.0,-0.0336,-0.1175,-0.2684,-0.408,-0.5137,-0.5303,-0.4303,-0.3799,-0.2961,-0.1846,-0.1008,-0.0448,0.0,0.0,0.0,0.0,0.0,0.0,-0.7339,-0.7183,-0.7183,-0.7299,-0.7808,-1.0066,-1.1201,-1.1726,-1.394,-1.5048,-1.5075,-1.5264,-1.5478,-1.5498,-1.5698,-1.5778,-1.573,-1.5289,-1.5439,-1.5581,-1.5337,-1.5534,-1.573,-1.5825,-1.5825,-1.5825,-1.5825,-1.5825,-1.5825,-1.5825,-1.5825,-1.5825,-1.5825,-1.5825,-1.5825,-1.5825,-1.5825,-1.5825,-1.5825,-1.5825,-1.5825,-1.5825,-1.5825,-1.5825,-1.5825,-1.5825,-1.5486,-1.4555,-1.4704,-1.5099,-1.5486,-1.5724,-1.6231,-1.6842,-1.6553,-1.6021,-1.5617,-1.3939,-1.2351,-1.0867,-0.9752,-0.8233,-0.7988,-0.7988,-0.7988,-0.7988,-0.7939,-0.7786,-0.6983,-0.6282,-0.4922,-0.3167,-0.1813,-0.1212,0.0,0.0,0.0,0.0,0.0,-0.1661,-0.1743,-0.2145,-0.2497,-0.2567,-0.1899,-0.1175,-0.1008,0.0,0.0,0.0,0.0,-0.056,-0.0672,-0.028,0.0,0.0,0.0,0.0,-0.0672,-0.2349,-0.4357,-0.6922,-0.6813,-0.4972,-0.3968,-0.3242,-0.2014,0.0,0.0,0.0,0.0,0.0,0.0,0.0,0.0]}]]